[[{"header":{"parameterUnit":"m.s-1","parameterCategory":1,"la1":30.6,"la2":29.2853,"lo1":-89.7004,"lo2":-87.6739,"dy":0.0162,"dx":0.0183,"nx":112,"ny":82,"refTime":"2024-03-18T18:00:00:Z","depth":0,"parameterNumber":2,"parameterNumberName":"U-component_of_WINDS"},"data":[0.0,0.0,0.0,0.0,0.0,0.0,0.0,0.0,0.0,0.0,0.0,0.0,0.0,0.0,0.0,0.0,0.0,0.0,0.0,0.0,0.0,0.0,0.0,0.0,0.0,0.0,0.0,0.0,0.0,0.0,0.0,0.0,0.0,0.0,0.0,0.0,0.0,0.0,0.0,0.0,0.0,0.0,0.0,0.0,0.0,0.0,0.0,0.0,0.0,0.0,0.0,0.0,0.0,0.0,0.0,0.0,0.0,0.0,0.0,0.0,0.0,0.0,0.0,0.0,0.0,0.0,0.0,0.0,0.0,0.0,0.0,0.0,0.0,0.0,0.0,0.0,0.0,0.0,0.0,0.0,0.0,0.0,0.0,0.0,0.0,0.0,0.0,0.0,0.0,0.0,3.9288,4.0028,4.0096,4.0096,4.0096,4.0096,4.0096,4.0096,0.0,0.0,0.0,0.0,0.0,0.0,0.0,0.0,0.0,0.0,0.0,0.0,0.0,0.0,0.0,0.0,0.0,0.0,0.0,0.0,0.0,0.0,0.0,0.0,0.0,0.0,0.0,0.0,0.0,0.0,0.0,0.0,0.0,0.0,0.0,0.0,0.0,0.0,0.0,0.0,0.0,0.0,0.0,0.0,0.0,0.0,0.0,0.0,0.0,0.0,0.0,0.0,0.0,0.0,0.0,0.0,0.0,0.0,0.0,0.0,0.0,0.0,0.0,0.0,0.0,0.0,0.0,0.0,0.0,0.0,0.0,0.0,0.0,0.0,0.0,0.0,0.0,0.0,0.0,0.0,0.0,0.0,0.0,0.0,0.0,0.0,0.0,0.0,0.0,0.0,0.0,0.0,0.0,0.0,0.0,0.0,0.0,0.0,0.0,0.0,0.0,0.0,0.0,0.0,3.9288,4.0028,4.0096,4.0096,4.0096,4.0096,4.0096,4.0096,0.0,0.0,0.0,0.0,0.0,0.0,0.0,0.0,0.0,0.0,0.0,0.0,0.0,0.0,0.0,0.0,0.0,0.0,0.0,0.0,0.0,0.0,0.0,0.0,0.0,0.0,0.0,0.0,0.0,0.0,0.0,0.0,0.0,0.0,0.0,0.0,0.0,0.0,0.0,0.0,0.0,0.0,0.0,0.0,0.0,0.0,0.0,0.0,0.0,0.0,0.0,0.0,0.0,0.0,0.0,0.0,0.0,0.0,0.0,0.0,0.0,0.0,0.0,0.0,0.0,0.0,0.0,0.0,0.0,0.0,0.0,0.0,0.0,0.0,0.0,0.0,0.0,0.0,0.0,0.0,0.0,0.0,0.0,0.0,0.0,0.0,0.0,0.0,0.0,0.0,0.0,0.0,0.0,0.0,0.0,0.0,0.0,0.0,0.0,0.0,0.0,0.0,0.0,3.9592,3.9728,4.0062,4.0096,4.0096,4.0096,4.0096,4.0096,4.0096,4.0096,0.0,0.0,0.0,0.0,0.0,0.0,0.0,0.0,0.0,0.0,0.0,0.0,0.0,0.0,0.0,0.0,0.0,0.0,0.0,0.0,0.0,0.0,0.0,0.0,0.0,0.0,0.0,0.0,0.0,0.0,0.0,0.0,0.0,0.0,0.0,0.0,0.0,0.0,0.0,0.0,0.0,0.0,0.0,0.0,0.0,0.0,0.0,0.0,0.0,0.0,0.0,0.0,0.0,0.0,0.0,0.0,0.0,0.0,0.0,0.0,0.0,0.0,0.0,0.0,0.0,0.0,0.0,0.0,0.0,0.0,0.0,0.0,0.0,0.0,0.0,0.0,0.0,0.0,0.0,0.0,0.0,0.0,0.0,0.0,0.0,0.0,0.0,0.0,0.0,0.0,0.0,0.0,0.0,0.0,0.0,0.0,0.0,0.0,0.0,0.0,0.0,0.0,4.0096,4.0096,4.0096,4.0096,4.0096,4.0096,4.0096,4.0096,4.0096,4.0096,0.0,0.0,0.0,0.0,0.0,0.0,0.0,0.0,0.0,0.0,0.0,0.0,0.0,0.0,0.0,0.0,0.0,0.0,0.0,0.0,0.0,0.0,0.0,0.0,0.0,0.0,0.0,0.0,0.0,0.0,0.0,0.0,0.0,0.0,0.0,0.0,0.0,0.0,0.0,0.0,0.0,0.0,0.0,0.0,0.0,0.0,0.0,0.0,0.0,0.0,0.0,0.0,0.0,0.0,0.0,0.0,0.0,0.0,0.0,0.0,0.0,0.0,0.0,0.0,0.0,0.0,0.0,0.0,0.0,0.0,0.0,0.0,0.0,0.0,0.0,0.0,0.0,0.0,0.0,0.0,0.0,0.0,0.0,0.0,0.0,0.0,0.0,0.0,0.0,0.0,0.0,0.0,0.0,0.0,0.0,0.0,0.0,0.0,0.0,0.0,0.0,0.0,4.0096,4.0096,4.0096,4.0096,4.0096,4.0096,4.0096,4.0096,4.0096,4.0096,0.0,0.0,0.0,0.0,0.0,0.0,0.0,0.0,0.0,0.0,0.0,0.0,0.0,0.0,0.0,0.0,0.0,0.0,0.0,0.0,0.0,0.0,0.0,0.0,0.0,0.0,0.0,0.0,0.0,0.0,0.0,0.0,0.0,0.0,0.0,0.0,0.0,0.0,0.0,0.0,0.0,0.0,0.0,0.0,0.0,0.0,0.0,0.0,0.0,0.0,0.0,0.0,0.0,0.0,0.0,0.0,0.0,0.0,0.0,0.0,0.0,0.0,0.0,0.0,0.0,0.0,0.0,0.0,0.0,0.0,0.0,0.0,0.0,0.0,0.0,0.0,0.0,0.0,0.0,0.0,0.0,0.0,0.0,0.0,0.0,0.0,0.0,0.0,0.0,0.0,0.0,0.0,0.0,0.0,0.0,0.0,0.0,0.0,0.0,0.0,0.0,0.0,4.0096,4.0096,0.0,4.0096,4.0096,4.0096,4.0096,4.0096,4.0096,0.0,0.0,0.0,0.0,0.0,0.0,0.0,0.0,0.0,0.0,0.0,0.0,0.0,0.0,0.0,0.0,0.0,0.0,0.0,0.0,0.0,0.0,0.0,0.0,0.0,0.0,0.0,0.0,0.0,0.0,0.0,0.0,0.0,0.0,0.0,0.0,0.0,0.0,0.0,0.0,0.0,0.0,0.0,0.0,0.0,0.0,0.0,0.0,0.0,0.0,0.0,0.0,0.0,0.0,0.0,0.0,0.0,0.0,0.0,0.0,0.0,0.0,0.0,0.0,0.0,0.0,0.0,0.0,0.0,0.0,0.0,0.0,0.0,0.0,0.0,0.0,0.0,0.0,0.0,0.0,0.0,0.0,0.0,0.0,0.0,0.0,0.0,0.0,0.0,0.0,0.0,0.0,0.0,0.0,0.0,0.0,0.0,0.0,0.0,0.0,0.0,0.0,4.0096,4.0096,4.0096,0.0,4.0303,4.0455,4.0455,4.0455,4.0455,4.0455,0.0,0.0,0.0,0.0,0.0,0.0,0.0,0.0,0.0,0.0,0.0,0.0,0.0,0.0,0.0,0.0,0.0,0.0,0.0,0.0,0.0,0.0,0.0,0.0,0.0,0.0,0.0,0.0,0.0,0.0,0.0,0.0,0.0,0.0,0.0,0.0,0.0,0.0,0.0,0.0,0.0,0.0,0.0,0.0,0.0,0.0,0.0,0.0,0.0,0.0,0.0,0.0,0.0,0.0,0.0,0.0,0.0,0.0,0.0,0.0,0.0,0.0,0.0,0.0,0.0,0.0,0.0,0.0,0.0,0.0,0.0,0.0,0.0,0.0,0.0,0.0,0.0,0.0,0.0,0.0,0.0,0.0,0.0,0.0,0.0,0.0,0.0,0.0,0.0,0.0,0.0,0.0,0.0,0.0,0.0,0.0,0.0,0.0,0.0,0.0,0.0,0.0,4.0096,4.0113,4.0113,4.0113,4.0764,4.1208,4.1208,4.1208,4.1208,0.0,0.0,0.0,0.0,0.0,0.0,0.0,0.0,0.0,0.0,0.0,0.0,0.0,0.0,0.0,0.0,0.0,0.0,0.0,0.0,0.0,0.0,0.0,0.0,0.0,0.0,0.0,0.0,0.0,0.0,0.0,0.0,0.0,0.0,0.0,0.0,0.0,0.0,0.0,0.0,0.0,0.0,0.0,0.0,0.0,0.0,0.0,0.0,0.0,0.0,0.0,0.0,0.0,0.0,0.0,0.0,0.0,0.0,0.0,0.0,0.0,0.0,0.0,0.0,0.0,0.0,0.0,0.0,0.0,0.0,0.0,0.0,0.0,0.0,0.0,0.0,0.0,0.0,0.0,0.0,0.0,0.0,0.0,0.0,0.0,0.0,0.0,0.0,0.0,0.0,0.0,0.0,0.0,0.0,0.0,0.0,0.0,0.0,0.0,0.0,0.0,0.0,0.0,4.0096,4.0557,4.0882,4.0882,4.1542,4.1978,4.1978,4.1978,4.1978,4.1978,0.0,0.0,0.0,0.0,0.0,0.0,0.0,0.0,0.0,0.0,0.0,0.0,0.0,0.0,0.0,0.0,0.0,0.0,0.0,0.0,0.0,0.0,0.0,0.0,0.0,0.0,0.0,0.0,0.0,0.0,0.0,0.0,0.0,0.0,0.0,0.0,0.0,0.0,0.0,0.0,0.0,0.0,0.0,0.0,0.0,0.0,0.0,0.0,0.0,0.0,0.0,0.0,0.0,0.0,0.0,0.0,0.0,0.0,0.0,0.0,0.0,0.0,0.0,0.0,0.0,0.0,0.0,0.0,0.0,0.0,0.0,0.0,0.0,0.0,0.0,0.0,0.0,0.0,0.0,0.0,0.0,0.0,0.0,0.0,0.0,0.0,0.0,0.0,0.0,0.0,0.0,0.0,0.0,0.0,0.0,0.0,0.0,0.0,0.0,0.0,0.0,0.0,4.054,4.117,4.1644,4.1644,4.2303,4.2743,4.2743,4.2743,4.2743,4.2743,0.0,0.0,0.0,0.0,0.0,0.0,0.0,0.0,0.0,0.0,0.0,0.0,0.0,0.0,0.0,0.0,0.0,0.0,0.0,0.0,0.0,0.0,0.0,0.0,0.0,0.0,0.0,0.0,0.0,0.0,0.0,0.0,0.0,0.0,0.0,0.0,0.0,0.0,0.0,0.0,0.0,0.0,0.0,0.0,0.0,0.0,0.0,0.0,0.0,0.0,0.0,0.0,0.0,0.0,0.0,0.0,0.0,0.0,0.0,0.0,0.0,0.0,0.0,0.0,0.0,0.0,0.0,0.0,0.0,0.0,0.0,0.0,0.0,0.0,0.0,0.0,0.0,0.0,0.0,0.0,0.0,0.0,0.0,0.0,0.0,0.0,0.0,0.0,0.0,0.0,0.0,0.0,0.0,0.0,0.0,0.0,0.0,0.0,0.0,0.0,0.0,0.0,4.1288,4.1948,4.2401,4.2401,4.3081,4.3507,4.3507,4.3507,4.3507,4.3507,0.0,0.0,0.0,0.0,0.0,0.0,0.0,0.0,0.0,0.0,0.0,0.0,0.0,0.0,0.0,0.0,0.0,0.0,0.0,0.0,0.0,0.0,0.0,0.0,0.0,0.0,0.0,0.0,0.0,0.0,0.0,0.0,0.0,0.0,0.0,0.0,0.0,0.0,0.0,0.0,0.0,0.0,0.0,0.0,0.0,0.0,0.0,0.0,0.0,0.0,0.0,0.0,0.0,0.0,0.0,0.0,0.0,0.0,0.0,0.0,3.0027,0.0,0.0,0.0,0.0,0.0,0.0,0.0,0.0,0.0,0.0,0.0,0.0,0.0,0.0,0.0,0.0,0.0,0.0,0.0,0.0,0.0,0.0,0.0,0.0,0.0,0.0,0.0,0.0,0.0,0.0,0.0,0.0,0.0,0.0,0.0,0.0,0.0,0.0,0.0,0.0,0.0,4.1982,4.2709,4.3169,4.3169,4.3859,4.4347,4.4347,4.4347,4.4347,4.4347,4.3606,0.0,0.0,0.0,0.0,0.0,0.0,0.0,0.0,0.0,0.0,0.0,0.0,0.0,0.0,0.0,0.0,0.0,0.0,0.0,0.0,0.0,0.0,0.0,0.0,0.0,0.0,0.0,0.0,0.0,0.0,0.0,0.0,0.0,0.0,0.0,0.0,0.0,0.0,0.0,0.0,0.0,0.0,0.0,0.0,0.0,0.0,0.0,0.0,0.0,0.0,0.0,0.0,0.0,0.0,0.0,0.0,0.0,0.0,0.0,0.0,3.0456,0.0,0.0,0.0,0.0,0.0,0.0,0.0,0.0,0.0,0.0,0.0,0.0,0.0,0.0,0.0,0.0,0.0,0.0,0.0,0.0,0.0,0.0,0.0,0.0,0.0,0.0,0.0,0.0,0.0,0.0,0.0,0.0,0.0,0.0,0.0,0.0,0.0,0.0,0.0,0.0,4.2777,4.3504,4.3978,4.3978,4.4347,4.4615,4.4615,4.4615,4.4615,4.4615,4.4212,0.0,0.0,0.0,0.0,0.0,0.0,0.0,0.0,0.0,0.0,0.0,0.0,0.0,0.0,0.0,0.0,0.0,0.0,0.0,0.0,0.0,0.0,0.0,0.0,0.0,0.0,0.0,0.0,0.0,0.0,0.0,0.0,0.0,0.0,0.0,0.0,0.0,0.0,0.0,0.0,0.0,0.0,0.0,0.0,0.0,0.0,0.0,0.0,0.0,0.0,0.0,0.0,0.0,3.1241,3.1511,3.1511,3.1511,3.1511,3.1495,3.1438,3.1422,3.1417,3.1421,0.0,0.0,0.0,0.0,0.0,0.0,0.0,0.0,0.0,0.0,0.0,0.0,0.0,0.0,0.0,0.0,0.0,0.0,0.0,0.0,0.0,0.0,0.0,0.0,3.6542,3.6582,0.0,0.0,0.0,0.0,0.0,0.0,0.0,0.0,0.0,0.0,0.0,0.0,4.3166,4.3736,4.4136,4.4136,4.4281,4.4369,4.4369,4.4514,4.4615,4.4615,4.4615,4.4615,0.0,0.0,0.0,0.0,0.0,0.0,0.0,0.0,0.0,0.0,0.0,0.0,0.0,0.0,0.0,0.0,0.0,0.0,0.0,0.0,0.0,0.0,0.0,0.0,0.0,0.0,0.0,0.0,0.0,0.0,0.0,0.0,2.3108,2.3108,0.0,0.0,0.0,0.0,0.0,0.0,0.0,0.0,0.0,0.0,0.0,0.0,0.0,2.9492,3.0203,3.0171,3.0572,3.1376,3.1466,3.1511,3.1511,3.1511,3.1511,3.1496,3.1492,0.0,3.1489,3.1485,0.0,0.0,0.0,0.0,0.0,0.0,0.0,0.0,0.0,0.0,0.0,0.0,0.0,0.0,0.0,0.0,0.0,0.0,0.0,0.0,0.0,0.0,3.4937,3.5525,3.6135,3.643,0.0,3.6857,3.795,3.795,3.8418,0.0,0.0,0.0,0.0,0.0,0.0,0.0,4.22,4.2283,4.2347,4.2347,4.3016,4.3472,4.3472,4.4167,4.4615,4.4615,4.4615,4.4615,4.4615,4.4499,0.0,0.0,0.0,0.0,0.0,0.0,0.0,0.0,0.0,0.0,0.0,0.0,0.0,0.0,0.0,0.0,0.0,0.0,0.0,0.0,0.0,0.0,0.0,0.0,0.0,0.0,0.0,0.0,0.0,2.3108,2.3233,2.3574,2.36,2.4035,0.0,0.0,0.0,0.0,0.0,0.0,0.0,0.0,0.0,2.8557,2.8461,2.9007,3.0299,2.9812,3.0223,3.1496,3.1043,3.1058,3.1467,3.1029,3.1073,3.1511,3.1511,3.1511,3.1511,3.1511,3.1511,3.1524,0.0,0.0,0.0,0.0,3.2678,3.2973,3.2555,3.2678,0.0,3.3039,0.0,0.0,0.0,0.0,0.0,0.0,0.0,0.0,0.0,0.0,3.5658,3.5528,3.5765,3.6001,3.605,3.6584,3.7188,0.0,3.8612,3.9677,4.0465,0.0,0.0,0.0,0.0,4.2071,4.2013,4.1997,4.1997,4.1997,4.2348,4.2567,4.2567,4.3381,4.3858,4.3858,4.4327,4.4615,4.4615,4.4615,4.4432,0.0,0.0,0.0,0.0,0.0,0.0,0.0,0.0,0.0,0.0,0.0,0.0,0.0,0.0,0.0,0.0,0.0,0.0,0.0,0.0,0.0,0.0,0.0,0.0,0.0,0.0,0.0,0.0,2.3333,2.3549,2.4142,2.4189,2.458,0.0,0.0,0.0,0.0,0.0,0.0,2.6782,2.7509,2.8046,2.8349,2.792,2.8314,2.9613,2.8987,2.9411,3.0851,3.0253,3.0491,3.1397,3.0802,3.1069,3.2004,3.2004,3.2004,3.1989,3.1645,3.1511,3.1511,3.1511,3.1511,3.1511,3.1511,3.1959,3.249,3.1953,3.223,3.2835,3.2835,3.3256,3.3898,3.4642,0.0,0.0,0.0,0.0,3.6616,3.6369,3.6322,3.6227,3.5845,3.5759,3.5923,3.6582,3.7037,3.735,0.0,3.8604,3.9755,4.0536,0.0,0.0,0.0,0.0,4.1593,4.1362,4.1329,4.1329,4.1329,4.1527,4.1674,4.1674,4.2661,4.3306,4.3306,4.4107,4.4615,4.4615,4.4615,4.4615,4.4615,0.0,0.0,0.0,0.0,0.0,0.0,0.0,0.0,0.0,0.0,0.0,0.0,0.0,0.0,0.0,0.0,0.0,0.0,0.0,0.0,0.0,0.0,0.0,0.0,0.0,0.0,0.0,0.0,0.0,2.4704,2.4766,0.0,0.0,0.0,0.0,2.5615,2.6148,2.648,2.6517,2.7278,2.7375,2.6658,2.7317,2.7736,2.7835,2.7802,2.823,2.9129,2.9081,2.9815,3.1211,3.1166,3.1977,3.3395,3.3395,3.3395,3.3305,3.2033,3.1511,3.1511,3.1511,3.1511,3.1511,3.1511,3.1928,3.2512,3.2467,3.2886,3.3441,3.3441,3.3923,3.4588,3.5342,3.6056,0.0,0.0,3.6614,3.6446,3.575,3.5554,3.5703,3.6314,3.6449,3.6628,3.7225,3.8508,3.9123,0.0,3.7987,3.8754,3.9621,0.0,4.0713,4.0764,4.0761,4.0466,3.9646,3.9535,3.9535,3.9535,4.0274,4.0775,4.0775,4.2316,4.3306,4.3306,4.4107,4.4615,4.4615,4.4615,4.4615,4.4615,4.455,0.0,0.0,0.0,0.0,0.0,0.0,0.0,0.0,0.0,0.0,0.0,0.0,0.0,0.0,0.0,0.0,0.0,0.0,0.0,0.0,0.0,0.0,0.0,0.0,0.0,0.0,0.0,0.0,2.5259,2.5306,0.0,2.5854,2.6067,2.6185,2.6185,2.6373,2.6499,2.6499,2.6765,2.6799,2.6516,2.6782,2.7179,2.7687,2.8029,2.8652,2.9518,2.9338,2.9807,3.0813,3.0895,3.1557,3.2632,3.3239,3.3499,3.3455,3.2976,3.2781,3.2781,3.2781,3.2781,3.2781,3.2781,3.2946,3.314,3.314,3.3305,3.3559,3.3994,3.43,3.4637,3.5334,3.5719,3.5921,3.5898,3.5894,3.5831,3.557,3.5818,3.6193,3.6449,3.6808,3.7255,3.7898,3.8491,3.8841,3.8714,3.9334,3.9977,4.0285,4.0086,4.0045,4.0622,4.0222,3.9755,3.9427,3.9406,3.9406,3.9406,3.9684,4.008,4.0656,4.1788,4.2692,4.3261,4.4107,4.4615,4.4615,4.4615,4.4615,4.4615,4.4615,4.4615,0.0,0.0,0.0,0.0,0.0,0.0,0.0,0.0,0.0,0.0,0.0,0.0,0.0,0.0,0.0,0.0,0.0,0.0,0.0,0.0,0.0,0.0,0.0,0.0,0.0,2.4858,2.5285,2.5841,2.5904,2.6055,2.6461,2.6499,2.6499,2.6499,2.6499,2.6499,2.6499,2.6499,2.6575,2.6763,2.6776,2.7099,2.782,2.8183,2.8647,2.9213,2.9053,2.9504,3.0547,3.0633,3.1413,3.2774,3.3401,3.386,3.4173,3.4173,3.4173,3.4128,3.3679,3.3499,3.3499,3.3499,3.3649,3.3874,3.4098,3.4173,3.4247,3.4697,3.4832,3.4922,3.537,3.5504,3.5504,3.5504,3.5669,3.5833,3.5833,3.6312,3.6851,3.7092,3.7449,3.7913,3.8586,3.8736,3.8871,3.9316,3.9864,4.0257,4.0257,3.9776,3.9592,4.0185,3.9773,3.9406,3.9406,3.9406,3.9406,3.9406,3.9406,3.9628,4.0205,4.1329,4.2237,4.2816,4.3962,4.4615,4.4615,4.4615,4.4615,4.4615,4.4615,4.4615,4.4615,0.0,0.0,0.0,0.0,0.0,0.0,0.0,0.0,0.0,0.0,0.0,0.0,0.0,0.0,0.0,0.0,0.0,0.0,0.0,0.0,0.0,0.0,0.0,2.5598,2.5611,2.5841,2.6424,2.6499,2.6499,2.6499,2.6499,2.6499,2.6499,2.6499,2.6499,2.6512,2.6512,2.6776,2.7311,2.7324,2.7557,2.8097,2.8122,2.8134,2.8134,2.8147,2.8937,3.0388,3.0406,3.1713,3.391,3.3976,3.456,3.5455,3.5488,3.5504,3.537,3.4068,3.3559,3.3559,3.3559,3.3979,3.4622,3.5265,3.5504,3.5504,3.5504,3.5504,3.5504,3.5504,3.5504,3.5504,3.5534,3.5998,3.6508,3.6523,3.6971,3.7582,3.8242,3.8424,3.8601,3.9257,3.9406,3.9406,3.9406,3.9406,3.9406,3.9406,3.9406,3.9406,3.9406,3.9406,0.0,3.9406,3.9406,3.9406,3.9406,3.9409,3.9427,3.9427,4.1028,4.2046,4.2046,4.3649,4.4615,4.4615,4.4615,4.4615,4.4615,4.4615,4.4615,4.4615,0.0,0.0,0.0,0.0,0.0,0.0,0.0,0.0,0.0,0.0,0.0,0.0,0.0,0.0,0.0,0.0,0.0,0.0,0.0,0.0,0.0,2.5866,2.6092,2.5649,2.5979,2.6311,2.6474,2.6499,2.6499,2.6499,2.6499,2.6499,2.6499,2.6499,2.6663,2.7047,2.7072,2.7324,2.7858,2.7883,2.7946,2.8109,2.848,2.8681,2.8693,2.9126,2.9555,2.9999,3.0667,3.1334,3.2051,3.3415,3.416,3.4461,3.5213,3.5504,3.5474,3.51,3.4951,3.4951,3.4951,3.507,3.525,3.5444,3.5504,3.5504,3.5504,3.5504,3.5504,3.5504,3.5504,3.5609,3.6088,3.6374,3.6613,3.7045,3.7644,3.8167,3.8365,3.8766,3.9167,3.9361,3.9406,3.9406,3.9406,3.9406,3.9406,3.9406,3.9406,3.9406,3.9406,3.9406,0.0,3.9406,3.9406,3.9406,3.9406,3.9973,4.0328,4.0328,4.1933,4.2939,4.2939,4.3991,4.4615,4.4615,4.4615,4.4615,4.4615,4.4615,4.4615,0.0,0.0,0.0,0.0,0.0,0.0,0.0,0.0,0.0,0.0,0.0,0.0,0.0,0.0,0.0,0.0,0.0,0.0,0.0,0.0,0.0,0.0,2.6273,2.6373,2.6017,2.6285,2.6499,2.6499,2.6499,2.6499,2.6499,2.6499,2.6499,2.6499,2.6713,2.6959,2.7286,2.7507,2.7883,2.8417,2.843,2.8561,2.8812,2.9126,2.927,2.927,2.9628,2.9792,2.9811,3.0362,3.1044,3.1852,3.2943,3.3874,3.4675,3.5262,3.5504,0.0,0.0,0.0,0.0,0.0,3.5504,3.5504,3.5504,3.5504,3.5504,3.5504,3.5504,3.5549,3.5833,3.5923,3.6043,3.6686,3.7075,3.7392,3.7719,3.8317,3.8826,3.8826,3.9125,3.9406,3.9406,3.9406,3.9406,3.9406,3.9406,0.0,3.9406,3.9406,3.9406,3.9406,3.9406,3.9406,3.9406,3.9406,3.9406,3.9406,4.0185,4.0707,4.0707,4.23,0.0,0.0,0.0,4.4615,4.4615,4.4615,0.0,0.0,0.0,4.4615,4.4615,0.0,0.0,0.0,4.4381,4.4565,0.0,0.0,0.0,0.0,0.0,0.0,0.0,0.0,0.0,0.0,0.0,0.0,0.0,0.0,0.0,0.0,2.6499,2.6499,2.6499,2.6499,2.6499,2.6499,2.6499,2.6499,2.6499,2.6549,2.6587,2.6587,2.7102,2.7424,2.7487,0.0,0.0,0.0,0.0,2.9258,2.9779,2.9792,2.9792,2.9792,2.9792,2.9792,2.9792,2.9914,3.0865,3.2464,3.254,3.365,3.5326,3.5326,3.5392,3.5504,3.5504,3.5504,3.5504,3.5504,3.5504,3.5504,3.5504,0.0,0.0,3.5504,3.5549,3.5729,3.6312,3.6553,3.6733,3.7345,3.7943,3.8424,3.8482,3.896,3.9406,3.9406,3.9406,3.9406,3.9406,3.9406,3.9406,3.9406,3.9406,3.9406,3.9406,3.9406,3.9406,3.9406,3.9406,3.9406,3.9406,3.9406,3.9406,3.9406,0.0,0.0,4.0707,4.2395,4.3396,4.3306,4.4107,4.4615,4.4615,4.4615,4.4615,4.4615,4.4615,4.4615,4.4615,4.4615,4.4615,4.4615,4.4615,4.4615,0.0,0.0,0.0,0.0,0.0,0.0,0.0,0.0,0.0,0.0,0.0,0.0,0.0,0.0,0.0,2.6474,2.6499,2.6499,2.6499,2.6499,2.6499,2.6499,2.6499,2.6499,2.6499,2.6901,2.7148,2.7148,2.7632,2.8134,2.8568,2.8693,2.9019,2.9616,2.9628,2.9679,2.9792,2.9792,2.9792,2.9792,0.0,0.0,2.983,3.0576,3.1124,3.1518,3.2267,3.3241,3.4279,3.4279,3.4758,3.5504,3.5504,3.5504,3.5504,3.5504,3.5504,3.5504,3.5504,3.5504,3.5504,3.5504,3.5863,3.6329,3.6464,3.6836,0.0,3.8018,3.8287,3.8512,3.908,3.9302,3.9406,3.9406,3.9406,3.9406,3.9406,3.9406,3.9406,3.9406,3.9406,3.9406,3.9406,3.9406,3.9406,3.9406,3.9406,3.9406,3.9406,3.9406,3.9406,3.9406,4.0808,4.1446,4.0758,4.2938,4.4049,4.3336,4.4107,4.4615,4.4615,4.4615,4.4615,4.4615,4.4615,4.4615,4.4615,4.4615,4.4615,4.4615,4.4615,4.4615,0.0,0.0,0.0,0.0,0.0,0.0,0.0,0.0,0.0,0.0,0.0,2.5686,2.5992,0.0,2.6499,2.6499,2.6499,2.6499,2.6499,2.6499,2.6499,2.6499,2.6499,2.66,2.6859,2.7135,2.7412,2.767,2.821,2.8618,2.8894,2.9183,2.949,2.9779,2.9792,2.9792,2.9792,2.9792,2.9792,2.9792,2.9792,2.9792,2.983,3.0758,3.1199,3.1254,3.2195,3.3136,3.4044,3.4543,3.5036,3.5504,3.5504,3.5504,3.5504,3.5504,3.5504,3.5504,3.5504,3.5504,3.5564,3.5893,3.6239,3.6628,3.7272,3.7659,3.8033,3.8721,3.8901,3.899,3.9316,3.9406,3.9406,3.9406,3.9406,3.9406,3.9406,3.9406,3.9406,3.9406,3.9406,3.9406,3.9406,3.9406,3.9406,3.9406,3.9406,3.9406,3.9406,3.9406,3.9406,3.9406,4.0569,4.1362,4.1362,4.335,4.4412,4.3977,4.4355,4.4615,4.4615,4.4615,4.4615,4.4615,4.4615,4.4615,4.4615,4.4615,4.4615,4.4615,4.4615,4.4615,0.0,0.0,0.0,0.0,0.0,0.0,0.0,2.4079,2.4431,2.5398,2.5686,2.5917,2.6411,2.6499,2.6499,2.6499,2.6499,2.6499,2.6499,2.6499,2.6537,2.6637,2.665,2.6839,2.7261,2.7499,2.7783,2.8217,2.8769,2.907,2.907,2.9541,2.9792,2.9792,2.9792,2.9792,2.9792,2.9792,2.9792,2.9792,2.9792,2.9792,2.983,3.0758,3.1199,3.1259,3.2393,3.3293,3.4078,3.5083,3.5579,3.5699,3.5699,3.5774,3.5832,3.5594,3.5504,3.5519,3.5654,3.5699,3.5804,3.6447,3.6746,3.7062,3.8095,3.8482,3.8706,3.9242,3.9406,3.9406,3.9406,3.9406,3.9406,3.9406,3.9406,3.9406,3.9406,3.9406,3.9406,3.9406,3.9406,3.9406,3.9406,3.9406,3.9406,3.9406,3.9406,3.9406,3.9406,3.9406,3.9406,3.9406,4.0185,4.1113,4.2157,4.371,4.4615,4.4615,4.4615,4.4615,4.4615,4.4615,4.4615,4.4615,4.4615,4.4615,4.4615,4.4615,4.4615,4.4615,4.4615,4.4615,2.3108,2.3108,2.3108,2.3108,2.3108,2.3258,0.0,2.4365,2.4879,2.5473,2.6017,2.6411,2.6487,2.6499,2.6499,2.6499,2.6499,2.6499,2.6499,2.6499,2.6675,2.7148,2.7211,2.7236,2.7286,2.8154,2.8756,2.8819,2.9346,2.9691,2.9691,2.9754,2.9792,2.9792,2.9792,2.9792,2.9792,2.9792,2.9792,2.9792,2.9792,2.9792,2.983,3.0758,3.1199,3.1296,3.3066,3.3893,3.4078,3.5083,3.5848,3.6389,3.6389,3.6716,3.7043,3.5923,3.5504,3.5594,3.6178,3.6389,3.6493,3.7105,3.7704,3.8215,3.8365,3.8811,3.9302,3.9376,3.9406,3.9406,3.9406,3.9406,3.9406,3.9406,3.9406,3.9406,3.9406,3.9406,3.9406,3.9406,3.9406,3.9406,3.9406,3.9406,3.9406,3.9406,3.9406,3.9406,3.9406,3.9406,3.9406,3.9406,4.0185,4.1379,4.3017,4.4049,4.4615,4.4615,4.4615,4.4615,4.4615,4.4615,4.4615,4.4615,4.4615,4.4615,4.4615,4.4615,4.4615,4.4615,4.4615,4.4615,2.3108,2.3108,2.3108,2.3108,2.3358,2.3775,2.434,2.4879,2.5435,2.6005,2.6323,2.6499,2.6499,2.6499,2.6499,2.6499,2.6499,2.6499,2.6499,2.6499,2.67,2.7236,2.7587,2.7896,2.8191,2.8643,2.9045,2.9402,2.9654,2.9792,2.9792,2.9792,2.9792,2.9792,2.9792,2.9792,2.9792,2.9792,2.9792,2.9792,2.9792,2.9792,2.9843,3.1109,3.2193,3.3125,3.4544,3.5174,3.5244,3.6211,3.6776,3.703,3.703,3.718,3.7327,3.6789,3.6611,3.6656,3.6926,3.703,3.712,3.7764,3.8167,3.8467,3.8871,3.9167,3.9406,3.9406,3.9406,3.9406,3.9406,3.9406,3.9406,3.9406,3.9406,3.9406,3.9406,3.9406,3.9406,3.9406,3.9406,3.9406,3.9406,3.9406,3.9406,3.9406,3.9406,3.9406,3.9406,3.9406,3.9406,3.9406,4.0185,4.0996,4.1707,4.3046,4.3844,4.3844,4.4327,4.4615,4.4615,4.4615,4.4615,4.4615,4.4615,4.4615,4.4615,4.4615,4.4615,4.4615,4.4615,4.4615,2.3108,2.3108,2.3108,2.3108,2.3549,2.4142,2.4678,2.5205,2.5778,2.6373,2.6499,2.6499,2.6499,2.6499,2.6499,2.6499,2.6499,2.6499,2.6499,2.6499,2.6751,2.7437,2.7858,2.8386,2.9082,2.9145,2.9321,2.9767,2.9792,2.9792,2.9792,2.9792,2.9792,2.9792,2.9792,2.9867,3.0018,3.0018,3.0093,3.0231,3.0231,3.0231,3.0283,3.1649,3.3043,3.4459,3.5524,3.6146,3.6444,3.7132,3.7524,3.7689,3.7689,3.7793,3.7941,3.7941,3.7716,3.7434,3.7614,3.7689,3.7793,3.8452,3.8676,3.8766,3.9257,3.9406,3.9406,3.9406,3.9406,3.9406,3.9406,3.9406,3.9406,3.9406,3.9406,3.9406,3.9406,3.9406,3.9406,3.9406,3.9406,3.9406,3.9406,3.9406,3.9406,3.9406,3.9406,3.9406,3.9406,3.9406,3.9406,3.9406,4.0185,4.0707,4.0707,4.23,4.3306,4.3306,4.4107,4.4615,4.4615,4.4615,4.4615,4.4615,4.4615,4.4615,4.4615,4.4615,4.4615,4.4615,4.4615,4.4615,2.3108,2.3108,2.3108,2.3108,2.3549,2.4142,2.4678,2.5205,2.5778,2.6373,2.6499,2.6499,2.6499,2.6499,2.6499,2.6499,2.6499,2.6499,2.6499,2.6499,2.6901,2.7946,2.8097,2.8549,2.9654,2.9767,2.9779,2.9792,2.9792,2.9792,2.9792,2.9792,2.9792,2.9792,2.9792,3.0043,3.0563,3.0575,3.0846,3.1356,3.1356,3.1356,3.1377,3.2455,3.3484,3.4459,3.5524,3.6529,3.7353,3.7387,3.7778,3.8362,3.8362,3.8766,3.9346,3.9346,3.8509,3.7494,3.8138,3.8362,3.8484,3.9152,3.9376,3.9376,3.9391,3.9406,3.9406,3.9406,3.9406,3.9406,3.9406,3.9406,3.9406,3.9406,3.9406,3.9406,3.9406,3.9406,3.9406,3.9406,3.9406,3.9406,3.9406,3.9406,3.9406,3.9406,3.9406,3.9406,3.9406,3.9406,3.9406,3.9406,4.0185,4.0707,4.0707,4.23,4.3306,4.3306,4.4107,4.4615,4.4615,4.4615,4.4615,4.4615,4.4615,4.4615,4.4615,4.4615,4.4615,4.4615,4.4615,4.4615,2.3108,2.3108,2.3195,2.36,2.4114,2.4666,2.5209,2.5791,2.626,2.6449,2.6499,2.6499,2.6499,2.6499,2.6499,2.6499,2.6499,2.6499,2.6499,2.6499,2.6901,2.7971,2.8109,2.8549,2.9679,2.9792,2.9792,2.9792,2.9792,2.9792,2.9792,2.9792,2.9792,2.9792,3.0143,3.0432,3.06,3.0959,3.1223,3.1406,3.1406,3.1958,3.3028,3.4089,3.5355,3.6717,3.7781,3.8436,3.8733,3.8733,3.8853,3.9047,3.9047,3.9197,3.9406,3.9406,3.9107,3.8748,3.899,3.9047,3.9092,3.9331,3.9406,3.9406,3.9406,3.9406,3.9406,3.9406,3.9406,3.9406,3.9406,3.9406,3.9406,3.9406,3.9406,3.9406,3.9406,3.9406,3.9406,3.9406,3.9406,3.9406,3.9406,3.9406,3.9406,3.9406,3.9406,3.9406,3.9406,3.9406,3.9406,3.9406,3.9648,3.9847,3.9847,4.1444,4.2442,4.2442,4.3798,4.4615,4.4615,4.4615,4.4615,4.4615,4.4615,4.4615,4.4615,4.4615,4.4615,4.4615,4.4615,4.4615,2.3108,2.3108,2.3246,2.3853,2.439,2.4942,2.5473,2.6067,2.6499,2.6499,2.6499,2.6499,2.6499,2.6499,2.6499,2.6499,2.6499,2.6499,2.6499,2.6499,2.6901,2.7971,2.8109,2.8549,2.9679,2.9792,2.9792,2.9792,2.9792,2.9792,2.9792,2.9792,2.988,3.008,3.0412,3.0776,3.1165,3.1512,3.1981,3.259,3.259,3.3125,3.4164,3.5209,3.6255,3.7305,3.8782,3.9406,3.9406,3.9406,3.9406,3.9406,3.9406,3.9406,3.9406,3.9406,3.9406,3.9406,3.9406,3.9406,3.9406,3.9406,3.9406,3.9406,3.9406,3.9406,3.9406,3.9406,3.9406,3.9406,3.9406,3.9406,3.9406,3.9406,3.9406,3.9406,3.9406,3.9406,3.9406,3.9406,3.9406,3.9406,3.9406,3.9406,3.9406,3.9406,3.9406,3.9406,3.9406,3.9406,3.9406,3.9406,3.9406,3.9406,3.9406,4.0995,4.1997,4.1997,4.3634,4.4615,4.4615,4.4615,4.4615,4.4615,4.4615,4.4615,4.4615,4.4615,4.4615,4.4615,4.4615,4.4615,2.3108,2.3108,2.3246,2.3853,2.439,2.4942,2.5473,2.6067,2.6499,2.6499,2.6499,2.6499,2.6499,2.6499,2.6499,2.6499,2.6499,2.6499,2.6499,2.6499,2.6901,2.7971,2.8109,2.8549,2.9679,0.0,2.9792,2.9792,2.9792,2.9792,2.9792,2.9836,3.0068,3.0575,3.0651,3.1165,3.2181,3.224,3.3037,3.4622,3.4622,3.4664,3.4794,3.5754,3.6257,3.6487,3.8513,3.9406,3.9406,3.9406,3.9406,3.9406,3.9406,3.9406,3.9406,3.9406,3.9406,3.9406,3.9406,3.9406,3.9406,3.9406,3.9406,3.9406,3.9406,3.9406,3.9406,3.9406,3.9406,3.9406,3.9406,3.9406,3.9406,3.9406,3.9406,3.9406,3.9406,3.9406,3.9406,3.9406,3.9406,3.9406,3.9406,3.9406,3.9406,3.9406,3.9406,3.9406,3.9406,3.9406,3.9406,3.9406,3.9406,3.9409,3.9463,4.1012,4.2029,4.2062,4.3649,4.4615,4.4615,4.4615,4.4615,4.4615,4.4615,4.4615,4.4615,4.4615,4.4615,4.4615,4.4615,4.4615,2.3108,2.3108,2.3246,2.3853,2.439,2.4942,2.5473,2.6067,2.6499,2.6499,2.6499,2.6499,2.6499,2.6499,2.6499,2.6499,2.6499,2.6499,2.6499,2.6499,2.6901,2.7971,2.8109,2.8549,2.9679,2.9792,2.9792,2.9792,2.9792,2.9792,2.9792,3.0181,3.047,3.0588,3.1366,3.1918,3.2194,3.2641,3.3089,3.3513,3.3513,3.4311,3.5834,3.6079,3.7065,3.8605,3.9159,3.9406,3.9406,3.9406,3.9406,3.9406,3.9406,3.9406,3.9406,3.9406,3.9406,3.9406,3.9406,3.9406,3.9406,3.9406,3.9406,3.9406,3.9406,3.9406,3.9406,3.9406,3.9406,3.9406,3.9406,3.9406,3.9406,3.9406,3.9406,3.9406,3.9406,3.9406,3.9406,3.9406,3.9406,3.9406,3.9406,3.9406,3.9406,3.9406,3.9406,3.9406,3.9406,3.9406,3.9406,3.9406,3.9406,3.9648,4.0309,4.1379,4.2284,4.294,4.4006,4.4615,4.4615,4.4615,4.4615,4.4615,4.4615,4.4615,4.4615,4.4615,4.4615,4.4615,4.4615,4.4615,2.3108,2.3108,2.3246,2.3853,2.439,2.4942,2.5473,2.6067,2.6499,2.6499,2.6499,2.6499,2.6499,2.6499,2.6499,2.6499,2.6499,2.6499,2.6499,2.6499,2.6901,2.7971,2.8109,2.8549,2.9679,2.9792,2.9792,2.9792,2.9792,2.9792,2.9792,3.0319,3.0701,3.0947,3.1775,3.234,3.2591,3.339,3.4024,3.4444,3.4003,3.4897,3.6891,3.6408,3.7103,3.8727,0.0,3.9406,3.9406,3.9406,3.9406,3.9406,3.9406,3.9406,3.9406,3.9406,3.9406,3.9406,3.9406,3.9406,3.9406,3.9406,3.9406,3.9406,3.9406,3.9406,3.9406,3.9406,3.9406,3.9406,3.9406,3.9406,3.9406,3.9406,3.9406,3.9406,3.9406,3.9406,3.9406,3.9406,3.9406,3.9406,3.9406,3.9406,3.9406,3.9406,3.9406,3.9406,3.9406,3.9406,3.9406,3.9406,3.9406,3.974,4.0622,4.1511,4.2379,4.3246,4.4107,4.4615,4.4615,4.4615,4.4615,4.4615,4.4615,4.4615,4.4615,4.4615,4.4615,4.4615,4.4615,4.4615,2.3108,2.3108,2.3233,2.3738,2.434,2.4929,2.5385,2.6017,2.6499,2.6499,2.6499,2.6499,2.6499,2.6499,2.6499,2.6499,2.6499,2.6499,2.6499,2.6499,2.6876,2.7871,2.8059,2.8524,2.9578,2.9741,2.9792,2.9792,2.9792,2.9829,2.9892,3.0419,3.0997,3.162,3.2077,3.2566,3.309,3.415,3.5149,3.5994,3.5238,3.5935,3.7772,3.6833,3.7002,3.805,3.8998,3.9406,3.9406,3.9406,3.9406,3.9406,3.9406,3.9406,3.9406,3.9406,3.9406,3.9406,3.9406,3.9406,3.9406,3.9406,3.9406,3.9406,3.9406,3.9406,3.9406,3.9406,3.9406,3.9421,3.9511,3.9526,3.9556,3.9645,3.966,3.966,3.966,3.966,3.9631,3.9556,3.9526,3.9496,3.9421,3.9406,3.9406,3.9406,3.9406,3.9406,3.9406,3.9406,3.9406,3.9406,3.9406,3.974,4.0622,4.1511,4.2379,4.3246,4.4107,4.4615,4.4615,4.4615,4.4615,4.4615,4.4615,4.4615,4.4615,4.4615,4.4615,4.4615,4.4615,4.4615,2.3108,2.3108,2.3133,2.3233,2.4023,2.4813,2.4917,2.5753,2.6499,2.6499,2.6499,2.6499,2.6499,2.6499,2.6499,2.6499,2.6499,2.6499,2.6499,2.6499,2.6738,2.7361,2.7821,2.8342,2.8994,2.9515,2.9792,2.9792,2.9792,2.9993,3.0437,3.0972,3.1746,3.2776,3.2901,3.2989,3.3102,3.415,3.4787,3.4979,3.5628,3.6599,3.7791,3.7606,3.8107,3.9123,3.9319,0.0,3.9406,3.9406,3.9406,3.9406,3.9406,3.9406,3.9406,3.9406,3.9406,3.9406,3.9406,3.9406,3.9406,3.9406,3.9406,3.9406,3.9406,3.9406,3.9406,3.9406,3.9406,3.9526,4.0064,4.0232,4.0367,4.0905,4.1059,4.1059,4.1059,4.1059,4.0894,4.0337,4.0232,4.0053,3.9496,3.9406,3.9406,3.9406,3.9406,3.9406,3.9406,3.9406,3.9406,3.9406,3.9406,3.974,4.0622,4.1511,4.2379,4.3246,4.4107,4.4615,4.4615,4.4615,4.4615,4.4615,4.4615,4.4615,4.4615,4.4615,4.4615,4.4615,4.4615,4.4615,2.3108,2.3108,2.3108,2.3108,2.3763,2.4377,2.4377,2.5234,2.603,2.603,2.6285,2.6499,2.6499,2.6499,2.6499,2.6499,2.6499,2.6499,2.6499,2.6499,2.67,2.7236,2.777,2.8304,2.8856,2.9453,2.9792,2.9792,2.9792,3.003,3.0563,3.1373,3.2202,3.3077,3.3102,3.3102,3.3102,3.415,3.4959,3.55,3.5974,3.7046,3.8601,3.805,3.8383,3.9406,3.9406,3.9406,3.9406,3.9406,3.9406,3.9406,3.9406,3.9406,3.9406,3.9406,3.9406,3.9406,3.9406,3.9406,3.9406,3.9406,3.9406,3.9406,3.9406,3.9631,3.9915,3.9915,4.0172,4.0502,4.0831,4.0905,4.1014,4.1328,4.1403,4.1403,4.1403,4.1403,4.1298,4.0965,4.0905,4.0834,4.0502,4.0442,4.0322,3.996,3.9915,3.978,3.9451,3.9406,3.9406,3.9406,3.9406,3.974,4.0622,4.1511,4.2379,4.3246,4.4107,4.4615,4.4615,4.4615,4.4615,4.4615,4.4615,4.4615,4.4615,4.4615,4.4615,4.4615,4.4615,4.4615,2.3108,2.3108,2.3108,2.3108,2.3549,2.4004,2.4004,2.4745,2.5435,2.5435,2.5904,2.6311,2.6311,2.6411,2.6499,2.6499,2.6499,2.6499,2.6499,2.6499,2.6663,2.7072,2.7695,2.8267,2.8693,2.9377,2.9792,2.9792,3.0005,3.0331,3.0758,3.18,3.2604,3.309,3.3102,3.3102,3.3102,3.4387,3.542,3.6217,3.6663,3.7762,3.9355,3.8527,3.8601,3.9406,3.9406,3.9406,3.9406,3.9406,3.9406,3.9406,3.9406,3.9406,3.9406,3.9406,3.9406,3.9406,3.9406,3.9406,3.9421,3.9571,3.9616,3.9616,3.9616,4.0064,4.0606,4.0606,4.0999,4.1433,4.1568,4.1613,4.1643,4.1792,4.1822,4.1822,4.1822,4.1822,4.1758,4.1643,4.1613,4.1568,4.1418,4.1403,4.1224,4.0681,4.0606,4.0427,3.9885,3.969,3.9616,3.9616,3.9496,3.9684,4.0363,4.1213,4.2093,4.2971,4.3844,4.4412,4.4584,4.4615,4.4615,4.4615,4.4615,4.4615,4.4615,4.4615,4.4615,4.4615,4.4615,4.4615,2.3108,2.3108,2.3108,2.3108,2.3549,2.4004,2.4004,2.444,2.4879,2.4879,2.531,2.5674,2.5674,2.6118,2.6499,2.6499,2.6499,2.6499,2.6499,2.6499,2.6512,2.6562,2.7487,2.8122,2.8185,2.9164,2.9792,2.9792,3.0696,3.126,3.1311,3.2399,3.304,3.3102,3.3102,3.3102,3.3102,3.5075,3.6113,3.6217,3.8167,3.9213,3.9406,3.9301,3.9301,3.9406,3.9406,3.9406,0.0,3.9406,3.9406,3.9406,3.9406,3.9406,3.9406,3.9406,3.9406,3.9406,3.9406,3.9406,3.9496,4.0113,4.0307,4.0307,4.0307,4.0771,4.1313,4.1313,4.1343,4.1538,4.2156,4.2306,4.2455,4.2995,4.313,4.313,4.313,4.313,4.2951,4.2406,4.2306,4.2111,4.1493,4.1403,4.1373,4.1313,4.1313,4.1283,4.1224,4.0681,4.0307,4.0307,3.975,3.9427,3.9517,4.0326,4.1197,4.2062,4.2939,4.377,4.4556,4.4615,4.4615,4.4615,4.4615,4.4615,4.4615,4.4615,4.4615,4.4615,4.4615,4.4615,2.3108,2.3108,2.3108,2.3108,2.3283,2.3461,2.3461,2.3901,2.4315,2.4315,2.4757,2.5222,2.5536,2.5804,2.6067,2.6436,2.6499,2.6499,2.6499,2.6499,2.6499,2.6499,2.716,2.7745,2.8072,2.8794,2.9396,2.9767,3.0783,3.1406,3.1406,3.2487,3.3102,3.3102,3.3102,3.3102,3.3102,3.5163,3.6198,3.6237,3.8368,3.9406,3.9406,3.9406,3.9406,3.9406,3.9406,3.9406,0.0,3.9406,3.9406,3.9406,3.9406,3.9406,3.9406,3.9406,3.9406,3.9406,3.9406,3.966,4.0053,4.0307,4.0954,4.1523,4.1134,4.1463,4.2006,4.2006,4.2271,4.2611,4.288,4.294,4.3015,4.325,4.329,4.329,4.329,4.329,4.3235,4.3,4.294,4.2865,4.2577,4.2532,4.2417,4.2047,4.2006,4.1871,4.1448,4.1164,4.1014,4.1014,4.0053,3.9406,3.9406,4.0672,4.1642,4.1981,4.3305,4.4239,4.4601,4.4615,4.4615,4.4615,4.4615,4.4821,4.5263,4.5263,4.5483,4.592,4.592,4.592,2.3108,2.3108,2.3108,2.3108,2.3108,2.3108,2.3108,2.3421,2.3725,2.3725,2.4177,2.4678,2.5059,2.5385,2.5741,2.6155,2.6386,2.6499,2.6499,2.6499,2.6499,2.6499,2.711,2.767,2.8059,2.8743,2.9333,2.9767,3.0783,3.1406,3.1406,3.2487,3.3102,3.3102,3.342,3.342,3.3102,3.548,3.6507,3.6237,3.8368,3.9406,3.9406,3.9406,3.9406,3.9406,3.9406,3.9406,0.0,3.9406,3.9406,3.9406,3.9406,3.9406,3.9406,3.9406,3.9406,3.9436,3.9631,4.0008,4.0472,4.0846,4.1628,4.2351,4.2062,4.2282,4.2676,4.2676,4.297,4.329,4.329,4.329,4.329,4.329,4.329,4.329,4.329,4.329,4.329,4.329,4.329,4.329,4.329,4.329,4.316,4.2735,4.2676,4.2511,4.2013,4.1807,4.1688,4.1688,4.0666,3.9993,3.9993,4.1379,4.2359,4.2605,4.4022,4.4981,4.5244,4.5244,4.5244,4.5244,4.5244,4.5514,4.6024,4.6024,4.6295,4.68,4.68,4.6919,2.3108,2.3108,2.3108,2.3108,2.3108,2.3108,2.3108,2.3093,2.3108,2.3108,2.3587,2.4004,2.4017,2.4883,2.5598,2.5598,2.6105,2.6499,2.6499,2.6499,2.6499,2.6499,2.7449,2.8097,2.8109,2.9126,2.9779,2.9792,3.0783,3.1406,3.1406,3.2487,3.3102,3.3102,3.4129,3.417,3.3124,3.62,3.7247,3.6237,3.8368,3.9406,3.9406,3.9406,3.9406,3.9406,3.9406,3.9406,0.0,3.9406,3.9406,3.9406,3.9406,3.9406,3.9406,3.9406,3.9406,3.9496,4.0172,4.0397,4.0606,4.1961,4.2396,4.2515,4.31,4.329,4.329,4.329,4.329,4.329,4.329,4.329,4.329,4.329,4.329,4.329,4.329,4.329,4.329,4.329,4.329,4.329,4.329,4.329,4.329,4.329,4.329,4.329,4.3275,4.2765,4.2396,4.2396,4.1777,4.1373,4.1373,4.2245,4.3165,4.401,4.4967,4.5883,4.6739,4.6783,4.6783,4.6783,4.6783,4.6783,4.68,4.68,4.6786,4.68,4.68,4.7192,2.3108,2.3108,2.3108,2.3108,2.3108,2.3108,2.3108,2.3108,2.3108,2.3108,2.3246,2.3512,2.3929,2.4582,2.5168,2.5536,2.6122,2.6499,2.6499,2.6499,2.6499,2.6499,2.7449,2.8109,2.8109,2.9126,2.9792,2.9792,3.0783,3.1406,3.1406,3.2487,3.3102,3.3102,3.3441,3.3797,3.4191,3.5868,3.6891,3.7305,3.8745,3.9406,3.9406,3.9406,3.9406,3.9406,3.9406,3.9406,3.9406,3.9406,3.9406,3.9406,3.9406,3.9406,3.9406,3.9406,3.969,4.0113,4.0337,4.1014,4.1837,4.2261,4.269,4.304,4.325,4.329,4.329,4.329,4.329,4.329,4.329,4.329,4.329,4.329,4.329,4.329,4.329,4.329,4.329,4.329,4.329,4.329,4.329,4.329,4.329,4.329,4.329,4.329,4.329,4.313,4.301,4.301,4.2816,4.2357,4.1478,4.2221,4.3126,4.4042,4.4935,4.5839,4.6756,4.68,4.68,4.68,4.68,4.7056,4.7549,4.7549,4.7817,4.8308,4.8308,4.8426,2.3108,2.3108,2.3108,2.3108,2.3108,2.3108,2.3108,2.3108,2.3108,2.3108,2.3108,2.3208,2.3587,2.429,2.4904,2.5231,2.5967,2.6499,2.6499,2.6499,2.6575,2.6788,2.7557,2.8185,2.838,2.9252,2.9792,2.9792,3.0608,3.1185,3.1386,3.2252,3.2855,3.309,3.3856,3.4394,3.4705,3.6501,3.7534,3.781,3.8889,3.9406,3.9406,3.9406,3.9406,3.9406,3.9406,3.9406,0.0,3.9406,3.9406,3.9406,3.9406,3.9406,3.9436,3.9675,4.0053,4.0472,4.0984,4.1688,4.244,4.2676,4.3,4.329,4.329,4.329,4.329,4.329,4.329,4.329,4.329,4.329,4.329,4.329,4.329,4.329,4.329,4.329,4.329,4.329,4.329,4.329,4.329,4.329,4.329,4.329,4.329,4.329,4.329,4.329,4.329,4.329,4.329,4.298,4.2177,4.2967,4.3744,4.4318,4.5535,4.6495,4.7077,4.7432,4.7631,4.7631,4.7631,4.7851,4.8326,4.8326,4.8546,4.9001,4.9001,4.9001,0.0,2.3108,2.3108,2.3108,2.3108,2.3108,2.3108,2.3108,0.0,2.3108,2.3108,2.3108,2.3158,2.4061,2.4816,2.4854,2.5791,2.6499,2.6499,2.6499,2.67,2.7236,2.777,2.8304,2.8856,2.9453,2.9792,2.9792,3.0306,3.0834,3.1361,3.1913,3.2478,3.3077,3.5116,3.5734,3.4828,3.7791,3.8819,3.7937,3.8925,3.9406,3.9406,3.9406,3.9406,0.0,3.9406,3.9406,3.9406,3.9406,3.9406,3.9406,3.9406,3.9406,3.9481,4.0157,4.0427,4.0651,4.1961,4.2425,4.2556,4.3115,4.329,4.329,4.329,4.329,4.329,4.329,4.329,4.329,4.329,4.329,4.329,4.329,4.329,4.329,4.329,4.329,4.329,4.329,4.329,4.329,4.329,4.329,4.329,4.329,4.329,4.329,4.329,4.329,4.329,4.329,4.329,4.329,4.329,4.4163,4.4718,4.4793,4.6487,4.7539,4.7605,4.8513,4.9001,4.9001,4.9001,4.9001,4.9001,4.9001,4.9001,4.9001,4.9001,4.9001,2.3108,0.0,2.3108,2.3108,2.3108,2.3108,0.0,2.3108,2.3108,2.3108,2.3108,2.3246,2.37,2.434,2.4929,2.5347,2.6017,2.6499,2.6499,2.6499,2.67,2.7236,2.777,2.8304,2.8856,2.9453,2.9792,2.9792,3.0306,3.0834,3.1361,3.1913,3.2478,3.3077,3.5116,3.6093,3.5854,3.7401,3.8472,3.9017,3.9283,3.9406,3.9406,3.9406,3.9406,3.9406,3.9406,3.9406,3.9406,3.9406,3.9406,3.9406,3.9406,3.9406,3.9481,4.0157,4.0711,4.1283,4.2111,4.2705,4.3115,4.3265,4.329,4.329,4.329,4.329,4.329,4.329,4.329,4.329,4.329,4.329,4.329,4.329,4.329,4.329,4.329,4.329,4.329,4.329,4.329,4.329,4.329,4.329,4.329,4.329,4.329,4.329,4.329,4.329,4.329,4.329,4.329,4.329,4.329,4.3512,4.397,4.4756,4.5887,4.685,4.7572,4.8513,4.9001,4.9001,4.9001,4.9001,4.9001,4.9001,4.9001,4.9001,4.9001,4.9001,2.3213,2.3108,2.3108,2.3108,2.3108,2.3108,2.3108,2.3108,2.3108,2.3108,2.3108,2.3283,2.3891,2.444,2.498,2.5511,2.6122,2.6499,2.6499,2.6499,2.66,2.6901,2.7607,2.8204,2.8505,2.9302,2.9792,2.9792,3.0068,3.057,3.1369,3.1675,3.2215,3.3077,3.5116,3.6198,3.6198,3.7757,3.8819,3.9406,3.9406,3.9406,3.9406,3.9406,3.9406,3.9406,3.9406,3.9406,3.9406,3.9406,3.9406,3.9406,3.9406,3.9406,3.9511,4.0502,4.1089,4.1538,4.2476,4.3025,4.329,4.329,4.329,4.329,4.329,4.329,4.329,4.329,4.329,4.329,4.329,4.329,4.329,4.329,4.329,4.329,4.329,4.329,4.329,4.329,4.329,4.329,4.329,4.329,4.329,4.329,4.329,4.329,4.329,4.329,4.329,4.329,4.329,4.329,4.329,4.329,4.3532,4.4066,4.5434,4.6419,4.6935,4.8273,4.9001,4.9001,4.9001,4.9001,4.9001,4.9001,4.9001,4.9001,4.9001,4.9001,2.332,2.3108,2.3108,2.3108,2.3108,2.3108,2.3108,2.3108,2.3108,2.3108,2.3108,2.3308,2.4004,2.449,2.5005,2.5636,2.6172,2.6499,2.6499,2.6499,2.6562,2.6725,2.7562,2.8172,2.8348,2.9227,2.9792,2.9792,2.9792,3.0231,3.1223,3.1369,3.1884,3.2939,3.4933,3.6053,3.6198,3.8331,3.9406,3.9406,3.9406,3.9406,3.9406,3.9406,3.9406,3.9406,0.0,0.0,3.9406,3.9406,3.9406,3.9406,3.9406,3.9406,3.9556,4.0909,4.1403,4.1583,4.2861,4.329,4.329,4.329,4.329,4.329,4.329,4.329,4.329,4.329,4.329,4.329,4.329,4.329,4.329,4.329,4.329,4.329,4.329,4.329,4.329,4.329,4.329,4.329,4.329,4.329,4.329,4.329,4.329,4.329,4.329,4.329,4.329,4.329,4.329,4.329,4.329,4.329,4.329,4.329,4.5125,4.6331,4.6626,4.8144,4.9001,4.9001,4.9001,4.9001,4.9001,4.9001,4.9001,4.9001,4.9001,4.9001,2.332,2.3108,2.3108,2.3108,2.3108,2.3108,2.3108,2.3108,2.3108,2.3108,2.3108,2.3421,2.449,2.4741,2.513,2.6197,2.6436,2.6499,2.6499,2.6499,2.6839,2.7745,2.7996,2.8486,2.944,2.9691,2.9792,2.9792,2.9792,3.0068,3.0688,3.1148,3.1687,3.2328,3.4022,3.5339,3.6178,3.8331,3.9406,3.9406,3.9406,3.9406,3.9406,3.9406,3.9406,3.9406,0.0,3.9406,3.9406,3.9406,3.9406,3.9406,3.9406,3.9406,3.9556,4.0909,4.1403,4.1583,4.2861,4.329,4.329,4.329,4.329,4.329,4.329,4.329,4.329,4.329,4.329,4.329,4.329,4.329,4.329,4.329,4.329,4.329,4.329,4.329,4.329,4.329,4.329,4.329,4.329,4.329,4.329,4.329,4.329,4.329,4.329,4.329,4.329,4.329,4.329,4.329,4.329,4.329,4.329,4.329,4.5125,4.6918,4.8513,4.8845,4.9001,4.9001,4.9001,4.9001,4.9001,4.9001,4.9001,4.9001,4.9001,4.9001,2.3439,2.3108,2.3108,2.3108,2.3108,2.3108,2.3108,2.3108,2.3108,2.3108,2.3358,2.3838,2.4653,2.5042,2.5511,2.6361,2.6499,2.6499,2.6499,2.6499,2.6788,2.7557,2.7921,2.8423,2.922,2.9616,2.9792,2.9792,2.9792,3.003,3.0563,3.1667,3.2224,3.219,3.4354,3.5714,3.6198,3.7757,3.8819,3.9406,3.9406,3.9406,3.9406,3.9406,3.9406,3.9406,0.0,3.9406,3.9406,3.9406,3.9406,3.9406,3.9406,3.9406,3.9556,4.0909,4.1833,4.2502,4.31,4.329,4.329,4.329,4.329,4.329,4.329,4.329,4.329,4.329,4.329,4.329,4.329,4.329,4.329,4.329,4.329,4.329,4.329,4.329,4.3409,4.3773,4.3848,4.3953,4.4311,4.4371,4.4371,4.4371,4.4371,4.4371,4.4371,4.4371,4.4371,4.4371,4.4371,4.4371,4.4371,4.4371,4.4298,4.4112,4.5434,4.6994,4.876,4.9324,4.9779,5.017,5.0186,5.0186,5.0186,5.0186,5.0186,5.0186,5.0186,5.0186,2.3752,2.323,2.3108,2.3108,2.3108,2.3108,2.3108,2.3108,2.3145,2.3283,2.3675,2.4205,2.4867,2.5435,2.5954,2.6424,2.6499,2.6499,2.6499,2.6499,2.6751,2.7412,2.7846,2.8367,2.9045,2.9528,2.9792,2.9792,2.9792,2.998,3.0387,3.1712,3.2413,3.2382,3.4493,3.5941,3.6565,3.7381,3.8345,3.9406,3.9406,3.9406,3.9406,3.9406,3.9406,3.9406,3.9406,3.9406,3.9406,3.9406,3.9406,3.9406,3.9406,3.9586,3.9993,4.1029,4.2207,4.329,4.329,4.329,4.329,4.329,4.329,4.329,4.329,4.329,4.329,4.329,4.329,4.329,4.329,4.329,4.329,4.329,4.329,4.329,4.329,4.3409,4.3698,4.4192,4.4436,4.4706,4.5214,4.5289,4.5289,4.5289,4.5289,4.5289,4.5289,4.5289,4.5289,4.5289,4.5289,4.5289,4.5289,4.5289,4.5187,4.4933,4.5811,4.7105,4.8856,4.9625,5.0367,5.1184,5.1201,5.1201,5.1201,5.1201,5.1201,5.1201,5.1201,5.1201,2.4423,2.3664,2.3108,2.3108,2.3108,2.3108,2.3108,2.3108,2.3258,2.3828,2.3966,2.4318,2.5347,2.603,2.6449,2.6487,2.6499,2.6499,2.6499,2.6499,2.6889,2.7921,2.8084,2.8536,2.9628,2.9767,2.9792,2.9792,2.9792,2.9817,2.9854,3.0448,3.1442,3.2889,3.3608,3.517,3.7663,3.7753,3.8345,3.9406,3.9406,3.9406,3.9406,3.9406,3.9406,3.9406,3.9406,3.9406,3.9406,3.9406,3.9406,3.9406,3.9406,4.0172,4.1268,4.1358,4.2207,4.329,4.329,4.329,4.329,4.329,4.329,4.329,4.329,4.329,4.329,4.329,4.329,4.329,4.329,4.329,4.329,4.329,4.329,4.329,4.329,4.3788,4.4237,4.4282,4.4811,4.5229,4.5289,4.5289,4.5289,4.5289,4.5289,4.5289,4.5289,4.5289,4.5289,4.5289,4.5289,4.5289,4.5289,4.5289,4.5301,4.5278,4.6139,4.7564,4.956,4.9681,5.0191,5.1185,5.1201,5.1201,5.1201,5.1201,5.1201,5.1201,5.1201,5.1201,2.4495,2.3708,2.3108,2.3108,2.3108,2.3108,2.3108,2.3108,2.3271,2.3879,2.4268,2.4845,2.5954,2.6348,2.6499,2.6499,2.6499,2.6499,2.6499,2.6499,2.6901,2.7971,2.8109,2.8549,2.9679,2.9792,2.9792,2.9792,2.9792,2.9792,2.9792,3.0932,3.1727,3.1996,3.382,3.5442,3.678,3.7472,3.8345,3.9406,3.9406,3.9406,3.9406,3.9406,3.9406,3.9406,3.9406,3.9406,3.9406,3.9406,3.9406,3.9406,3.9406,3.9945,4.0834,4.1254,4.1972,4.2776,4.3175,4.329,4.329,4.329,4.329,4.329,4.329,4.329,4.329,4.329,4.329,4.329,4.329,4.329,4.329,4.329,4.329,4.329,4.329,4.3833,4.4416,4.484,4.5469,4.6046,4.6471,4.6546,4.6546,4.6546,4.6546,4.6546,4.6546,4.6546,4.6546,4.6546,4.6546,4.6546,4.6546,4.6546,4.6546,4.6546,4.663,4.7553,4.9426,5.007,5.1087,5.2588,5.2621,5.2621,5.2621,5.2621,5.2621,5.2621,5.2621,5.2621,2.4495,2.3708,2.3108,2.3108,2.3108,2.3108,2.3108,2.3108,2.3321,2.4089,2.4833,2.5573,2.6361,2.6499,2.6499,2.6499,2.6499,2.6499,2.6499,2.665,2.7102,2.7996,2.8242,2.8718,2.9704,2.9792,2.9792,2.9792,2.9792,2.9792,2.9792,3.0843,3.1636,3.2084,3.4078,3.5706,3.6888,3.7826,3.8671,3.9406,3.9406,3.9406,3.9406,3.9406,3.9406,3.9406,3.9406,3.9406,3.9406,3.9406,3.9406,3.9406,3.9406,3.981,4.0472,4.1149,4.1807,4.25,4.3085,4.329,4.329,4.329,4.329,4.329,4.329,4.329,4.329,4.329,4.329,4.329,4.329,4.329,4.329,4.329,4.329,4.329,4.329,4.3982,4.4751,4.5214,4.6022,4.6749,4.7234,4.7309,4.7309,4.7309,4.7309,4.7309,4.7309,4.7309,4.7309,4.7309,4.7309,4.7309,4.7309,4.7309,4.7309,4.7309,4.7054,4.7732,4.9629,5.0643,5.1886,5.3467,5.3501,5.3501,5.3501,5.3501,5.3501,5.3501,5.3501,5.3501,2.4495,2.3708,2.3108,2.3108,2.3108,2.3108,2.3108,2.3108,2.3434,2.4578,2.5716,2.6499,2.6499,2.6499,2.6499,2.6499,2.6499,2.6499,2.6499,2.6947,2.7512,2.8047,2.8568,2.9132,2.9729,2.9792,2.9792,2.9792,2.9792,2.9792,2.9792,2.9792,3.0949,3.3495,3.4256,3.5829,3.8359,3.9047,3.9406,3.9406,3.9406,3.9406,3.9406,3.9406,3.9406,3.9406,3.9406,3.9406,3.9406,3.9406,3.9406,3.9406,3.9406,3.9813,4.0472,4.1149,4.1807,4.2485,4.3085,4.329,4.329,4.329,4.329,4.329,4.329,4.329,4.329,4.329,4.329,4.329,4.329,4.329,4.329,4.329,4.329,4.329,4.329,4.4341,4.5289,4.5289,4.6381,4.7309,4.7309,4.7309,4.7309,4.7309,4.7309,4.7309,4.7309,4.7309,4.7309,4.7309,4.7309,4.7309,4.7309,4.7309,4.7309,4.7309,4.7309,4.824,5.0301,5.134,5.24,5.3467,5.3484,5.3501,5.3501,5.3501,5.3501,5.3501,5.3501,5.3501,2.4495,2.3708,2.3108,2.3108,2.3108,2.3108,2.3108,2.3436,2.4039,2.5146,2.5967,2.6499,2.6499,2.6499,2.6499,2.6499,2.6499,2.6499,2.6499,2.6947,2.7512,2.8047,2.8568,2.9132,2.9729,2.9792,2.9792,2.9792,2.9792,2.9792,2.9792,2.9792,3.0631,3.2428,3.3865,3.5465,3.7266,3.869,3.9406,3.9406,3.9406,3.9406,3.9406,3.9406,3.9406,3.9406,3.9406,3.9406,3.9406,3.9406,3.9406,3.9406,3.9406,3.9526,3.9825,4.0984,4.1523,4.1852,4.2936,4.329,4.329,4.329,4.329,4.329,4.329,4.329,4.329,4.329,4.329,4.329,4.329,4.329,4.329,4.329,4.329,4.329,4.329,4.4341,4.5289,4.5289,4.6381,4.7309,4.7309,4.7309,4.7309,4.7309,4.7309,4.7309,4.7309,4.7309,4.7309,4.7309,4.7309,4.7309,4.7309,4.7309,4.7309,4.7309,4.7946,4.8615,4.9256,5.0301,5.1338,5.2348,5.311,5.3501,5.3501,5.3501,5.3501,5.3501,5.3501,5.3501,2.4031,2.3469,2.3108,2.3108,2.3108,2.3221,2.3672,2.4064,2.4569,2.5423,2.6067,2.6499,2.6499,2.6499,2.6499,2.6499,2.6499,2.6499,2.6499,2.7148,2.7733,2.8059,2.8781,2.9396,2.9754,2.9792,2.9792,2.9792,2.9792,2.9792,2.9792,2.9792,3.0548,3.2192,3.3765,3.5375,3.7014,3.8611,3.9406,3.9406,3.9406,3.9406,3.9406,3.9406,3.9406,3.9406,3.9406,3.9406,3.9406,3.9406,3.9406,3.9406,3.9406,3.9406,3.9526,4.0606,4.1179,4.1553,4.2581,4.31,4.329,4.329,4.329,4.329,4.329,4.329,4.329,4.329,4.329,4.329,4.329,4.329,4.329,4.329,4.329,4.329,4.329,4.4341,4.5289,4.5289,4.6381,4.7309,4.7309,4.7309,4.7309,4.7309,4.7309,4.7309,4.7309,4.7309,4.7309,4.7309,4.7309,4.7309,4.7309,4.7309,4.7309,4.7309,4.8231,4.8805,4.8805,5.0207,5.1486,5.2522,5.3161,5.3501,5.3501,5.3501,5.3501,5.3501,5.3501,5.3501,2.332,2.3108,2.3108,2.3108,2.3108,2.3396,2.454,2.4804,2.4967,2.5548,2.6118,2.6499,2.6499,2.6499,2.6499,2.6499,2.6499,2.6499,2.6499,2.7386,2.8047,2.8097,2.9063,2.9729,2.9779,2.9792,2.9792,2.9792,2.9792,2.9792,2.9792,2.9792,3.0627,3.2429,3.3808,3.5404,3.7252,3.8623,3.9346,3.9406,3.9406,3.9406,3.9406,3.9406,3.9406,3.9406,3.9406,3.9406,3.9406,3.9406,3.9406,3.9406,3.9406,3.9406,3.9481,4.0157,4.0816,4.1493,4.2171,4.2791,4.329,4.329,4.329,4.329,4.329,4.329,4.329,4.329,4.329,4.329,4.329,4.329,4.329,4.329,4.329,4.329,4.329,4.4341,4.5289,4.5289,4.6381,4.7309,4.7309,4.7309,4.7309,4.7309,4.7309,4.7309,4.7309,4.7309,4.7309,4.7309,4.7309,4.7309,4.7309,4.7381,4.7445,4.7445,4.8397,4.8988,4.9074,5.0895,5.2348,5.3331,5.345,5.3501,5.3501,5.3501,5.3501,5.3501,5.3501,5.3501,2.332,2.3108,2.3108,2.3108,2.3108,2.3396,2.454,2.4804,2.508,2.6109,2.6411,2.6499,2.6499,2.6499,2.6499,2.6499,2.6499,2.6499,2.6499,2.7047,2.762,2.8059,2.8681,2.927,2.9741,2.9792,2.9792,2.9792,2.9792,2.9792,2.9792,2.9792,3.0317,3.1462,3.3015,3.4611,3.627,3.7848,3.8886,3.9406,3.9406,3.9406,3.9406,3.9406,3.9406,3.9406,3.9406,3.9406,3.9406,3.9406,3.9406,3.9406,3.9406,3.9406,3.9481,4.0157,4.0816,4.1493,4.2171,4.2791,4.329,4.329,4.329,4.329,4.329,4.329,4.329,4.329,4.329,4.329,4.329,4.329,4.329,4.329,4.329,4.329,4.329,4.4341,4.5289,4.5289,4.6381,4.7309,4.7309,4.7309,4.7309,4.7309,4.7309,4.7309,4.7309,4.7309,4.7309,4.7309,4.7309,4.7309,4.7309,4.803,4.8486,4.8486,4.9456,5.04,5.1194,5.1669,5.2011,5.2241,5.3076,5.3501,5.3501,5.3501,5.3501,5.3501,5.3501,5.3501,2.32,2.3108,2.3108,2.3108,2.3108,2.3396,2.454,2.4804,2.5118,2.6273,2.6499,2.6499,2.6499,2.6499,2.6499,2.6499,2.6499,2.6499,2.6499,2.6947,2.7412,2.767,2.8417,2.9032,2.9333,2.9628,2.9792,2.9792,2.9792,2.9792,2.9792,2.9792,3.0438,3.1829,3.3005,3.4578,3.6652,3.7806,3.8736,3.9406,3.9406,3.9406,3.9406,3.9406,3.9406,3.9406,3.9406,3.9406,3.9406,3.9406,3.9406,3.9406,3.9406,3.9406,3.9436,3.978,4.0546,4.1448,4.1792,4.2521,4.329,4.329,4.329,4.329,4.329,4.329,4.329,4.329,4.329,4.329,4.329,4.329,4.329,4.329,4.329,4.329,4.329,4.4341,4.5289,4.5289,4.6381,4.7309,4.7309,4.7309,4.7309,4.7309,4.7309,4.7309,4.7309,4.7309,4.7309,4.7309,4.7309,4.7495,4.7967,4.8507,4.9029,4.9536,5.0534,5.134,5.1885,5.2383,5.2679,5.2679,5.323,5.3501,5.3501,5.3501,5.3501,5.3501,5.3501,5.3501,2.3108,2.3108,2.3108,2.3108,2.3108,2.3371,2.4428,2.4741,2.5093,2.6118,2.6424,2.6499,2.6499,2.6499,2.6499,2.6499,2.6499,2.6499,2.6499,2.6889,2.7198,2.7286,2.8084,2.8706,2.8875,2.9346,2.9691,2.9779,2.9792,2.9792,2.9792,2.9792,3.0589,3.2303,3.304,3.4565,3.6953,3.7814,3.8556,3.9227,3.9346,3.9406,3.9406,3.9406,3.9406,3.9406,3.9406,3.9406,3.9406,3.9406,3.9406,3.9406,3.9406,3.9406,3.9406,3.9406,4.0247,4.1403,4.1403,4.2237,4.329,4.329,4.329,4.329,4.329,4.329,4.329,4.329,4.329,4.329,4.329,4.329,4.329,4.329,4.329,4.329,4.329,4.4341,4.5289,4.5289,4.6381,4.7309,4.7309,4.7309,4.7309,4.7309,4.7309,4.7309,4.7309,4.7309,4.7309,4.7309,4.7452,4.7898,4.8723,4.9135,4.9718,5.0608,5.1596,5.2171,5.2171,5.3025,5.3501,5.3501,5.3501,5.3501,5.3501,5.3501,5.3501,5.3501,5.3501,5.3501,2.3108,2.3108,2.3108,2.3108,2.3108,2.3283,2.3938,2.4465,2.498,2.5586,2.6147,2.6499,2.6499,2.6499,2.6499,2.6499,2.6499,2.6499,2.6499,2.6562,2.6788,2.7236,2.7437,2.7871,2.8819,2.8982,2.9233,2.9754,2.9792,2.9792,2.9792,2.9792,3.0279,3.1352,3.2264,3.3575,3.5302,3.6786,3.7868,3.8542,3.9107,3.9406,3.9406,3.9406,3.9406,3.9406,3.9406,3.9406,3.9406,3.9406,3.9406,3.9406,3.9406,3.9406,3.9406,3.9406,4.0247,4.1403,4.1403,4.2237,4.329,4.329,4.329,4.329,4.329,4.329,4.329,4.329,4.329,4.329,4.329,4.329,4.329,4.329,4.329,4.329,4.329,4.4341,4.5289,4.5289,4.6381,4.7309,4.7309,4.7309,4.7309,4.7309,4.7309,4.7309,4.7309,4.7309,4.7309,4.7309,4.8093,4.8656,4.8784,5.0442,5.1559,5.1687,5.2696,5.3281,5.3281,5.3416,5.3501,5.3501,5.3501,5.3501,5.3501,5.3501,5.3501,5.3501,5.3501,5.3501,2.3108,2.3108,2.3108,2.3108,2.3108,2.3258,2.3866,2.4402,2.4954,2.5485,2.6067,2.6499,2.6499,2.6499,2.6499,2.6499,2.6499,2.6499,2.6499,2.6499,2.6587,2.6826,2.711,2.7487,2.7959,2.8543,2.9019,2.927,2.9616,2.9792,2.9792,2.9792,3.0476,3.1942,3.2393,3.3642,3.5829,3.6888,3.7943,3.8958,3.9257,3.9406,3.9406,3.9406,3.9406,3.9406,3.9406,3.9406,3.9406,3.9406,3.9406,3.9406,3.9406,3.9406,3.9406,3.9406,4.0247,4.1403,4.1403,4.2237,4.329,4.329,4.329,4.329,4.329,4.329,4.329,4.329,4.329,4.329,4.329,4.329,4.329,4.329,4.329,4.3394,4.3788,4.4631,4.5514,4.6277,4.6905,4.7309,4.7309,4.7309,4.7309,4.7309,4.7309,4.7309,4.7309,4.7807,4.8141,4.8141,4.9069,4.9915,5.048,5.1377,5.2153,5.2749,5.3247,5.3501,5.3501,5.3501,5.3501,5.3501,5.3501,5.3501,5.3501,5.3501,5.3501,5.3501,5.3501,5.3501,2.3108,2.3108,2.3108,2.3108,2.3108,2.3221,2.3662,2.4302,2.4917,2.5306,2.5979,2.6499,2.6499,2.6499,2.6499,2.6499,2.6499,2.6499,2.6499,2.6499,2.6499,2.6499,2.6851,2.7148,2.7286,2.8021,2.8605,2.8881,2.9327,2.9641,2.9779,2.9792,3.0652,3.254,3.2593,3.376,3.6206,3.7015,3.7985,3.9137,3.9316,3.9406,3.9406,3.9406,3.9406,3.9406,3.9406,3.9406,3.9406,3.9406,3.9406,3.9406,3.9406,3.9406,3.9406,3.9406,4.0142,4.1179,4.1343,4.2132,4.31,4.3265,4.329,4.329,4.329,4.329,4.329,4.329,4.329,4.329,4.329,4.329,4.329,4.329,4.329,4.3534,4.4371,4.508,4.5903,4.707,4.7309,4.7309,4.7309,4.7309,4.7309,4.7309,4.7516,4.7679,4.7679,4.8569,4.9195,4.9195,5.0149,5.108,5.1849,5.2153,5.2645,5.345,5.3501,5.3501,5.3501,5.3501,5.3501,5.3501,5.3501,5.3501,5.3501,5.3501,5.3501,5.3501,5.3501,5.3501,2.3108,2.3108,2.3108,2.3108,2.3108,2.3108,2.3145,2.3998,2.4816,2.4842,2.5741,2.6499,2.6499,2.6499,2.6499,2.6499,2.6499,2.6499,2.6499,2.6499,2.6499,2.6499,2.6512,2.6738,2.7248,2.7349,2.7795,2.8831,2.8932,2.9195,2.9767,2.9792,3.0652,3.254,3.2593,3.3561,3.5533,3.6774,3.7749,3.8469,3.9092,3.9406,3.9406,3.9406,3.9406,3.9406,3.9406,3.9406,3.9406,3.9406,3.9406,3.9406,3.9406,3.9406,3.9406,3.9406,3.984,4.0531,4.1179,4.1852,4.2526,4.3115,4.329,4.329,4.329,4.329,4.329,4.329,4.329,4.329,4.329,4.329,4.329,4.329,4.329,4.3668,4.4975,4.5762,4.645,4.7174,4.7309,4.7309,4.7309,4.7309,4.7309,4.7309,4.8099,4.8723,4.8723,4.9655,5.032,5.032,5.1211,5.1832,5.1903,5.2835,5.345,5.3501,5.3501,5.3501,5.3501,5.3501,5.3501,5.3501,5.3501,5.3501,5.3501,5.3501,5.3501,5.3501,5.3501,5.3501,2.3108,2.3108,2.3108,2.3108,2.3108,2.3108,2.3108,2.3725,2.4377,2.4729,2.5398,2.603,2.6424,2.6499,2.6499,2.6499,2.6499,2.6499,2.6499,2.6499,2.6499,2.6499,2.6499,2.6575,2.6763,2.7097,2.7462,2.7846,2.8197,2.8631,2.9183,2.922,2.9977,3.1651,3.2303,3.3749,3.6116,3.6985,3.7749,3.8424,3.9095,3.9406,3.9406,3.9406,3.9406,3.9406,3.9406,3.9406,3.9406,3.9406,3.9406,3.9406,3.9406,3.9406,3.9406,3.9406,3.981,4.0502,4.1164,4.1837,4.2515,4.31,4.329,4.329,4.329,4.329,4.329,4.329,4.329,4.329,4.329,4.329,4.329,4.329,4.3967,4.4721,4.52,4.5843,4.6495,4.7174,4.7309,4.7309,4.7309,4.7309,4.7309,4.7309,4.8162,4.8805,4.8805,5.0304,5.1375,5.1375,5.2311,5.2938,5.2938,5.3281,5.3501,5.3501,5.3501,5.3501,5.3501,5.3501,5.3501,5.3501,5.3501,5.3501,5.3501,5.3501,5.3501,5.3501,5.3501,5.3501,2.3108,2.3108,2.3108,2.3108,2.3108,2.3108,2.3108,2.3574,2.4155,2.4691,2.5234,2.5791,2.6386,2.6499,2.6499,2.6499,2.6499,2.6499,2.6499,2.6499,2.6499,2.6499,2.6499,2.6499,2.6499,2.6826,2.7097,2.7286,2.762,2.8072,2.8605,2.8787,2.9759,3.1601,3.2575,3.4057,3.6148,3.6791,3.7419,3.8063,3.8751,3.9167,3.9406,3.9406,3.9406,3.9406,3.9406,3.9406,3.9406,3.9406,3.9406,3.9406,3.9406,3.9406,3.9406,3.9406,3.9675,4.0187,4.1089,4.1688,4.2197,4.3025,4.329,4.329,4.329,4.329,4.329,4.329,4.329,4.329,4.329,4.329,4.329,4.329,4.4311,4.5289,4.5289,4.5986,4.6764,4.7219,4.7309,4.7309,4.7309,4.7309,4.7309,4.7309,4.846,4.9336,4.9336,5.1155,5.2435,5.2435,5.3059,5.3501,5.3501,5.3501,5.3501,5.3501,5.3501,5.3501,5.3501,5.3501,5.3501,5.3501,5.3501,5.3501,5.3501,5.3501,5.3501,5.3501,5.3501,5.3501,0.0,0.0,0.0,2.3108,2.3108,2.3108,2.3108,2.3549,2.413,2.4666,2.5193,2.5766,2.6361,2.6487,2.6499,2.6499,2.6499,2.6499,2.6499,2.6499,2.6499,2.6499,2.6499,2.6499,2.6499,2.6499,2.6713,2.7236,2.7273,2.7512,2.8047,2.8593,3.0043,3.2526,3.3449,3.4442,3.5488,3.6146,3.6774,3.7402,3.8078,3.8751,3.9406,3.9406,3.9406,3.9406,3.9406,3.9406,3.9406,3.9406,3.9406,3.9406,3.9406,3.9406,3.9406,3.9406,3.9406,3.9586,4.092,4.1403,4.1613,4.2891,4.329,4.329,4.329,4.329,4.329,4.329,4.329,4.329,4.329,4.329,4.329,4.3319,4.4326,4.5304,4.5319,4.6388,4.7352,4.7309,4.7309,4.7309,4.7309,4.7309,4.7309,4.7337,4.9085,5.0397,5.0435,5.2222,5.3501,5.3501,5.3501,5.3501,5.3501,5.3501,5.3501,5.3501,5.3501,5.3501,5.3501,5.3501,5.3501,5.3501,5.3501,5.3501,5.3501,5.3501,5.3501,5.3501,5.3518,5.3551,2.3108,0.0,0.0,0.0,0.0,0.0,2.3108,2.3233,2.3509,2.4089,2.4641,2.518,2.5753,2.621,2.6499,2.6499,2.6499,2.6499,2.6499,2.6499,2.6499,2.6499,2.6499,2.6499,2.6499,2.6499,2.6562,2.6713,2.6725,2.6964,2.7499,2.8392,3.0043,3.2526,3.2195,3.3115,3.5488,3.5438,3.6087,3.7402,3.8078,3.8751,3.9406,3.9406,3.9406,3.9406,3.9406,3.9406,3.9406,3.9406,3.9406,3.9406,3.9406,3.9406,3.9406,3.9406,3.9406,3.9586,4.092,4.1403,4.1613,4.2891,4.329,4.329,4.329,4.329,4.329,4.329,4.329,4.329,4.329,4.329,4.3409,4.3908,4.4691,4.5424,4.5912,4.727,4.8183,4.743,4.7309,4.7309,4.7309,4.7309,4.7559,4.8272,4.9516,5.0665,5.1394,5.2661,5.3501,5.3501,5.3501,5.3501,5.3501,5.3501,5.3501,5.3501,5.3501,5.3501,5.3501,5.3501,5.3501,5.3501,5.3501,5.3501,5.3501,5.3501,5.3501,5.3518,5.4042,5.4583,0.0,0.0,0.0,2.3108,0.0,0.0,2.3108,2.3108,2.3271,2.3879,2.4443,2.4954,2.5498,2.608,2.6499,2.6499,2.6499,2.6499,2.6499,2.6499,2.6499,2.6499,2.6499,2.6499,2.6499,2.6499,2.6499,2.6499,2.6499,2.6839,2.7582,2.8235,2.9816,3.2512,3.1687,3.2585,3.5472,3.4891,3.5536,3.7387,3.7808,3.8482,3.9406,3.9406,3.9406,3.9406,3.9406,3.9406,3.9406,3.9406,3.9406,3.9406,3.9406,3.9406,3.9406,3.9406,3.9406,3.9586,4.092,4.1403,4.1613,4.2891,4.329,4.329,4.329,4.329,4.329,4.329,4.329,4.329,4.329,4.329,4.3469,4.4132,4.4811,4.5593,4.6698,4.7906,4.8507,4.7495,4.8003,4.8324,4.7445,4.7651,4.812,4.8702,4.9714,5.076,5.176,5.2835,5.3501,5.3501,5.3501,5.3501,5.3501,5.3501,5.3501,5.3501,5.3501,5.3501,5.3501,5.3501,5.3501,5.3501,5.3501,5.3653,5.3957,5.3653,5.367,5.3974,5.4718,5.5294,0.0,0.0,0.0,0.0,2.3108,0.0,2.3108,2.3108,2.3246,2.3788,2.4327,2.4854,2.5335,2.5904,2.6336,2.6386,2.6399,2.6411,2.6487,2.6499,2.6499,2.6499,2.6499,2.6499,2.6499,2.6499,2.6499,2.6499,2.6499,2.6959,2.8047,2.8109,2.943,3.2352,3.1536,3.2424,3.531,3.4344,3.5037,3.7387,3.7387,3.809,3.9406,3.9406,3.9406,3.9406,3.9406,3.9406,3.9406,3.9406,3.9406,3.9406,3.9406,3.9406,3.9406,3.9406,3.9406,3.9586,4.092,4.1403,4.1613,4.2891,4.329,4.329,4.329,4.329,4.329,4.329,4.329,4.329,4.329,4.329,4.3504,4.4222,4.487,4.5738,4.7404,4.8407,4.8677,4.7673,4.9044,4.9789,4.7807,4.8314,4.8988,4.8988,4.9891,5.093,5.1939,5.2904,5.3501,5.3501,5.3501,5.3501,5.3501,5.3501,5.3501,5.3501,5.3501,5.3501,5.3501,5.3501,5.3501,5.3501,5.3585,5.394,5.46,5.394,5.4042,5.4871,5.553,5.5868,0.0,0.0,0.0,0.0,2.3108,0.0,2.3108,2.3108,2.3133,2.3246,2.375,2.4192,2.4293,2.477,2.5272,2.5716,2.5791,2.5942,2.6424,2.6499,2.6499,2.6499,2.6499,2.6499,2.6499,2.6499,2.6499,2.6499,2.6499,2.6959,2.8047,2.8109,2.9146,3.1404,3.0558,3.1434,3.4262,3.3345,3.4403,3.7387,3.7387,3.809,3.9406,3.9406,3.9406,3.9406,3.9406,3.9406,3.9406,3.9406,3.9406,3.9406,3.9406,3.9406,3.9406,3.9406,3.9406,3.9586,4.092,4.1403,4.1613,4.2891,4.329,4.329,4.329,4.329,4.329,4.329,4.329,4.329,4.329,4.329,4.3609,4.4825,4.52,4.5681,4.7093,4.8809,4.9773,4.8718,4.9516,4.9989,4.8718,4.9392,5.0087,5.0087,5.0949,5.1992,5.3042,5.3365,5.3501,5.3501,5.3501,5.3501,5.3501,5.3501,5.3501,5.3501,5.3501,5.3501,5.3501,5.3501,5.3501,5.3501,5.4076,5.4465,5.46,5.4465,5.5057,5.6376,5.6528,5.69,0.0,0.0,0.0,2.3108,0.0,0.0,0.0,2.3108,2.3108,2.3108,2.3574,2.4004,2.4004,2.444,2.4892,2.5172,2.5423,2.5716,2.6005,2.6311,2.6499,2.6499,2.6499,2.6499,2.6499,2.6499,2.6499,2.6499,2.6499,2.6851,2.7657,2.7959,2.9132,3.1429,3.0378,3.1392,3.4725,3.3325,3.4054,3.6941,3.727,3.7943,3.8916,3.9242,3.9406,3.9406,3.9406,3.9406,3.9406,3.9406,3.9406,3.9406,3.9406,3.9406,3.9406,3.9406,3.9406,3.9586,4.092,4.1403,4.1613,4.2891,4.329,4.329,4.329,4.329,4.329,4.329,4.329,4.329,4.329,4.329,4.3638,4.4975,4.5289,4.5945,4.8332,4.9671,5.055,5.1043,5.1576,5.1447,4.9872,5.0458,5.1136,5.1136,5.1578,5.2294,5.3365,5.3501,5.3501,5.3501,5.3501,5.3501,5.3501,5.3501,5.3501,5.3501,5.3501,5.3501,5.3501,5.3501,5.367,5.4042,5.4397,5.4973,5.57,5.57,5.6072,5.6816,5.7171,5.7543,0.0,0.0,0.0,0.0,0.0,2.3108,0.0,0.0,0.0,2.3108,2.3487,2.3841,2.3841,2.4177,2.4499,2.4628,2.5021,2.536,2.5573,2.6017,2.6373,2.6491,2.6499,2.6499,2.6499,2.6499,2.6499,2.6499,2.6499,2.6738,2.7273,2.7808,2.9153,3.147,3.0583,3.1709,3.518,3.3636,3.4085,3.6508,3.7105,3.7749,3.8424,3.9077,3.9406,3.9406,3.9406,3.9406,3.9406,3.9406,3.9406,3.9406,3.9406,3.9406,3.9406,3.9406,3.9406,3.9586,4.092,4.1403,4.1613,4.2891,4.329,4.329,4.329,4.329,4.329,4.329,4.329,4.329,4.329,4.329,4.3638,4.4975,4.5289,4.6183,4.9395,5.0242,5.0946,5.2835,5.3365,5.2904,5.1021,5.1523,5.2135,5.1939,5.2082,5.2522,5.3382,5.3501,5.3501,5.3501,5.3501,5.3501,5.3501,5.3501,5.3501,5.3501,5.3501,5.3501,5.3501,5.3636,5.3991,5.46,5.4888,5.5615,5.6799,5.6934,5.7019,5.7019,5.7611,5.79,0.0,0.0,0.0,0.0,2.3108,0.0,2.3108,0.0,2.3108,2.3108,0.0,2.3195,2.3195,0.0,0.0,2.3988,2.4142,2.4506,2.546,2.5649,2.5904,2.6436,2.6499,2.6499,2.6499,2.6499,2.6499,2.6499,2.6499,2.6738,2.7273,2.7808,2.8866,3.0516,3.0871,3.2051,3.416,3.3959,3.4731,3.6508,3.7105,3.7749,3.8424,3.9077,3.9406,3.9406,3.9406,3.9406,3.9406,3.9406,3.9406,3.9406,3.9406,3.9406,3.9406,3.9406,3.9406,3.9586,4.092,4.1403,4.1613,4.2891,4.329,4.329,4.329,4.329,4.329,4.329,4.329,4.329,4.329,4.329,4.3638,4.4975,4.5289,4.5986,4.8449,4.9734,5.0722,5.1867,5.2852,5.3127,5.1921,5.261,5.3007,5.2029,5.2714,5.3365,5.3484,5.3501,5.3501,5.3501,5.3501,5.3501,5.3501,5.3501,5.3501,5.3501,5.3501,5.3501,5.3501,5.4126,5.4516,5.46,5.5886,5.663,5.6799,5.7459,5.7781,5.7781,5.7866,5.79,0.0,0.0,0.0,0.0,0.0,0.0,2.3183,0.0,2.3108,0.0,0.0,0.0,0.0,0.0,0.0,0.0,2.3763,2.4155,2.4607,2.5209,2.5829,2.6424,2.6499,2.6499,2.6499,2.6499,2.6499,2.6499,2.6499,2.66,2.6826,2.765,2.864,2.9852,3.0742,3.2105,3.3993,3.401,3.4658,3.5923,3.6926,3.7554,3.7853,3.8913,3.9406,3.9406,3.9406,3.9406,3.9406,3.9406,3.9406,3.9406,3.9406,3.9406,3.9406,3.9406,3.9406,3.9586,4.092,4.1403,4.1613,4.2891,4.329,4.329,4.329,4.329,4.329,4.329,4.329,4.329,4.329,4.329,4.3638,4.4975,4.5773,4.688,4.9217,5.0534,5.1594,5.2644,5.3179,5.3348,5.2921,5.3212,5.3348,5.2887,5.3212,5.3501,5.3501,5.3501,5.3501,5.3501,5.3501,5.3501,5.3501,5.3501,5.3501,5.3501,5.3501,5.3501,5.3501,5.4211,5.4803,5.5243,5.6275,5.7002,5.7442,5.7764,5.79,5.79,5.79,5.79,2.4942,0.0,0.0,0.0,0.0,0.0,0.0,0.0,0.0,0.0,0.0,0.0,0.0,0.0,0.0,0.0,0.0,2.3878,2.4248,2.4801,2.5423,2.6172,2.6399,2.6589,2.6816,2.6833,2.6833,2.6833,2.6833,2.6833,2.6833,2.7637,2.8651,2.9822,3.0976,3.2375,3.3993,3.4279,3.4774,3.5519,3.6789,3.7387,3.7464,3.8793,3.9406,3.9406,3.9406,3.9406,3.9406,3.9406,3.9406,3.9406,3.9406,3.9406,3.9406,3.9406,3.9406,3.9586,4.092,4.1628,4.2073,4.301,4.329,4.329,4.329,4.329,4.329,4.329,4.329,4.329,4.329,4.329,4.3638,4.4975,4.6127,4.754,4.9882,5.1192,5.2223,5.3281,5.3501,5.3501,5.3501,5.3501,5.3501,5.3501,5.3501,5.3501,5.3501,5.3501,5.3501,5.3501,5.3501,5.3501,5.3501,5.3501,5.3501,5.3501,5.3501,5.3602,5.3788,5.4515,5.5243,5.5986,5.6731,5.7357,5.79,5.79,5.79,5.79,5.79,5.79,0.0,0.0,0.0,2.4779,0.0,0.0,0.0,0.0,2.3966,0.0,0.0,0.0,0.0,0.0,0.0,0.0,0.0,0.0,0.0,2.4484,2.4443,2.5498,2.6147,2.6816,2.7587,2.7653,2.7653,2.7653,2.7653,2.7653,2.7653,2.7943,2.8912,3.0697,3.1937,3.3031,3.3993,3.497,3.5472,3.5519,3.6789,3.7387,3.7464,3.8793,3.9406,3.9406,3.9406,3.9406,3.9406,3.9406,3.9406,3.9406,3.9406,3.9406,3.9406,3.9406,3.9406,3.9586,4.092,4.2207,4.3265,4.329,4.329,4.329,4.329,4.329,4.329,4.329,4.329,4.329,4.329,4.329,4.3638,4.4975,4.6127,4.754,4.9882,5.1192,5.2223,5.3281,5.3501,5.3501,5.3501,5.3501,5.3501,5.3501,5.3501,5.3501,5.3501,5.3501,5.3501,5.3501,5.3501,5.3501,5.3501,5.3501,5.3501,5.3501,5.3501,5.3822,5.455,5.5277,5.6003,5.6748,5.7492,5.7883,5.79,5.79,5.79,5.79,5.79,5.79,0.0,0.0,2.5829,2.5435,0.0,0.0,0.0,0.0,0.0,0.0,0.0,0.0,0.0,0.0,0.0,0.0,0.0,0.0,0.0,2.5453,2.6543,2.771,2.8031,2.8035,2.7736,2.7703,2.7703,2.7703,2.7703,2.7703,2.7703,2.8499,2.9236,2.9839,3.1656,3.2749,3.3066,3.4689,3.5504,3.5519,3.6789,3.7387,3.7464,3.8793,3.9406,3.9406,3.9406,3.9406,3.9406,3.9406,3.9406,3.9406,3.9406,3.9406,3.9406,3.9406,3.9406,3.9586,4.092,4.2237,4.329,4.329,4.329,4.329,4.329,4.329,4.329,4.329,4.329,4.329,4.329,4.329,4.3638,4.4975,4.6619,4.8351,5.0035,5.1756,5.2852,5.2505,5.3007,5.3264,5.2557,5.3025,5.3501,5.3501,5.3501,5.3501,5.3501,5.3501,5.3501,5.3501,5.3501,5.3501,5.3501,5.3501,5.3501,5.3501,5.3957,5.4329,5.46,5.5784,5.6562,5.6799,5.7509,5.79,5.79,5.79,5.79,5.79,5.79,5.79,2.6314,2.6499,0.0,2.6017,2.5917,0.0,2.5473,0.0,2.508,0.0,0.0,0.0,0.0,0.0,0.0,0.0,0.0,0.0,0.0,2.7094,2.846,2.8697,2.888,2.8907,2.8652,2.862,2.862,2.862,2.862,2.8571,2.846,2.9057,2.9632,3.0164,3.1748,3.2767,3.3101,3.4706,3.5504,3.5519,3.6789,3.7387,3.7464,3.8793,3.9406,3.9406,3.9406,3.9406,3.9406,3.9406,3.9406,3.9406,3.9406,3.9406,3.9406,3.9406,3.969,4.0232,4.1104,4.2237,4.329,4.329,4.329,4.329,4.329,4.329,4.329,4.329,4.329,4.329,4.329,4.329,4.3638,4.4975,4.6619,4.8238,4.9551,5.1171,5.2204,5.1504,5.2205,5.2714,5.2011,5.2784,5.3501,5.3501,5.3501,5.3501,5.3501,5.3501,5.3501,5.3501,5.3501,5.3501,5.3501,5.3501,5.3619,5.3873,5.4329,5.4854,5.5361,5.6292,5.6799,5.6799,5.7509,5.7781,5.7509,5.7781,5.79,5.79,5.79,5.79]},{"header":{"parameterUnit":"m.s-1","parameterCategory":1,"la1":30.6,"la2":29.2853,"lo1":-89.7004,"lo2":-87.6739,"dy":0.0162,"dx":0.0183,"nx":112,"ny":82,"refTime":"2024-03-18T18:00:00:Z","depth":0,"parameterNumber":3,"parameterNumberName":"V-component_of_WINDS"},"data":[0.0,0.0,0.0,0.0,0.0,0.0,0.0,0.0,0.0,0.0,0.0,0.0,0.0,0.0,0.0,0.0,0.0,0.0,0.0,0.0,0.0,0.0,0.0,0.0,0.0,0.0,0.0,0.0,0.0,0.0,0.0,0.0,0.0,0.0,0.0,0.0,0.0,0.0,0.0,0.0,0.0,0.0,0.0,0.0,0.0,0.0,0.0,0.0,0.0,0.0,0.0,0.0,0.0,0.0,0.0,0.0,0.0,0.0,0.0,0.0,0.0,0.0,0.0,0.0,0.0,0.0,0.0,0.0,0.0,0.0,0.0,0.0,0.0,0.0,0.0,0.0,0.0,0.0,0.0,0.0,0.0,0.0,0.0,0.0,0.0,0.0,0.0,0.0,0.0,0.0,2.2654,2.3052,2.3091,2.3091,2.3091,2.3091,2.3091,2.3091,0.0,0.0,0.0,0.0,0.0,0.0,0.0,0.0,0.0,0.0,0.0,0.0,0.0,0.0,0.0,0.0,0.0,0.0,0.0,0.0,0.0,0.0,0.0,0.0,0.0,0.0,0.0,0.0,0.0,0.0,0.0,0.0,0.0,0.0,0.0,0.0,0.0,0.0,0.0,0.0,0.0,0.0,0.0,0.0,0.0,0.0,0.0,0.0,0.0,0.0,0.0,0.0,0.0,0.0,0.0,0.0,0.0,0.0,0.0,0.0,0.0,0.0,0.0,0.0,0.0,0.0,0.0,0.0,0.0,0.0,0.0,0.0,0.0,0.0,0.0,0.0,0.0,0.0,0.0,0.0,0.0,0.0,0.0,0.0,0.0,0.0,0.0,0.0,0.0,0.0,0.0,0.0,0.0,0.0,0.0,0.0,0.0,0.0,0.0,0.0,0.0,0.0,0.0,0.0,2.2654,2.3052,2.3091,2.3091,2.3091,2.3091,2.3091,2.3091,0.0,0.0,0.0,0.0,0.0,0.0,0.0,0.0,0.0,0.0,0.0,0.0,0.0,0.0,0.0,0.0,0.0,0.0,0.0,0.0,0.0,0.0,0.0,0.0,0.0,0.0,0.0,0.0,0.0,0.0,0.0,0.0,0.0,0.0,0.0,0.0,0.0,0.0,0.0,0.0,0.0,0.0,0.0,0.0,0.0,0.0,0.0,0.0,0.0,0.0,0.0,0.0,0.0,0.0,0.0,0.0,0.0,0.0,0.0,0.0,0.0,0.0,0.0,0.0,0.0,0.0,0.0,0.0,0.0,0.0,0.0,0.0,0.0,0.0,0.0,0.0,0.0,0.0,0.0,0.0,0.0,0.0,0.0,0.0,0.0,0.0,0.0,0.0,0.0,0.0,0.0,0.0,0.0,0.0,0.0,0.0,0.0,0.0,0.0,0.0,0.0,0.0,0.0,2.283,2.2908,2.3071,2.3091,2.3091,2.3091,2.3091,2.3091,2.3091,2.3091,0.0,0.0,0.0,0.0,0.0,0.0,0.0,0.0,0.0,0.0,0.0,0.0,0.0,0.0,0.0,0.0,0.0,0.0,0.0,0.0,0.0,0.0,0.0,0.0,0.0,0.0,0.0,0.0,0.0,0.0,0.0,0.0,0.0,0.0,0.0,0.0,0.0,0.0,0.0,0.0,0.0,0.0,0.0,0.0,0.0,0.0,0.0,0.0,0.0,0.0,0.0,0.0,0.0,0.0,0.0,0.0,0.0,0.0,0.0,0.0,0.0,0.0,0.0,0.0,0.0,0.0,0.0,0.0,0.0,0.0,0.0,0.0,0.0,0.0,0.0,0.0,0.0,0.0,0.0,0.0,0.0,0.0,0.0,0.0,0.0,0.0,0.0,0.0,0.0,0.0,0.0,0.0,0.0,0.0,0.0,0.0,0.0,0.0,0.0,0.0,0.0,0.0,2.3091,2.3091,2.3091,2.3091,2.3091,2.3091,2.3091,2.3091,2.3091,2.3091,0.0,0.0,0.0,0.0,0.0,0.0,0.0,0.0,0.0,0.0,0.0,0.0,0.0,0.0,0.0,0.0,0.0,0.0,0.0,0.0,0.0,0.0,0.0,0.0,0.0,0.0,0.0,0.0,0.0,0.0,0.0,0.0,0.0,0.0,0.0,0.0,0.0,0.0,0.0,0.0,0.0,0.0,0.0,0.0,0.0,0.0,0.0,0.0,0.0,0.0,0.0,0.0,0.0,0.0,0.0,0.0,0.0,0.0,0.0,0.0,0.0,0.0,0.0,0.0,0.0,0.0,0.0,0.0,0.0,0.0,0.0,0.0,0.0,0.0,0.0,0.0,0.0,0.0,0.0,0.0,0.0,0.0,0.0,0.0,0.0,0.0,0.0,0.0,0.0,0.0,0.0,0.0,0.0,0.0,0.0,0.0,0.0,0.0,0.0,0.0,0.0,0.0,2.3091,2.3091,2.3091,2.3091,2.3091,2.3091,2.3091,2.3091,2.3091,2.3091,0.0,0.0,0.0,0.0,0.0,0.0,0.0,0.0,0.0,0.0,0.0,0.0,0.0,0.0,0.0,0.0,0.0,0.0,0.0,0.0,0.0,0.0,0.0,0.0,0.0,0.0,0.0,0.0,0.0,0.0,0.0,0.0,0.0,0.0,0.0,0.0,0.0,0.0,0.0,0.0,0.0,0.0,0.0,0.0,0.0,0.0,0.0,0.0,0.0,0.0,0.0,0.0,0.0,0.0,0.0,0.0,0.0,0.0,0.0,0.0,0.0,0.0,0.0,0.0,0.0,0.0,0.0,0.0,0.0,0.0,0.0,0.0,0.0,0.0,0.0,0.0,0.0,0.0,0.0,0.0,0.0,0.0,0.0,0.0,0.0,0.0,0.0,0.0,0.0,0.0,0.0,0.0,0.0,0.0,0.0,0.0,0.0,0.0,0.0,0.0,0.0,0.0,2.3091,2.3091,0.0,2.3091,2.3091,2.3091,2.3091,2.3091,2.3091,0.0,0.0,0.0,0.0,0.0,0.0,0.0,0.0,0.0,0.0,0.0,0.0,0.0,0.0,0.0,0.0,0.0,0.0,0.0,0.0,0.0,0.0,0.0,0.0,0.0,0.0,0.0,0.0,0.0,0.0,0.0,0.0,0.0,0.0,0.0,0.0,0.0,0.0,0.0,0.0,0.0,0.0,0.0,0.0,0.0,0.0,0.0,0.0,0.0,0.0,0.0,0.0,0.0,0.0,0.0,0.0,0.0,0.0,0.0,0.0,0.0,0.0,0.0,0.0,0.0,0.0,0.0,0.0,0.0,0.0,0.0,0.0,0.0,0.0,0.0,0.0,0.0,0.0,0.0,0.0,0.0,0.0,0.0,0.0,0.0,0.0,0.0,0.0,0.0,0.0,0.0,0.0,0.0,0.0,0.0,0.0,0.0,0.0,0.0,0.0,0.0,0.0,2.3091,2.3091,2.3091,0.0,2.324,2.3327,2.3327,2.3327,2.3327,2.3327,0.0,0.0,0.0,0.0,0.0,0.0,0.0,0.0,0.0,0.0,0.0,0.0,0.0,0.0,0.0,0.0,0.0,0.0,0.0,0.0,0.0,0.0,0.0,0.0,0.0,0.0,0.0,0.0,0.0,0.0,0.0,0.0,0.0,0.0,0.0,0.0,0.0,0.0,0.0,0.0,0.0,0.0,0.0,0.0,0.0,0.0,0.0,0.0,0.0,0.0,0.0,0.0,0.0,0.0,0.0,0.0,0.0,0.0,0.0,0.0,0.0,0.0,0.0,0.0,0.0,0.0,0.0,0.0,0.0,0.0,0.0,0.0,0.0,0.0,0.0,0.0,0.0,0.0,0.0,0.0,0.0,0.0,0.0,0.0,0.0,0.0,0.0,0.0,0.0,0.0,0.0,0.0,0.0,0.0,0.0,0.0,0.0,0.0,0.0,0.0,0.0,0.0,2.3091,2.3101,2.3101,2.3101,2.3535,2.3821,2.3821,2.3821,2.3821,0.0,0.0,0.0,0.0,0.0,0.0,0.0,0.0,0.0,0.0,0.0,0.0,0.0,0.0,0.0,0.0,0.0,0.0,0.0,0.0,0.0,0.0,0.0,0.0,0.0,0.0,0.0,0.0,0.0,0.0,0.0,0.0,0.0,0.0,0.0,0.0,0.0,0.0,0.0,0.0,0.0,0.0,0.0,0.0,0.0,0.0,0.0,0.0,0.0,0.0,0.0,0.0,0.0,0.0,0.0,0.0,0.0,0.0,0.0,0.0,0.0,0.0,0.0,0.0,0.0,0.0,0.0,0.0,0.0,0.0,0.0,0.0,0.0,0.0,0.0,0.0,0.0,0.0,0.0,0.0,0.0,0.0,0.0,0.0,0.0,0.0,0.0,0.0,0.0,0.0,0.0,0.0,0.0,0.0,0.0,0.0,0.0,0.0,0.0,0.0,0.0,0.0,0.0,2.3091,2.3386,2.3603,2.3603,2.3984,2.4206,2.4206,2.4206,2.4206,2.4206,0.0,0.0,0.0,0.0,0.0,0.0,0.0,0.0,0.0,0.0,0.0,0.0,0.0,0.0,0.0,0.0,0.0,0.0,0.0,0.0,0.0,0.0,0.0,0.0,0.0,0.0,0.0,0.0,0.0,0.0,0.0,0.0,0.0,0.0,0.0,0.0,0.0,0.0,0.0,0.0,0.0,0.0,0.0,0.0,0.0,0.0,0.0,0.0,0.0,0.0,0.0,0.0,0.0,0.0,0.0,0.0,0.0,0.0,0.0,0.0,0.0,0.0,0.0,0.0,0.0,0.0,0.0,0.0,0.0,0.0,0.0,0.0,0.0,0.0,0.0,0.0,0.0,0.0,0.0,0.0,0.0,0.0,0.0,0.0,0.0,0.0,0.0,0.0,0.0,0.0,0.0,0.0,0.0,0.0,0.0,0.0,0.0,0.0,0.0,0.0,0.0,0.0,2.3376,2.3769,2.4043,2.4043,2.4424,2.4678,2.4678,2.4678,2.4678,2.4678,0.0,0.0,0.0,0.0,0.0,0.0,0.0,0.0,0.0,0.0,0.0,0.0,0.0,0.0,0.0,0.0,0.0,0.0,0.0,0.0,0.0,0.0,0.0,0.0,0.0,0.0,0.0,0.0,0.0,0.0,0.0,0.0,0.0,0.0,0.0,0.0,0.0,0.0,0.0,0.0,0.0,0.0,0.0,0.0,0.0,0.0,0.0,0.0,0.0,0.0,0.0,0.0,0.0,0.0,0.0,0.0,0.0,0.0,0.0,0.0,0.0,0.0,0.0,0.0,0.0,0.0,0.0,0.0,0.0,0.0,0.0,0.0,0.0,0.0,0.0,0.0,0.0,0.0,0.0,0.0,0.0,0.0,0.0,0.0,0.0,0.0,0.0,0.0,0.0,0.0,0.0,0.0,0.0,0.0,0.0,0.0,0.0,0.0,0.0,0.0,0.0,0.0,2.3838,2.4219,2.4449,2.4449,2.4873,2.5151,2.5151,2.5151,2.5151,2.5151,0.0,0.0,0.0,0.0,0.0,0.0,0.0,0.0,0.0,0.0,0.0,0.0,0.0,0.0,0.0,0.0,0.0,0.0,0.0,0.0,0.0,0.0,0.0,0.0,0.0,0.0,0.0,0.0,0.0,0.0,0.0,0.0,0.0,0.0,0.0,0.0,0.0,0.0,0.0,0.0,0.0,0.0,0.0,0.0,0.0,0.0,0.0,0.0,0.0,0.0,0.0,0.0,0.0,0.0,0.0,0.0,0.0,0.0,0.0,0.0,2.4863,0.0,0.0,0.0,0.0,0.0,0.0,0.0,0.0,0.0,0.0,0.0,0.0,0.0,0.0,0.0,0.0,0.0,0.0,0.0,0.0,0.0,0.0,0.0,0.0,0.0,0.0,0.0,0.0,0.0,0.0,0.0,0.0,0.0,0.0,0.0,0.0,0.0,0.0,0.0,0.0,0.0,2.4238,2.4658,2.4955,2.4955,2.5322,2.5571,2.5571,2.5571,2.5571,2.5571,2.5176,0.0,0.0,0.0,0.0,0.0,0.0,0.0,0.0,0.0,0.0,0.0,0.0,0.0,0.0,0.0,0.0,0.0,0.0,0.0,0.0,0.0,0.0,0.0,0.0,0.0,0.0,0.0,0.0,0.0,0.0,0.0,0.0,0.0,0.0,0.0,0.0,0.0,0.0,0.0,0.0,0.0,0.0,0.0,0.0,0.0,0.0,0.0,0.0,0.0,0.0,0.0,0.0,0.0,0.0,0.0,0.0,0.0,0.0,0.0,0.0,2.4553,0.0,0.0,0.0,0.0,0.0,0.0,0.0,0.0,0.0,0.0,0.0,0.0,0.0,0.0,0.0,0.0,0.0,0.0,0.0,0.0,0.0,0.0,0.0,0.0,0.0,0.0,0.0,0.0,0.0,0.0,0.0,0.0,0.0,0.0,0.0,0.0,0.0,0.0,0.0,0.0,2.4697,2.5117,2.5391,2.5391,2.5571,2.5693,2.5693,2.5693,2.5693,2.5693,2.5493,0.0,0.0,0.0,0.0,0.0,0.0,0.0,0.0,0.0,0.0,0.0,0.0,0.0,0.0,0.0,0.0,0.0,0.0,0.0,0.0,0.0,0.0,0.0,0.0,0.0,0.0,0.0,0.0,0.0,0.0,0.0,0.0,0.0,0.0,0.0,0.0,0.0,0.0,0.0,0.0,0.0,0.0,0.0,0.0,0.0,0.0,0.0,0.0,0.0,0.0,0.0,0.0,0.0,2.6273,2.6499,2.6499,2.6499,2.6499,2.6427,2.5203,2.4688,2.4601,2.3437,0.0,0.0,0.0,0.0,0.0,0.0,0.0,0.0,0.0,0.0,0.0,0.0,0.0,0.0,0.0,0.0,0.0,0.0,0.0,0.0,0.0,0.0,0.0,0.0,2.7318,2.7817,0.0,0.0,0.0,0.0,0.0,0.0,0.0,0.0,0.0,0.0,0.0,0.0,2.5809,2.6149,2.6356,2.6356,2.6149,2.6038,2.6038,2.583,2.5693,2.5693,2.5693,2.5693,0.0,0.0,0.0,0.0,0.0,0.0,0.0,0.0,0.0,0.0,0.0,0.0,0.0,0.0,0.0,0.0,0.0,0.0,0.0,0.0,0.0,0.0,0.0,0.0,0.0,0.0,0.0,0.0,0.0,0.0,0.0,0.0,2.76,2.76,0.0,0.0,0.0,0.0,0.0,0.0,0.0,0.0,0.0,0.0,0.0,0.0,0.0,2.6965,2.7315,2.7496,2.7196,2.6386,2.6461,2.6499,2.6499,2.6499,2.6499,2.6487,2.6278,0.0,2.6189,2.6012,0.0,0.0,0.0,0.0,0.0,0.0,0.0,0.0,0.0,0.0,0.0,0.0,0.0,0.0,0.0,0.0,0.0,0.0,0.0,0.0,0.0,0.0,2.8609,2.9155,2.8679,2.8335,0.0,2.768,2.6265,2.6265,2.6652,0.0,0.0,0.0,0.0,0.0,0.0,0.0,2.8666,2.8891,2.8901,2.8901,2.7968,2.7363,2.7363,2.6342,2.5693,2.5693,2.5693,2.5693,2.5693,2.5659,0.0,0.0,0.0,0.0,0.0,0.0,0.0,0.0,0.0,0.0,0.0,0.0,0.0,0.0,0.0,0.0,0.0,0.0,0.0,0.0,0.0,0.0,0.0,0.0,0.0,0.0,0.0,0.0,0.0,2.76,2.775,2.8126,2.8156,2.8017,0.0,0.0,0.0,0.0,0.0,0.0,0.0,0.0,0.0,2.8619,2.8742,2.8443,2.7703,2.8198,2.7786,2.6516,2.6956,2.6939,2.6521,2.6973,2.6922,2.6499,2.6499,2.6499,2.6499,2.6499,2.6499,2.6452,0.0,0.0,0.0,0.0,2.482,2.4427,2.4981,2.482,0.0,2.4337,0.0,0.0,0.0,0.0,0.0,0.0,0.0,0.0,0.0,0.0,2.8682,2.9581,2.9417,2.9283,3.0083,2.9493,2.86,0.0,2.7733,2.7269,2.6122,0.0,0.0,0.0,0.0,2.8578,2.9316,2.9407,2.9407,2.9407,2.8935,2.8611,2.8611,2.7471,2.6778,2.6778,2.611,2.5693,2.5693,2.5693,2.562,0.0,0.0,0.0,0.0,0.0,0.0,0.0,0.0,0.0,0.0,0.0,0.0,0.0,0.0,0.0,0.0,0.0,0.0,0.0,0.0,0.0,0.0,0.0,0.0,0.0,0.0,0.0,0.0,2.7869,2.8096,2.8771,2.8859,2.8811,0.0,0.0,0.0,0.0,0.0,0.0,2.9842,2.9147,2.9011,2.9614,3.0072,2.9675,2.8379,2.9018,2.8588,2.7145,2.7753,2.7666,2.7024,2.7643,2.7548,2.6914,2.6914,2.6914,2.6901,2.6612,2.6499,2.6499,2.6499,2.6499,2.6499,2.6499,2.6111,2.57,2.6457,2.6304,2.5798,2.5798,2.5895,2.5894,2.5256,0.0,0.0,0.0,0.0,2.6725,2.816,2.8537,2.8784,2.9779,3.0005,3.0143,3.0696,3.0667,3.0347,0.0,2.9256,2.8652,2.7535,0.0,0.0,0.0,0.0,2.9977,3.0294,3.0339,3.0339,3.0339,3.0067,2.9863,2.9863,2.8471,2.7589,2.7589,2.6404,2.5693,2.5693,2.5693,2.5693,2.5693,0.0,0.0,0.0,0.0,0.0,0.0,0.0,0.0,0.0,0.0,0.0,0.0,0.0,0.0,0.0,0.0,0.0,0.0,0.0,0.0,0.0,0.0,0.0,0.0,0.0,0.0,0.0,0.0,0.0,2.9473,2.9548,0.0,0.0,0.0,0.0,3.0391,3.0989,3.1348,3.1393,3.063,3.057,3.1351,3.0673,3.0269,3.0178,3.0208,2.9781,2.8876,2.8923,2.876,2.8413,2.8433,2.8291,2.8021,2.8021,2.8021,2.7946,2.6909,2.6499,2.6499,2.6499,2.6499,2.6499,2.6499,2.6791,2.719,2.7243,2.7564,2.7936,2.7936,2.7317,2.663,2.7027,2.6498,0.0,0.0,2.7968,2.8251,2.9404,2.9702,2.9859,3.0437,3.055,3.0701,3.1235,3.0872,3.0567,0.0,3.1664,3.1593,3.0402,0.0,3.1064,3.0998,3.1066,3.1545,3.2754,3.2918,3.2918,3.2918,3.1821,3.1112,3.1112,2.8947,2.7589,2.7589,2.6404,2.5693,2.5693,2.5693,2.5693,2.5693,2.5689,0.0,0.0,0.0,0.0,0.0,0.0,0.0,0.0,0.0,0.0,0.0,0.0,0.0,0.0,0.0,0.0,0.0,0.0,0.0,0.0,0.0,0.0,0.0,0.0,0.0,0.0,0.0,0.0,3.0103,3.0192,0.0,3.0777,3.1031,3.1137,3.1137,3.1361,3.1511,3.1511,3.1234,3.1205,3.1496,3.1219,3.0822,3.0314,3.0689,3.0458,2.9647,3.0614,3.0732,3.0115,3.0031,2.9621,2.8965,2.8357,2.8109,2.8072,2.77,2.7537,2.7537,2.7537,2.7537,2.7537,2.7537,2.7645,2.7808,2.7808,2.7946,2.816,2.8493,2.8369,2.8174,2.8741,2.8668,2.8477,2.9037,2.9197,2.9275,2.9682,3.0055,3.0369,3.055,3.0851,3.126,3.18,3.1729,3.1734,3.2377,3.1994,3.1409,3.0981,3.1743,3.214,3.1311,3.1887,3.259,3.3047,3.3102,3.3102,3.3102,3.2677,3.2096,3.1267,2.9704,2.8425,2.766,2.6404,2.5693,2.5693,2.5693,2.5693,2.5693,2.5693,2.5693,0.0,0.0,0.0,0.0,0.0,0.0,0.0,0.0,0.0,0.0,0.0,0.0,0.0,0.0,0.0,0.0,0.0,0.0,0.0,0.0,0.0,0.0,0.0,0.0,0.0,2.9624,3.0133,3.0762,3.0837,3.1017,3.1466,3.1511,3.1511,3.1511,3.1511,3.1511,3.1511,3.1511,3.16,3.1824,3.1839,3.1693,3.1376,3.1785,3.1711,3.119,3.216,3.2304,3.1701,3.1618,3.1038,3.0032,2.9421,2.8983,2.8674,2.8674,2.8674,2.8637,2.826,2.8109,2.8109,2.8109,2.8204,2.8392,2.8612,2.8674,2.8737,2.9082,2.9195,2.927,2.9679,2.9792,2.9792,2.9792,2.993,3.0068,3.0068,3.047,3.0922,3.109,3.1424,3.1813,3.2378,3.2503,3.2616,3.3027,3.2426,3.1843,3.1843,3.2534,3.2819,3.1965,3.2568,3.3102,3.3102,3.3102,3.3102,3.3102,3.3102,3.2776,3.1909,3.0339,2.9062,2.8272,2.6644,2.5693,2.5693,2.5693,2.5693,2.5693,2.5693,2.5693,2.5693,0.0,0.0,0.0,0.0,0.0,0.0,0.0,0.0,0.0,0.0,0.0,0.0,0.0,0.0,0.0,0.0,0.0,0.0,0.0,0.0,0.0,0.0,0.0,3.0507,3.0522,3.0762,3.1421,3.1511,3.1511,3.1511,3.1511,3.1511,3.1511,3.1511,3.1511,3.1525,3.1525,3.1839,3.2512,3.2527,3.2841,3.3484,3.3514,3.3529,3.3529,3.3544,3.3435,3.3163,3.3146,3.2447,3.1278,3.1236,3.0677,2.985,2.9811,2.9792,2.9679,2.8586,2.816,2.816,2.816,2.848,2.9019,2.9591,2.9792,2.9792,2.9792,2.9792,2.9792,2.9792,2.9792,2.9792,2.9817,3.0206,3.06,3.0613,3.1022,3.157,3.2089,3.2206,3.239,3.2977,3.3102,3.3102,3.3102,3.3102,3.3102,3.3102,3.3102,3.3102,3.3102,3.3102,0.0,3.3102,3.3102,3.3102,3.3102,3.3068,3.3047,3.3047,3.0777,2.9338,2.9338,2.7044,2.5693,2.5693,2.5693,2.5693,2.5693,2.5693,2.5693,2.5693,0.0,0.0,0.0,0.0,0.0,0.0,0.0,0.0,0.0,0.0,0.0,0.0,0.0,0.0,0.0,0.0,0.0,0.0,0.0,0.0,0.0,3.0792,3.1061,3.0567,3.0927,3.1286,3.1481,3.1511,3.1511,3.1511,3.1511,3.1511,3.1511,3.1511,3.1705,3.2198,3.2228,3.2527,3.32,3.323,3.3305,3.3499,3.3979,3.4218,3.4233,3.4711,3.4912,3.4815,3.4097,3.3565,3.3154,3.1779,3.1063,3.0758,3.0075,2.9792,2.9767,2.9453,2.9327,2.9327,2.9327,2.9428,2.9578,2.9741,2.9792,2.9792,2.9792,2.9792,2.9792,2.9792,2.9792,2.988,3.0281,3.0487,3.0688,3.1085,3.1587,3.2026,3.2156,3.2528,3.2901,3.3065,3.3102,3.3102,3.3102,3.3102,3.3102,3.3102,3.3102,3.3102,3.3102,3.3102,0.0,3.3102,3.3102,3.3102,3.3102,3.2261,3.1721,3.1721,2.9498,2.8085,2.8085,2.6596,2.5693,2.5693,2.5693,2.5693,2.5693,2.5693,2.5693,0.0,0.0,0.0,0.0,0.0,0.0,0.0,0.0,0.0,0.0,0.0,0.0,0.0,0.0,0.0,0.0,0.0,0.0,0.0,0.0,0.0,0.0,3.1241,3.1361,3.0972,3.1256,3.1511,3.1511,3.1511,3.1511,3.1511,3.1511,3.1511,3.1511,3.1765,3.2093,3.2482,3.2781,3.323,3.3904,3.3919,3.4038,3.4337,3.4711,3.4922,3.4922,3.531,3.5504,3.5488,3.4889,3.4177,3.3345,3.2267,3.1347,3.0576,3.0017,2.9792,0.0,0.0,0.0,0.0,0.0,2.9792,2.9792,2.9792,2.9792,2.9792,2.9792,2.9792,2.9829,3.0068,3.0143,3.0244,3.0783,3.111,3.1341,3.165,3.2152,3.2579,3.2579,3.283,3.3102,3.3102,3.3102,3.3102,3.3102,3.3102,0.0,3.3102,3.3102,3.3102,3.3102,3.3102,3.3102,3.3102,3.3102,3.3102,3.3102,3.1965,3.1201,3.1201,2.9004,0.0,0.0,0.0,2.5693,2.5693,2.5693,0.0,0.0,0.0,2.5693,2.5693,0.0,0.0,0.0,2.5591,2.515,0.0,0.0,0.0,0.0,0.0,0.0,0.0,0.0,0.0,0.0,0.0,0.0,0.0,0.0,0.0,0.0,3.1511,3.1511,3.1511,3.1511,3.1511,3.1511,3.1511,3.1511,3.1511,3.157,3.1615,3.1615,3.2228,3.2647,3.2721,0.0,0.0,0.0,0.0,3.4907,3.5489,3.5504,3.5504,3.5504,3.5504,3.5504,3.5504,3.5375,3.4392,3.2749,3.2646,3.1586,2.9972,2.9972,2.9895,2.9792,2.9792,2.9792,2.9792,2.9792,2.9792,2.9792,2.9792,0.0,0.0,2.9792,2.9829,2.998,3.047,3.0638,3.0789,3.1336,3.1838,3.2206,3.229,3.2692,3.3102,3.3102,3.3102,3.3102,3.3102,3.3102,3.3102,3.3102,3.3102,3.3102,3.3102,3.3102,3.3102,3.3102,3.3102,3.3102,3.3102,3.3102,3.3102,3.3102,0.0,0.0,3.1201,2.8866,2.7447,2.7589,2.6404,2.5693,2.5693,2.5693,2.5693,2.5693,2.5693,2.5693,2.5693,2.5693,2.5693,2.5693,2.5693,2.5693,0.0,0.0,0.0,0.0,0.0,0.0,0.0,0.0,0.0,0.0,0.0,0.0,0.0,0.0,0.0,3.1481,3.1511,3.1511,3.1511,3.1511,3.1511,3.1511,3.1511,3.1511,3.1511,3.1989,3.2318,3.2318,3.2931,3.3529,3.4084,3.4233,3.4622,3.5295,3.531,3.537,3.5504,3.5504,3.5504,3.5504,0.0,0.0,3.5472,3.4675,3.4078,3.3688,3.2943,3.196,3.0932,3.0932,3.0482,2.9792,2.9792,2.9792,2.9792,2.9792,2.9792,2.9792,2.9792,2.9792,2.9792,2.9792,3.0093,3.045,3.0563,3.0909,0.0,3.1901,3.2127,3.2315,3.2792,3.3014,3.3102,3.3102,3.3102,3.3102,3.3102,3.3102,3.3102,3.3102,3.3102,3.3102,3.3102,3.3102,3.3102,3.3102,3.3102,3.3102,3.3102,3.3102,3.3102,3.3102,3.1101,3.0147,3.1134,2.8051,2.65,2.7542,2.6404,2.5693,2.5693,2.5693,2.5693,2.5693,2.5693,2.5693,2.5693,2.5693,2.5693,2.5693,2.5693,2.5693,0.0,0.0,0.0,0.0,0.0,0.0,0.0,0.0,0.0,0.0,0.0,3.0612,3.0942,0.0,3.1511,3.1511,3.1511,3.1511,3.1511,3.1511,3.1511,3.1511,3.1511,3.163,3.1974,3.2303,3.2632,3.2976,3.3619,3.4143,3.4473,3.4817,3.5145,3.5489,3.5504,3.5504,3.5504,3.5504,3.5504,3.5504,3.5504,3.5504,3.5472,3.4461,3.401,3.3959,3.3013,3.2069,3.1161,3.0696,3.0222,2.9792,2.9792,2.9792,2.9792,2.9792,2.9792,2.9792,2.9792,2.9792,2.9842,3.0118,3.0374,3.0701,3.124,3.1599,3.1913,3.2491,3.2641,3.2717,3.3027,3.3102,3.3102,3.3102,3.3102,3.3102,3.3102,3.3102,3.3102,3.3102,3.3102,3.3102,3.3102,3.3102,3.3102,3.3102,3.3102,3.3102,3.3102,3.3102,3.3102,3.3102,3.1412,3.0294,3.0294,2.7484,2.5965,2.662,2.6062,2.5693,2.5693,2.5693,2.5693,2.5693,2.5693,2.5693,2.5693,2.5693,2.5693,2.5693,2.5693,2.5693,0.0,0.0,0.0,0.0,0.0,0.0,0.0,2.8697,2.9116,3.0268,3.0612,3.0852,3.1406,3.1511,3.1511,3.1511,3.1511,3.1511,3.1511,3.1511,3.1555,3.1675,3.169,3.1914,3.2452,3.2736,3.311,3.3664,3.4323,3.4682,3.4682,3.5205,3.5504,3.5504,3.5504,3.5504,3.5504,3.5504,3.5504,3.5504,3.5504,3.5504,3.5472,3.4461,3.401,3.3927,3.282,3.1906,3.1124,3.0196,2.9854,2.9955,2.9955,3.0018,3.01,2.9867,2.9792,2.9804,2.9917,2.9955,3.0043,3.0583,3.0834,3.1065,3.193,3.229,3.2478,3.2964,3.3102,3.3102,3.3102,3.3102,3.3102,3.3102,3.3102,3.3102,3.3102,3.3102,3.3102,3.3102,3.3102,3.3102,3.3102,3.3102,3.3102,3.3102,3.3102,3.3102,3.3102,3.3102,3.3102,3.3102,3.1965,3.0631,2.9177,2.6982,2.5693,2.5693,2.5693,2.5693,2.5693,2.5693,2.5693,2.5693,2.5693,2.5693,2.5693,2.5693,2.5693,2.5693,2.5693,2.5693,2.76,2.76,2.76,2.76,2.76,2.7779,0.0,2.9069,2.9683,3.0357,3.0972,3.1406,3.1496,3.1511,3.1511,3.1511,3.1511,3.1511,3.1511,3.1511,3.172,3.2318,3.2392,3.2422,3.2482,3.359,3.4308,3.4383,3.5012,3.5385,3.5385,3.5459,3.5504,3.5504,3.5504,3.5504,3.5504,3.5504,3.5504,3.5504,3.5504,3.5504,3.5472,3.4461,3.401,3.3893,3.2141,3.1296,3.1124,3.0196,3.008,3.05,3.05,3.0809,3.1117,3.0143,2.9792,2.9867,3.0357,3.05,3.0588,3.1135,3.1637,3.2031,3.2156,3.2566,3.3014,3.3077,3.3102,3.3102,3.3102,3.3102,3.3102,3.3102,3.3102,3.3102,3.3102,3.3102,3.3102,3.3102,3.3102,3.3102,3.3102,3.3102,3.3102,3.3102,3.3102,3.3102,3.3102,3.3102,3.3102,3.3102,3.1965,3.0271,2.8002,2.65,2.5693,2.5693,2.5693,2.5693,2.5693,2.5693,2.5693,2.5693,2.5693,2.5693,2.5693,2.5693,2.5693,2.5693,2.5693,2.5693,2.76,2.76,2.76,2.76,2.7899,2.8366,2.9039,2.9683,3.0313,3.0957,3.1301,3.1511,3.1511,3.1511,3.1511,3.1511,3.1511,3.1511,3.1511,3.1511,3.175,3.2422,3.2841,3.3245,3.3634,3.4173,3.4652,3.504,3.534,3.5504,3.5504,3.5504,3.5504,3.5504,3.5504,3.5504,3.5504,3.5504,3.5504,3.5504,3.5504,3.5504,3.5487,3.4855,3.4447,3.4153,3.2745,3.2125,3.2049,3.1132,3.0859,3.1072,3.1072,3.1198,3.1356,3.0904,3.0721,3.0758,3.0984,3.1072,3.1148,3.1687,3.2026,3.2277,3.2616,3.2901,3.3102,3.3102,3.3102,3.3102,3.3102,3.3102,3.3102,3.3102,3.3102,3.3102,3.3102,3.3102,3.3102,3.3102,3.3102,3.3102,3.3102,3.3102,3.3102,3.3102,3.3102,3.3102,3.3102,3.3102,3.3102,3.3102,3.1965,3.0788,2.9784,2.7921,2.6802,2.6802,2.611,2.5693,2.5693,2.5693,2.5693,2.5693,2.5693,2.5693,2.5693,2.5693,2.5693,2.5693,2.5693,2.5693,2.76,2.76,2.76,2.76,2.8096,2.8771,2.9443,3.0072,3.0687,3.1361,3.1511,3.1511,3.1511,3.1511,3.1511,3.1511,3.1511,3.1511,3.1511,3.1511,3.1809,3.2662,3.32,3.3829,3.4697,3.4772,3.4982,3.5474,3.5504,3.5504,3.5504,3.5504,3.5504,3.5504,3.5504,3.5594,3.5774,3.5774,3.5863,3.6028,3.6028,3.6028,3.601,3.5499,3.4934,3.4346,3.3272,3.2653,3.2349,3.1678,3.1486,3.1625,3.1625,3.1712,3.1871,3.1871,3.1683,3.1411,3.1562,3.1625,3.1712,3.2265,3.2453,3.2528,3.2977,3.3102,3.3102,3.3102,3.3102,3.3102,3.3102,3.3102,3.3102,3.3102,3.3102,3.3102,3.3102,3.3102,3.3102,3.3102,3.3102,3.3102,3.3102,3.3102,3.3102,3.3102,3.3102,3.3102,3.3102,3.3102,3.3102,3.3102,3.1965,3.1201,3.1201,2.9004,2.7589,2.7589,2.6404,2.5693,2.5693,2.5693,2.5693,2.5693,2.5693,2.5693,2.5693,2.5693,2.5693,2.5693,2.5693,2.5693,2.76,2.76,2.76,2.76,2.8096,2.8771,2.9443,3.0072,3.0687,3.1361,3.1511,3.1511,3.1511,3.1511,3.1511,3.1511,3.1511,3.1511,3.1511,3.1511,3.1989,3.3305,3.3484,3.4023,3.534,3.5474,3.5489,3.5504,3.5504,3.5504,3.5504,3.5504,3.5504,3.5504,3.5504,3.5804,3.6464,3.6479,3.6761,3.7327,3.7327,3.7327,3.731,3.6323,3.5324,3.4346,3.3272,3.2283,3.1447,3.1406,3.17,3.219,3.219,3.2528,3.3052,3.3052,3.2349,3.1461,3.2001,3.219,3.2256,3.2889,3.3077,3.3077,3.309,3.3102,3.3102,3.3102,3.3102,3.3102,3.3102,3.3102,3.3102,3.3102,3.3102,3.3102,3.3102,3.3102,3.3102,3.3102,3.3102,3.3102,3.3102,3.3102,3.3102,3.3102,3.3102,3.3102,3.3102,3.3102,3.3102,3.3102,3.1965,3.1201,3.1201,2.9004,2.7589,2.7589,2.6404,2.5693,2.5693,2.5693,2.5693,2.5693,2.5693,2.5693,2.5693,2.5693,2.5693,2.5693,2.5693,2.5693,2.76,2.76,2.7705,2.8156,2.877,2.9428,3.0043,3.0702,3.1227,3.1451,3.1511,3.1511,3.1511,3.1511,3.1511,3.1511,3.1511,3.1511,3.1511,3.1511,3.1989,3.3335,3.3499,3.4023,3.537,3.5504,3.5504,3.5504,3.5504,3.5504,3.5504,3.5504,3.5504,3.5504,3.5923,3.6267,3.6508,3.6896,3.721,3.7387,3.7387,3.7253,3.6964,3.5961,3.5162,3.454,3.3462,3.2827,3.2537,3.2537,3.2638,3.2801,3.2801,3.2927,3.3102,3.3102,3.2851,3.255,3.2717,3.2801,3.2839,3.304,3.3102,3.3102,3.3102,3.3102,3.3102,3.3102,3.3102,3.3102,3.3102,3.3102,3.3102,3.3102,3.3102,3.3102,3.3102,3.3102,3.3102,3.3102,3.3102,3.3102,3.3102,3.3102,3.3102,3.3102,3.3102,3.3102,3.3102,3.3102,3.3102,3.3102,3.272,3.2447,3.2447,3.0215,2.8796,2.8796,2.6839,2.5693,2.5693,2.5693,2.5693,2.5693,2.5693,2.5693,2.5693,2.5693,2.5693,2.5693,2.5693,2.5693,2.76,2.76,2.7764,2.8427,2.9099,2.9758,3.0357,3.1031,3.1511,3.1511,3.1511,3.1511,3.1511,3.1511,3.1511,3.1511,3.1511,3.1511,3.1511,3.1511,3.1989,3.3335,3.3499,3.4023,3.537,3.5504,3.5504,3.5504,3.5504,3.5504,3.5504,3.5504,3.5609,3.5848,3.6284,3.6718,3.7182,3.7554,3.7694,3.7532,3.7532,3.74,3.7121,3.6104,3.5473,3.517,3.3713,3.3102,3.3102,3.3102,3.3102,3.3102,3.3102,3.3102,3.3102,3.3102,3.3102,3.3102,3.3102,3.3102,3.3102,3.3102,3.3102,3.3102,3.3102,3.3102,3.3102,3.3102,3.3102,3.3102,3.3102,3.3102,3.3102,3.3102,3.3102,3.3102,3.3102,3.3102,3.3102,3.3102,3.3102,3.3102,3.3102,3.3102,3.3102,3.3102,3.3102,3.3102,3.3102,3.3102,3.3102,3.3102,3.3102,3.3102,3.3102,3.0822,2.9407,2.9407,2.7067,2.5693,2.5693,2.5693,2.5693,2.5693,2.5693,2.5693,2.5693,2.5693,2.5693,2.5693,2.5693,2.5693,2.76,2.76,2.7764,2.8427,2.9099,2.9758,3.0357,3.1031,3.1511,3.1511,3.1511,3.1511,3.1511,3.1511,3.1511,3.1511,3.1511,3.1511,3.1511,3.1511,3.1989,3.3335,3.3499,3.4023,3.537,0.0,3.5504,3.5504,3.5504,3.5504,3.5504,3.5518,3.5833,3.6479,3.6568,3.7182,3.8395,3.8422,3.8256,3.7866,3.7866,3.7829,3.7682,3.6663,3.6138,3.5934,3.3961,3.3102,3.3102,3.3102,3.3102,3.3102,3.3102,3.3102,3.3102,3.3102,3.3102,3.3102,3.3102,3.3102,3.3102,3.3102,3.3102,3.3102,3.3102,3.3102,3.3102,3.3102,3.3102,3.3102,3.3102,3.3102,3.3102,3.3102,3.3102,3.3102,3.3102,3.3102,3.3102,3.3102,3.3102,3.3102,3.3102,3.3102,3.3102,3.3102,3.3102,3.3102,3.3102,3.3102,3.3102,3.3102,3.3102,3.3068,3.3004,3.0799,2.9361,2.9315,2.7044,2.5693,2.5693,2.5693,2.5693,2.5693,2.5693,2.5693,2.5693,2.5693,2.5693,2.5693,2.5693,2.5693,2.76,2.76,2.7764,2.8427,2.9099,2.9758,3.0357,3.1031,3.1511,3.1511,3.1511,3.1511,3.1511,3.1511,3.1511,3.1511,3.1511,3.1511,3.1511,3.1511,3.1989,3.3335,3.3499,3.4023,3.537,3.5504,3.5504,3.5504,3.5504,3.5504,3.5504,3.5968,3.6312,3.6493,3.7422,3.808,3.8409,3.8901,3.9086,3.898,3.898,3.8148,3.6585,3.6316,3.5366,3.3856,3.3334,3.3102,3.3102,3.3102,3.3102,3.3102,3.3102,3.3102,3.3102,3.3102,3.3102,3.3102,3.3102,3.3102,3.3102,3.3102,3.3102,3.3102,3.3102,3.3102,3.3102,3.3102,3.3102,3.3102,3.3102,3.3102,3.3102,3.3102,3.3102,3.3102,3.3102,3.3102,3.3102,3.3102,3.3102,3.3102,3.3102,3.3102,3.3102,3.3102,3.3102,3.3102,3.3102,3.3102,3.3102,3.3102,3.3102,3.272,3.1777,3.0271,2.9027,2.8119,2.6572,2.5693,2.5693,2.5693,2.5693,2.5693,2.5693,2.5693,2.5693,2.5693,2.5693,2.5693,2.5693,2.5693,2.76,2.76,2.7764,2.8427,2.9099,2.9758,3.0357,3.1031,3.1511,3.1511,3.1511,3.1511,3.1511,3.1511,3.1511,3.1511,3.1511,3.1511,3.1511,3.1511,3.1989,3.3335,3.3499,3.4023,3.537,3.5504,3.5504,3.5504,3.5504,3.5504,3.5504,3.6133,3.6628,3.6881,3.7868,3.8542,3.8841,3.8751,3.8457,3.8003,3.8476,3.7587,3.5547,3.6013,3.5325,3.3776,0.0,3.3102,3.3102,3.3102,3.3102,3.3102,3.3102,3.3102,3.3102,3.3102,3.3102,3.3102,3.3102,3.3102,3.3102,3.3102,3.3102,3.3102,3.3102,3.3102,3.3102,3.3102,3.3102,3.3102,3.3102,3.3102,3.3102,3.3102,3.3102,3.3102,3.3102,3.3102,3.3102,3.3102,3.3102,3.3102,3.3102,3.3102,3.3102,3.3102,3.3102,3.3102,3.3102,3.3102,3.3102,3.3102,3.3102,3.2578,3.1311,3.009,2.8889,2.7683,2.6404,2.5693,2.5693,2.5693,2.5693,2.5693,2.5693,2.5693,2.5693,2.5693,2.5693,2.5693,2.5693,2.5693,2.76,2.76,2.775,2.8321,2.9039,2.9743,3.0253,3.0972,3.1511,3.1511,3.1511,3.1511,3.1511,3.1511,3.1511,3.1511,3.1511,3.1511,3.1511,3.1511,3.1959,3.3215,3.344,3.3993,3.525,3.5444,3.5504,3.5504,3.5504,3.5549,3.5624,3.6252,3.6941,3.7642,3.8227,3.8811,3.9391,3.8345,3.7324,3.6428,3.7214,3.6568,3.4725,3.5608,3.546,3.4449,3.3492,3.3102,3.3102,3.3102,3.3102,3.3102,3.3102,3.3102,3.3102,3.3102,3.3102,3.3102,3.3102,3.3102,3.3102,3.3102,3.3102,3.3102,3.3102,3.3102,3.3102,3.3102,3.3102,3.3115,3.319,3.3203,3.3228,3.3303,3.3316,3.3316,3.3316,3.3316,3.3291,3.3228,3.3203,3.3178,3.3115,3.3102,3.3102,3.3102,3.3102,3.3102,3.3102,3.3102,3.3102,3.3102,3.3102,3.2578,3.1311,3.009,2.8889,2.7683,2.6404,2.5693,2.5693,2.5693,2.5693,2.5693,2.5693,2.5693,2.5693,2.5693,2.5693,2.5693,2.5693,2.5693,2.76,2.76,2.763,2.775,2.8693,2.9636,2.9728,3.0658,3.1511,3.1511,3.1511,3.1511,3.1511,3.1511,3.1511,3.1511,3.1511,3.1511,3.1511,3.1511,3.1795,3.2572,3.3155,3.3814,3.4592,3.5175,3.5504,3.5504,3.5504,3.5744,3.6314,3.6911,3.7791,3.9017,3.9167,3.9272,3.9406,3.8345,3.7715,3.751,3.6813,3.5848,3.4705,3.4877,3.4387,3.3377,3.3176,0.0,3.3102,3.3102,3.3102,3.3102,3.3102,3.3102,3.3102,3.3102,3.3102,3.3102,3.3102,3.3102,3.3102,3.3102,3.3102,3.3102,3.3102,3.3102,3.3102,3.3102,3.3102,3.3203,3.3655,3.3759,3.3872,3.4324,3.4414,3.4414,3.4414,3.4414,3.4276,3.3847,3.3759,3.3608,3.3178,3.3102,3.3102,3.3102,3.3102,3.3102,3.3102,3.3102,3.3102,3.3102,3.3102,3.2578,3.1311,3.009,2.8889,2.7683,2.6404,2.5693,2.5693,2.5693,2.5693,2.5693,2.5693,2.5693,2.5693,2.5693,2.5693,2.5693,2.5693,2.5693,2.76,2.76,2.76,2.76,2.8351,2.9084,2.9084,3.0073,3.0987,3.0987,3.1256,3.1511,3.1511,3.1511,3.1511,3.1511,3.1511,3.1511,3.1511,3.1511,3.175,3.2422,3.3095,3.3769,3.4428,3.51,3.5504,3.5504,3.5504,3.5789,3.6464,3.7389,3.8377,3.9376,3.9406,3.9406,3.9406,3.8345,3.7529,3.6963,3.6448,3.5386,3.389,3.4449,3.4108,3.3102,3.3102,3.3102,3.3102,3.3102,3.3102,3.3102,3.3102,3.3102,3.3102,3.3102,3.3102,3.3102,3.3102,3.3102,3.3102,3.3102,3.3102,3.3102,3.3102,3.3291,3.353,3.353,3.3709,3.3985,3.4261,3.4324,3.4377,3.464,3.4703,3.4703,3.4703,3.4703,3.4615,3.4374,3.4324,3.4226,3.3985,3.3935,3.3834,3.3567,3.353,3.3416,3.314,3.3102,3.3102,3.3102,3.3102,3.2578,3.1311,3.009,2.8889,2.7683,2.6404,2.5693,2.5693,2.5693,2.5693,2.5693,2.5693,2.5693,2.5693,2.5693,2.5693,2.5693,2.5693,2.5693,2.76,2.76,2.76,2.76,2.8096,2.8607,2.8607,2.949,3.0313,3.0313,3.0837,3.1286,3.1286,3.1406,3.1511,3.1511,3.1511,3.1511,3.1511,3.1511,3.1705,3.2228,3.3006,3.3724,3.4233,3.5011,3.5504,3.5504,3.5759,3.6148,3.6656,3.7898,3.8856,3.9391,3.9406,3.9406,3.9406,3.8107,3.704,3.6178,3.5754,3.4678,3.3133,3.3974,3.389,3.3102,3.3102,3.3102,3.3102,3.3102,3.3102,3.3102,3.3102,3.3102,3.3102,3.3102,3.3102,3.3102,3.3102,3.3102,3.3115,3.3241,3.3278,3.3278,3.3278,3.3655,3.4073,3.4073,3.4364,3.4728,3.4841,3.4879,3.4904,3.5029,3.5054,3.5054,3.5054,3.5054,3.5039,3.4904,3.4879,3.4841,3.4715,3.4703,3.4552,3.4135,3.4073,3.3922,3.3504,3.3341,3.3278,3.3278,3.3178,3.2677,3.1677,3.0496,2.9269,2.8073,2.6802,2.5965,2.5708,2.5693,2.5693,2.5693,2.5693,2.5693,2.5693,2.5693,2.5693,2.5693,2.5693,2.5693,2.76,2.76,2.76,2.76,2.8096,2.8607,2.8607,2.9159,2.9683,2.9683,3.0163,3.0597,3.0597,3.1091,3.1511,3.1511,3.1511,3.1511,3.1511,3.1511,3.1525,3.1585,3.2721,3.3514,3.3589,3.4756,3.5504,3.5504,3.6582,3.7255,3.7315,3.8569,3.9331,3.9406,3.9406,3.9406,3.9406,3.7367,3.631,3.6178,3.429,3.327,3.3102,3.3197,3.3197,3.3102,3.3102,3.3102,0.0,3.3102,3.3102,3.3102,3.3102,3.3102,3.3102,3.3102,3.3102,3.3102,3.3102,3.3102,3.3178,3.3658,3.3822,3.3822,3.3822,3.4211,3.4628,3.4628,3.4653,3.4816,3.5295,3.542,3.5545,3.6117,3.623,3.623,3.623,3.623,3.608,3.5544,3.542,3.5257,3.4778,3.4703,3.4678,3.4628,3.4628,3.4603,3.4552,3.4135,3.3822,3.3822,3.3391,3.3047,3.2939,3.1755,3.0519,2.9315,2.8085,2.6921,2.5757,2.5693,2.5693,2.5693,2.5693,2.5693,2.5693,2.5693,2.5693,2.5693,2.5693,2.5693,2.76,2.76,2.76,2.76,2.7809,2.7991,2.7991,2.8515,2.9009,2.9009,2.9505,3.0058,3.0432,3.0717,3.1031,3.1436,3.1511,3.1511,3.1511,3.1511,3.1511,3.1511,3.2333,3.3066,3.3455,3.4353,3.5071,3.5474,3.6686,3.7387,3.7387,3.8673,3.9406,3.9406,3.9406,3.9406,3.9406,3.7257,3.6198,3.6158,3.4095,3.3102,3.3102,3.3102,3.3102,3.3102,3.3102,3.3102,0.0,3.3102,3.3102,3.3102,3.3102,3.3102,3.3102,3.3102,3.3102,3.3102,3.3102,3.3316,3.3608,3.3822,3.4327,3.4803,3.4477,3.4753,3.5169,3.5169,3.5431,3.5755,3.5981,3.6031,3.6094,3.6331,3.6405,3.6405,3.6405,3.6405,3.6318,3.6081,3.6031,3.5968,3.5766,3.5728,3.5592,3.5242,3.5169,3.5056,3.4741,3.4502,3.4377,3.4377,3.3608,3.3102,3.3102,3.1279,2.9909,2.943,2.7555,2.6221,2.5718,2.5693,2.5693,2.5693,2.5693,2.5845,2.6133,2.6133,2.626,2.6479,2.6479,2.6479,2.76,2.76,2.76,2.76,2.76,2.76,2.76,2.7974,2.8306,2.8306,2.8845,2.9443,2.9864,3.0253,3.0643,3.1136,3.1376,3.1511,3.1511,3.1511,3.1511,3.1511,3.2273,3.2976,3.344,3.4293,3.4997,3.5474,3.6686,3.7387,3.7387,3.8673,3.9406,3.9406,3.9086,3.9086,3.9406,3.6982,3.5914,3.6158,3.4095,3.3102,3.3102,3.3102,3.3102,3.3102,3.3102,3.3102,0.0,3.3102,3.3102,3.3102,3.3102,3.3102,3.3102,3.3102,3.3102,3.3128,3.3291,3.3571,3.396,3.4274,3.4891,3.5458,3.5255,3.5479,3.5769,3.5769,3.6056,3.6405,3.6405,3.6405,3.6405,3.6405,3.6405,3.6405,3.6405,3.6405,3.6405,3.6405,3.6405,3.6405,3.6405,3.6405,3.6256,3.582,3.5769,3.5631,3.5253,3.5042,3.4941,3.4941,3.4123,3.3558,3.3558,3.1608,3.0215,2.9867,2.7809,2.6463,2.6089,2.6089,2.6089,2.6089,2.6089,2.6245,2.6572,2.6572,2.6728,2.6986,2.6986,2.7054,2.76,2.76,2.76,2.76,2.76,2.76,2.76,2.7612,2.76,2.76,2.8141,2.8607,2.8622,2.9654,3.0507,3.0507,3.1076,3.1511,3.1511,3.1511,3.1511,3.1511,3.2677,3.3484,3.3499,3.4711,3.5489,3.5504,3.6686,3.7387,3.7387,3.8673,3.9406,3.9406,3.8364,3.8327,3.9388,3.6279,3.5231,3.6158,3.4095,3.3102,3.3102,3.3102,3.3102,3.3102,3.3102,3.3102,0.0,3.3102,3.3102,3.3102,3.3102,3.3102,3.3102,3.3102,3.3102,3.3178,3.3709,3.3897,3.4073,3.5132,3.5495,3.5596,3.6205,3.6405,3.6405,3.6405,3.6405,3.6405,3.6405,3.6405,3.6405,3.6405,3.6405,3.6405,3.6405,3.6405,3.6405,3.6405,3.6405,3.6405,3.6405,3.6405,3.6405,3.6405,3.6405,3.6405,3.6392,3.5845,3.5495,3.5495,3.5017,3.4678,3.4678,3.3453,3.216,3.0959,2.9552,2.8221,2.7053,2.6976,2.6976,2.6976,2.6976,2.6976,2.6986,2.6986,2.7012,2.6986,2.6986,2.7246,2.76,2.76,2.76,2.76,2.76,2.76,2.76,2.76,2.76,2.76,2.7764,2.8051,2.8517,2.9295,3.0027,3.0432,3.1062,3.1511,3.1511,3.1511,3.1511,3.1511,3.2677,3.3499,3.3499,3.4711,3.5504,3.5504,3.6686,3.7387,3.7387,3.8673,3.9406,3.9406,3.9068,3.8708,3.8308,3.6579,3.5547,3.517,3.3755,3.3102,3.3102,3.3102,3.3102,3.3102,3.3102,3.3102,3.3102,3.3102,3.3102,3.3102,3.3102,3.3102,3.3102,3.3102,3.3341,3.3658,3.3847,3.4377,3.5067,3.5382,3.5782,3.6155,3.6331,3.6405,3.6405,3.6405,3.6405,3.6405,3.6405,3.6405,3.6405,3.6405,3.6405,3.6405,3.6405,3.6405,3.6405,3.6405,3.6405,3.6405,3.6405,3.6405,3.6405,3.6405,3.6405,3.6405,3.6405,3.623,3.613,3.613,3.5967,3.5542,3.4766,3.3546,3.2277,3.0982,2.9671,2.8366,2.7063,2.6986,2.6986,2.6986,2.6986,2.7168,2.7487,2.7487,2.7607,2.7891,2.7891,2.7959,2.76,2.76,2.76,2.76,2.76,2.76,2.76,2.76,2.76,2.76,2.76,2.772,2.8141,2.8979,2.9713,3.0102,3.0912,3.1511,3.1511,3.1511,3.16,3.1854,3.2841,3.3589,3.3859,3.4861,3.5504,3.5504,3.6477,3.7165,3.7404,3.8437,3.9155,3.9391,3.8605,3.8073,3.7791,3.5948,3.4925,3.4684,3.362,3.3102,3.3102,3.3102,3.3102,3.3102,3.3102,3.3102,0.0,3.3102,3.3102,3.3102,3.3102,3.3102,3.3128,3.3329,3.3608,3.396,3.4352,3.4941,3.5533,3.5769,3.6081,3.6405,3.6405,3.6405,3.6405,3.6405,3.6405,3.6405,3.6405,3.6405,3.6405,3.6405,3.6405,3.6405,3.6405,3.6405,3.6405,3.6405,3.6405,3.6405,3.6405,3.6405,3.6405,3.6405,3.6405,3.6405,3.6405,3.6405,3.6405,3.6405,3.6405,3.6105,3.5391,3.4177,3.3113,3.2273,3.0497,2.9124,2.8287,2.7765,2.75,2.75,2.75,2.7627,2.7936,2.7936,2.8064,2.8291,2.8291,2.8291,0.0,2.76,2.76,2.76,2.76,2.76,2.76,2.76,0.0,2.76,2.76,2.76,2.766,2.8738,2.9608,2.9653,3.0702,3.1511,3.1511,3.1511,3.175,3.2422,3.3095,3.3769,3.4428,3.51,3.5504,3.5504,3.6118,3.6746,3.7375,3.8033,3.8706,3.9376,3.7329,3.6682,3.7677,3.4705,3.367,3.4573,3.3577,3.3102,3.3102,3.3102,3.3102,0.0,3.3102,3.3102,3.3102,3.3102,3.3102,3.3102,3.3102,3.3102,3.3165,3.3696,3.3922,3.411,3.5132,3.552,3.5669,3.6218,3.6405,3.6405,3.6405,3.6405,3.6405,3.6405,3.6405,3.6405,3.6405,3.6405,3.6405,3.6405,3.6405,3.6405,3.6405,3.6405,3.6405,3.6405,3.6405,3.6405,3.6405,3.6405,3.6405,3.6405,3.6405,3.6405,3.6405,3.6405,3.6405,3.6405,3.6405,3.6405,3.6405,3.5247,3.4508,3.441,3.1912,3.0395,3.0292,2.9006,2.8291,2.8291,2.8291,2.8291,2.8291,2.8291,2.8291,2.8291,2.8291,2.8291,2.76,0.0,2.76,2.76,2.76,2.76,0.0,2.76,2.76,2.76,2.76,2.7764,2.8276,2.9039,2.9743,3.0208,3.0972,3.1511,3.1511,3.1511,3.175,3.2422,3.3095,3.3769,3.4428,3.51,3.5504,3.5504,3.6118,3.6746,3.7375,3.8033,3.8706,3.9376,3.7329,3.633,3.6565,3.5068,3.4037,3.3471,3.3219,3.3102,3.3102,3.3102,3.3102,3.3102,3.3102,3.3102,3.3102,3.3102,3.3102,3.3102,3.3102,3.3102,3.3165,3.3696,3.4161,3.4603,3.5257,3.5794,3.6218,3.6344,3.6405,3.6405,3.6405,3.6405,3.6405,3.6405,3.6405,3.6405,3.6405,3.6405,3.6405,3.6405,3.6405,3.6405,3.6405,3.6405,3.6405,3.6405,3.6405,3.6405,3.6405,3.6405,3.6405,3.6405,3.6405,3.6405,3.6405,3.6405,3.6405,3.6405,3.6405,3.6405,3.6405,3.6108,3.5487,3.4459,3.2769,3.1378,3.0343,2.9006,2.8291,2.8291,2.8291,2.8291,2.8291,2.8291,2.8291,2.8291,2.8291,2.8291,2.7511,2.76,2.76,2.76,2.76,2.76,2.76,2.76,2.76,2.76,2.76,2.7809,2.8472,2.9159,2.9803,3.0402,3.1062,3.1511,3.1511,3.1511,3.163,3.1989,3.2901,3.3649,3.4009,3.4921,3.5504,3.5504,3.5833,3.6432,3.7342,3.7749,3.8392,3.9376,3.7329,3.6198,3.6198,3.4712,3.367,3.3102,3.3102,3.3102,3.3102,3.3102,3.3102,3.3102,3.3102,3.3102,3.3102,3.3102,3.3102,3.3102,3.3102,3.3102,3.319,3.3985,3.4439,3.4816,3.5642,3.6143,3.6405,3.6405,3.6405,3.6405,3.6405,3.6405,3.6405,3.6405,3.6405,3.6405,3.6405,3.6405,3.6405,3.6405,3.6405,3.6405,3.6405,3.6405,3.6405,3.6405,3.6405,3.6405,3.6405,3.6405,3.6405,3.6405,3.6405,3.6405,3.6405,3.6405,3.6405,3.6405,3.6405,3.6405,3.6405,3.6405,3.6085,3.5367,3.3428,3.1977,3.125,2.9329,2.8291,2.8291,2.8291,2.8291,2.8291,2.8291,2.8291,2.8291,2.8291,2.8291,2.7395,2.76,2.76,2.76,2.76,2.76,2.76,2.76,2.76,2.76,2.76,2.7839,2.8607,2.9219,2.9832,3.0552,3.1122,3.1511,3.1511,3.1511,3.1585,3.178,3.2811,3.3574,3.3784,3.4831,3.5504,3.5504,3.5504,3.6028,3.721,3.7342,3.7956,3.9212,3.742,3.6369,3.6198,3.4137,3.3102,3.3102,3.3102,3.3102,3.3102,3.3102,3.3102,3.3102,0.0,0.0,3.3102,3.3102,3.3102,3.3102,3.3102,3.3102,3.3228,3.4289,3.4703,3.4853,3.6004,3.6405,3.6405,3.6405,3.6405,3.6405,3.6405,3.6405,3.6405,3.6405,3.6405,3.6405,3.6405,3.6405,3.6405,3.6405,3.6405,3.6405,3.6405,3.6405,3.6405,3.6405,3.6405,3.6405,3.6405,3.6405,3.6405,3.6405,3.6405,3.6405,3.6405,3.6405,3.6405,3.6405,3.6405,3.6405,3.6405,3.6405,3.6405,3.6405,3.3811,3.2104,3.1709,2.9503,2.8291,2.8291,2.8291,2.8291,2.8291,2.8291,2.8291,2.8291,2.8291,2.8291,2.7395,2.76,2.76,2.76,2.76,2.76,2.76,2.76,2.76,2.76,2.76,2.7974,2.9219,2.9518,2.9982,3.1152,3.1436,3.1511,3.1511,3.1511,3.1914,3.3066,3.3365,3.3948,3.5085,3.5385,3.5504,3.5504,3.5504,3.5833,3.6613,3.712,3.7764,3.8527,3.791,3.7118,3.6217,3.4137,3.3102,3.3102,3.3102,3.3102,3.3102,3.3102,3.3102,3.3102,0.0,3.3102,3.3102,3.3102,3.3102,3.3102,3.3102,3.3102,3.3228,3.4289,3.4703,3.4853,3.6004,3.6405,3.6405,3.6405,3.6405,3.6405,3.6405,3.6405,3.6405,3.6405,3.6405,3.6405,3.6405,3.6405,3.6405,3.6405,3.6405,3.6405,3.6405,3.6405,3.6405,3.6405,3.6405,3.6405,3.6405,3.6405,3.6405,3.6405,3.6405,3.6405,3.6405,3.6405,3.6405,3.6405,3.6405,3.6405,3.6405,3.6405,3.6405,3.6405,3.3811,3.1276,2.9006,2.8521,2.8291,2.8291,2.8291,2.8291,2.8291,2.8291,2.8291,2.8291,2.8291,2.8291,2.7293,2.76,2.76,2.76,2.76,2.76,2.76,2.76,2.76,2.76,2.7899,2.844,2.9413,2.9877,3.0402,3.1346,3.1511,3.1511,3.1511,3.1511,3.1854,3.2841,3.3275,3.3873,3.4862,3.5295,3.5504,3.5504,3.5504,3.5789,3.6464,3.6549,3.7151,3.8362,3.745,3.6702,3.6198,3.4712,3.367,3.3102,3.3102,3.3102,3.3102,3.3102,3.3102,3.3102,0.0,3.3102,3.3102,3.3102,3.3102,3.3102,3.3102,3.3102,3.3228,3.4289,3.5102,3.5703,3.6205,3.6405,3.6405,3.6405,3.6405,3.6405,3.6405,3.6405,3.6405,3.6405,3.6405,3.6405,3.6405,3.6405,3.6405,3.6405,3.6405,3.6405,3.6405,3.6405,3.6505,3.6771,3.6833,3.6921,3.7223,3.7273,3.7273,3.7273,3.7273,3.7273,3.7273,3.7273,3.7273,3.7273,3.7273,3.7273,3.7273,3.7273,3.672,3.5404,3.3428,3.1549,2.9844,2.9018,2.874,2.9002,2.9012,2.9012,2.9012,2.9012,2.9012,2.9012,2.9012,2.9012,2.6995,2.7471,2.76,2.76,2.76,2.76,2.76,2.76,2.7645,2.7809,2.8246,2.8846,2.9668,3.0313,3.0897,3.1421,3.1511,3.1511,3.1511,3.1511,3.1809,3.2632,3.3185,3.3844,3.4652,3.519,3.5504,3.5504,3.5504,3.5729,3.6254,3.6121,3.6596,3.7789,3.6868,3.6177,3.5854,3.5088,3.415,3.3102,3.3102,3.3102,3.3102,3.3102,3.3102,3.3102,3.3102,3.3102,3.3102,3.3102,3.3102,3.3102,3.3102,3.3253,3.3558,3.4389,3.5416,3.6405,3.6405,3.6405,3.6405,3.6405,3.6405,3.6405,3.6405,3.6405,3.6405,3.6405,3.6405,3.6405,3.6405,3.6405,3.6405,3.6405,3.6405,3.6405,3.6405,3.6505,3.6708,3.7122,3.7287,3.7513,3.7939,3.8002,3.8002,3.8002,3.8002,3.8002,3.8002,3.8002,3.8002,3.8002,3.8002,3.8002,3.8002,3.8002,3.7208,3.5343,3.3937,3.2564,3.1237,3.015,2.9594,2.9588,2.9598,2.9598,2.9598,2.9598,2.9598,2.9598,2.9598,2.9598,2.6363,2.7073,2.76,2.76,2.76,2.76,2.76,2.76,2.7779,2.8397,2.8562,2.8981,3.0208,3.0987,3.1451,3.1496,3.1511,3.1511,3.1511,3.1511,3.1974,3.3275,3.3469,3.4008,3.531,3.5474,3.5504,3.5504,3.5504,3.5534,3.5579,3.6126,3.633,3.609,3.6517,3.6142,3.4815,3.4746,3.415,3.3102,3.3102,3.3102,3.3102,3.3102,3.3102,3.3102,3.3102,3.3102,3.3102,3.3102,3.3102,3.3102,3.3102,3.3709,3.459,3.4665,3.5416,3.6405,3.6405,3.6405,3.6405,3.6405,3.6405,3.6405,3.6405,3.6405,3.6405,3.6405,3.6405,3.6405,3.6405,3.6405,3.6405,3.6405,3.6405,3.6405,3.6405,3.6783,3.716,3.7198,3.76,3.7952,3.8002,3.8002,3.8002,3.8002,3.8002,3.8002,3.8002,3.8002,3.8002,3.8002,3.8002,3.8002,3.8002,3.8002,3.7928,3.7741,3.6496,3.4518,3.184,3.165,3.0946,2.9626,2.9598,2.9598,2.9598,2.9598,2.9598,2.9598,2.9598,2.9598,2.6296,2.7034,2.76,2.76,2.76,2.76,2.76,2.76,2.7794,2.8457,2.8921,2.9609,3.0897,3.1331,3.1511,3.1511,3.1511,3.1511,3.1511,3.1511,3.1989,3.3335,3.3499,3.4023,3.537,3.5504,3.5504,3.5504,3.5504,3.5504,3.5504,3.5505,3.59,3.6807,3.6188,3.5792,3.5634,3.502,3.415,3.3102,3.3102,3.3102,3.3102,3.3102,3.3102,3.3102,3.3102,3.3102,3.3102,3.3102,3.3102,3.3102,3.3102,3.3555,3.4226,3.4577,3.518,3.5893,3.6268,3.6405,3.6405,3.6405,3.6405,3.6405,3.6405,3.6405,3.6405,3.6405,3.6405,3.6405,3.6405,3.6405,3.6405,3.6405,3.6405,3.6405,3.6405,3.6821,3.7311,3.7626,3.8153,3.868,3.8994,3.9057,3.9057,3.9057,3.9057,3.9057,3.9057,3.9057,3.9057,3.9057,3.9057,3.9057,3.9057,3.9057,3.9057,3.9057,3.7133,3.5227,3.3496,3.2633,3.1614,3.0438,3.0419,3.0419,3.0419,3.0419,3.0419,3.0419,3.0419,3.0419,2.6296,2.7034,2.76,2.76,2.76,2.76,2.76,2.76,2.7854,2.874,2.9594,3.0477,3.1346,3.1511,3.1511,3.1511,3.1511,3.1511,3.1511,3.169,3.2228,3.3365,3.3694,3.4263,3.54,3.5504,3.5504,3.5504,3.5504,3.5504,3.5504,3.5247,3.5406,3.6105,3.5405,3.4973,3.4929,3.4434,3.3839,3.3102,3.3102,3.3102,3.3102,3.3102,3.3102,3.3102,3.3102,3.3102,3.3102,3.3102,3.3102,3.3102,3.3102,3.3442,3.396,3.449,3.5042,3.5583,3.6193,3.6405,3.6405,3.6405,3.6405,3.6405,3.6405,3.6405,3.6405,3.6405,3.6405,3.6405,3.6405,3.6405,3.6405,3.6405,3.6405,3.6405,3.6405,3.6947,3.755,3.7939,3.8617,3.9271,3.9634,3.9697,3.9697,3.9697,3.9697,3.9697,3.9697,3.9697,3.9697,3.9697,3.9697,3.9697,3.9697,3.9697,3.9697,3.9697,3.8103,3.6419,3.4751,3.3361,3.2069,3.0908,3.0889,3.0889,3.0889,3.0889,3.0889,3.0889,3.0889,3.0889,2.6296,2.7034,2.76,2.76,2.76,2.76,2.76,2.76,2.7989,2.9324,3.0613,3.1511,3.1511,3.1511,3.1511,3.1511,3.1511,3.1511,3.1511,3.2078,3.2751,3.3425,3.4084,3.4757,3.5429,3.5504,3.5504,3.5504,3.5504,3.5504,3.5504,3.5504,3.4866,3.3459,3.3996,3.3631,3.2223,3.2801,3.3102,3.3102,3.3102,3.3102,3.3102,3.3102,3.3102,3.3102,3.3102,3.3102,3.3102,3.3102,3.3102,3.3102,3.3102,3.3407,3.396,3.449,3.5042,3.5571,3.6193,3.6405,3.6405,3.6405,3.6405,3.6405,3.6405,3.6405,3.6405,3.6405,3.6405,3.6405,3.6405,3.6405,3.6405,3.6405,3.6405,3.6405,3.6405,3.7248,3.8002,3.8002,3.8919,3.9697,3.9697,3.9697,3.9697,3.9697,3.9697,3.9697,3.9697,3.9697,3.9697,3.9697,3.9697,3.9697,3.9697,3.9697,3.9697,3.9697,3.9697,3.8372,3.5426,3.3901,3.2426,3.0947,3.0918,3.0889,3.0889,3.0889,3.0889,3.0889,3.0889,3.0889,2.6296,2.7034,2.76,2.76,2.76,2.76,2.76,2.7961,2.868,2.9968,3.0912,3.1511,3.1511,3.1511,3.1511,3.1511,3.1511,3.1511,3.1511,3.2078,3.2751,3.3425,3.4084,3.4757,3.5429,3.5504,3.5504,3.5504,3.5504,3.5504,3.5504,3.5504,3.5198,3.4548,3.4386,3.3987,3.3335,3.3191,3.3102,3.3102,3.3102,3.3102,3.3102,3.3102,3.3102,3.3102,3.3102,3.3102,3.3102,3.3102,3.3102,3.3102,3.3102,3.3203,3.3454,3.4352,3.4803,3.5079,3.6067,3.6405,3.6405,3.6405,3.6405,3.6405,3.6405,3.6405,3.6405,3.6405,3.6405,3.6405,3.6405,3.6405,3.6405,3.6405,3.6405,3.6405,3.6405,3.7248,3.8002,3.8002,3.8919,3.9697,3.9697,3.9697,3.9697,3.9697,3.9697,3.9697,3.9697,3.9697,3.9697,3.9697,3.9697,3.9697,3.9697,3.9697,3.9697,3.9697,3.8739,3.7769,3.6865,3.5426,3.394,3.2473,3.1441,3.0889,3.0889,3.0889,3.0889,3.0889,3.0889,3.0889,2.6747,2.7267,2.76,2.76,2.76,2.7735,2.8274,2.871,2.928,3.0298,3.1031,3.1511,3.1511,3.1511,3.1511,3.1511,3.1511,3.1511,3.1511,3.2318,3.3051,3.344,3.4338,3.5071,3.5459,3.5504,3.5504,3.5504,3.5504,3.5504,3.5504,3.5504,3.5064,3.4072,3.421,3.3827,3.2855,3.3013,3.3102,3.3102,3.3102,3.3102,3.3102,3.3102,3.3102,3.3102,3.3102,3.3102,3.3102,3.3102,3.3102,3.3102,3.3102,3.3102,3.3203,3.4073,3.4515,3.4828,3.573,3.6205,3.6405,3.6405,3.6405,3.6405,3.6405,3.6405,3.6405,3.6405,3.6405,3.6405,3.6405,3.6405,3.6405,3.6405,3.6405,3.6405,3.6405,3.7248,3.8002,3.8002,3.8919,3.9697,3.9697,3.9697,3.9697,3.9697,3.9697,3.9697,3.9697,3.9697,3.9697,3.9697,3.9697,3.9697,3.9697,3.9697,3.9697,3.9697,3.8321,3.7492,3.7492,3.5524,3.3715,3.2264,3.1354,3.0889,3.0889,3.0889,3.0889,3.0889,3.0889,3.0889,2.7395,2.76,2.76,2.76,2.76,2.7944,2.9279,2.9593,2.9788,3.0447,3.1091,3.1511,3.1511,3.1511,3.1511,3.1511,3.1511,3.1511,3.1511,3.2602,3.3425,3.3484,3.4637,3.5429,3.5489,3.5504,3.5504,3.5504,3.5504,3.5504,3.5504,3.5504,3.4656,3.2784,3.3698,3.3342,3.1536,3.2516,3.3052,3.3102,3.3102,3.3102,3.3102,3.3102,3.3102,3.3102,3.3102,3.3102,3.3102,3.3102,3.3102,3.3102,3.3102,3.3102,3.3165,3.3696,3.4248,3.4778,3.5307,3.5906,3.6405,3.6405,3.6405,3.6405,3.6405,3.6405,3.6405,3.6405,3.6405,3.6405,3.6405,3.6405,3.6405,3.6405,3.6405,3.6405,3.6405,3.7248,3.8002,3.8002,3.8919,3.9697,3.9697,3.9697,3.9697,3.9697,3.9697,3.9697,3.9697,3.9697,3.9697,3.9697,3.9697,3.9697,3.9697,3.9581,3.9504,3.9504,3.8111,3.7252,3.7106,3.4531,3.2473,3.1141,3.0976,3.0889,3.0889,3.0889,3.0889,3.0889,3.0889,3.0889,2.7395,2.76,2.76,2.76,2.76,2.7944,2.9279,2.9593,2.9922,3.1047,3.1406,3.1511,3.1511,3.1511,3.1511,3.1511,3.1511,3.1511,3.1511,3.2198,3.2916,3.344,3.4218,3.4922,3.5444,3.5504,3.5504,3.5504,3.5504,3.5504,3.5504,3.5504,3.4953,3.3739,3.3633,3.3241,3.2515,3.2433,3.2629,3.3102,3.3102,3.3102,3.3102,3.3102,3.3102,3.3102,3.3102,3.3102,3.3102,3.3102,3.3102,3.3102,3.3102,3.3102,3.3165,3.3696,3.4248,3.4778,3.5307,3.5906,3.6405,3.6405,3.6405,3.6405,3.6405,3.6405,3.6405,3.6405,3.6405,3.6405,3.6405,3.6405,3.6405,3.6405,3.6405,3.6405,3.6405,3.7248,3.8002,3.8002,3.8919,3.9697,3.9697,3.9697,3.9697,3.9697,3.9697,3.9697,3.9697,3.9697,3.9697,3.9697,3.9697,3.9697,3.9697,3.8635,3.7967,3.7967,3.6595,3.525,3.4086,3.3434,3.2936,3.2644,3.1498,3.0889,3.0889,3.0889,3.0889,3.0889,3.0889,3.0889,2.7496,2.76,2.76,2.76,2.76,2.7944,2.9279,2.9593,2.9967,3.1241,3.1511,3.1511,3.1511,3.1511,3.1511,3.1511,3.1511,3.1511,3.1511,3.2078,3.2632,3.2976,3.3904,3.4637,3.4997,3.531,3.5504,3.5504,3.5504,3.5504,3.5504,3.5504,3.4822,3.3394,3.3367,3.2993,3.2143,3.2182,3.2503,3.3102,3.3102,3.3102,3.3102,3.3102,3.3102,3.3102,3.3102,3.3102,3.3102,3.3102,3.3102,3.3102,3.3102,3.3102,3.3128,3.3416,3.4022,3.4741,3.5029,3.568,3.6405,3.6405,3.6405,3.6405,3.6405,3.6405,3.6405,3.6405,3.6405,3.6405,3.6405,3.6405,3.6405,3.6405,3.6405,3.6405,3.6405,3.7248,3.8002,3.8002,3.8919,3.9697,3.9697,3.9697,3.9697,3.9697,3.9697,3.9697,3.9697,3.9697,3.9697,3.9697,3.9697,3.9413,3.8713,3.794,3.7198,3.6487,3.5057,3.3901,3.3134,3.2416,3.2045,3.2045,3.1276,3.0889,3.0889,3.0889,3.0889,3.0889,3.0889,3.0889,2.76,2.76,2.76,2.76,2.76,2.7914,2.9144,2.9518,2.9937,3.1091,3.1421,3.1511,3.1511,3.1511,3.1511,3.1511,3.1511,3.1511,3.1511,3.1974,3.2377,3.2482,3.3469,3.4248,3.4488,3.5012,3.5385,3.5489,3.5504,3.5504,3.5504,3.5504,3.4689,3.2908,3.3113,3.2694,3.1526,3.187,3.2353,3.2952,3.3052,3.3102,3.3102,3.3102,3.3102,3.3102,3.3102,3.3102,3.3102,3.3102,3.3102,3.3102,3.3102,3.3102,3.3102,3.3102,3.3771,3.4703,3.4703,3.5441,3.6405,3.6405,3.6405,3.6405,3.6405,3.6405,3.6405,3.6405,3.6405,3.6405,3.6405,3.6405,3.6405,3.6405,3.6405,3.6405,3.6405,3.7248,3.8002,3.8002,3.8919,3.9697,3.9697,3.9697,3.9697,3.9697,3.9697,3.9697,3.9697,3.9697,3.9697,3.9697,3.9465,3.883,3.7598,3.7026,3.6205,3.4985,3.3547,3.2719,3.2719,3.1546,3.0889,3.0889,3.0889,3.0889,3.0889,3.0889,3.0889,3.0889,3.0889,3.0889,2.76,2.76,2.76,2.76,2.76,2.7809,2.856,2.9189,2.9803,3.0492,3.1092,3.1511,3.1511,3.1511,3.1511,3.1511,3.1511,3.1511,3.1511,3.1585,3.1854,3.2422,3.2662,3.3215,3.4383,3.4578,3.4877,3.5459,3.5504,3.5504,3.5504,3.5504,3.4986,3.3842,3.3083,3.2458,3.1926,3.1662,3.1775,3.234,3.2851,3.3102,3.3102,3.3102,3.3102,3.3102,3.3102,3.3102,3.3102,3.3102,3.3102,3.3102,3.3102,3.3102,3.3102,3.3102,3.3771,3.4703,3.4703,3.5441,3.6405,3.6405,3.6405,3.6405,3.6405,3.6405,3.6405,3.6405,3.6405,3.6405,3.6405,3.6405,3.6405,3.6405,3.6405,3.6405,3.6405,3.7248,3.8002,3.8002,3.8919,3.9697,3.9697,3.9697,3.9697,3.9697,3.9697,3.9697,3.9697,3.9697,3.9697,3.9697,3.8556,3.7716,3.7518,3.5156,3.3603,3.3406,3.2016,3.1189,3.1189,3.0995,3.0889,3.0889,3.0889,3.0889,3.0889,3.0889,3.0889,3.0889,3.0889,3.0889,2.76,2.76,2.76,2.76,2.76,2.7779,2.8442,2.9114,2.9773,3.0372,3.1031,3.1511,3.1511,3.1511,3.1511,3.1511,3.1511,3.1511,3.1511,3.1511,3.1615,3.1899,3.2273,3.2721,3.332,3.4054,3.4622,3.4922,3.5295,3.5504,3.5504,3.5504,3.4789,3.3258,3.282,3.2135,3.1215,3.1332,3.1838,3.2726,3.2977,3.3102,3.3102,3.3102,3.3102,3.3102,3.3102,3.3102,3.3102,3.3102,3.3102,3.3102,3.3102,3.3102,3.3102,3.3102,3.3771,3.4703,3.4703,3.5441,3.6405,3.6405,3.6405,3.6405,3.6405,3.6405,3.6405,3.6405,3.6405,3.6405,3.6405,3.6405,3.6405,3.6405,3.6405,3.6493,3.6783,3.745,3.8191,3.8831,3.9358,3.9697,3.9697,3.9697,3.9697,3.9697,3.9697,3.9697,3.9697,3.8973,3.8465,3.8465,3.7145,3.5934,3.5101,3.3845,3.2747,3.193,3.1247,3.0889,3.0889,3.0889,3.0889,3.0889,3.0889,3.0889,3.0889,3.0889,3.0889,3.0889,3.0889,3.0889,2.76,2.76,2.76,2.76,2.76,2.7735,2.8231,2.8994,2.9728,3.0192,3.0927,3.1511,3.1511,3.1511,3.1511,3.1511,3.1511,3.1511,3.1511,3.1511,3.1511,3.1511,3.1929,3.2318,3.2482,3.3395,3.4128,3.4458,3.4951,3.5325,3.5489,3.5504,3.4608,3.2646,3.2593,3.1897,3.0414,3.106,3.1909,3.2876,3.3027,3.3102,3.3102,3.3102,3.3102,3.3102,3.3102,3.3102,3.3102,3.3102,3.3102,3.3102,3.3102,3.3102,3.3102,3.3102,3.3684,3.4515,3.4653,3.5353,3.6205,3.6344,3.6405,3.6405,3.6405,3.6405,3.6405,3.6405,3.6405,3.6405,3.6405,3.6405,3.6405,3.6405,3.6405,3.657,3.7273,3.7826,3.8517,3.9496,3.9697,3.9697,3.9697,3.9697,3.9697,3.9697,3.9388,3.9129,3.9129,3.7861,3.6945,3.6945,3.5606,3.4292,3.3191,3.2747,3.2064,3.0976,3.0889,3.0889,3.0889,3.0889,3.0889,3.0889,3.0889,3.0889,3.0889,3.0889,3.0889,3.0889,3.0889,3.0889,2.76,2.76,2.76,2.76,2.76,2.76,2.7645,2.8663,2.9608,2.9638,3.0643,3.1511,3.1511,3.1511,3.1511,3.1511,3.1511,3.1511,3.1511,3.1511,3.1511,3.1511,3.1525,3.1795,3.2437,3.2557,3.3125,3.4398,3.4518,3.4832,3.5474,3.5504,3.4608,3.2646,3.2593,3.1709,2.9849,3.0891,3.1675,3.2244,3.2839,3.3102,3.3102,3.3102,3.3102,3.3102,3.3102,3.3102,3.3102,3.3102,3.3102,3.3102,3.3102,3.3102,3.3102,3.3102,3.3467,3.401,3.4515,3.5079,3.5644,3.6218,3.6405,3.6405,3.6405,3.6405,3.6405,3.6405,3.6405,3.6405,3.6405,3.6405,3.6405,3.6405,3.6405,3.6683,3.7739,3.8441,3.9019,3.9584,3.9697,3.9697,3.9697,3.9697,3.9697,3.9697,3.8518,3.7598,3.7598,3.6325,3.5398,3.5398,3.4097,3.318,3.3106,3.1825,3.0976,3.0889,3.0889,3.0889,3.0889,3.0889,3.0889,3.0889,3.0889,3.0889,3.0889,3.0889,3.0889,3.0889,3.0889,3.0889,2.76,2.76,2.76,2.76,2.76,2.76,2.76,2.8306,2.9084,2.9503,3.0268,3.0987,3.1421,3.1511,3.1511,3.1511,3.1511,3.1511,3.1511,3.1511,3.1511,3.1511,3.1511,3.16,3.1824,3.2258,3.2691,3.3185,3.3604,3.4158,3.4817,3.4862,3.4447,3.3536,3.2908,3.1852,3.0339,3.1035,3.1675,3.2206,3.2805,3.3102,3.3102,3.3102,3.3102,3.3102,3.3102,3.3102,3.3102,3.3102,3.3102,3.3102,3.3102,3.3102,3.3102,3.3102,3.3442,3.3985,3.4502,3.5067,3.5596,3.6205,3.6405,3.6405,3.6405,3.6405,3.6405,3.6405,3.6405,3.6405,3.6405,3.6405,3.6405,3.6405,3.6934,3.7525,3.7927,3.8467,3.9057,3.9584,3.9697,3.9697,3.9697,3.9697,3.9697,3.9697,3.8439,3.7492,3.7492,3.5387,3.3884,3.3884,3.2569,3.1691,3.1691,3.1189,3.0889,3.0889,3.0889,3.0889,3.0889,3.0889,3.0889,3.0889,3.0889,3.0889,3.0889,3.0889,3.0889,3.0889,3.0889,3.0889,2.76,2.76,2.76,2.76,2.76,2.76,2.76,2.8126,2.8786,2.9458,3.0073,3.0702,3.1376,3.1511,3.1511,3.1511,3.1511,3.1511,3.1511,3.1511,3.1511,3.1511,3.1511,3.1511,3.1511,3.1899,3.2258,3.2482,3.2916,3.3455,3.4128,3.4384,3.4196,3.3556,3.2611,3.1551,3.0331,3.0871,3.1399,3.1938,3.2516,3.2901,3.3102,3.3102,3.3102,3.3102,3.3102,3.3102,3.3102,3.3102,3.3102,3.3102,3.3102,3.3102,3.3102,3.3102,3.3329,3.3721,3.4439,3.4941,3.5368,3.6143,3.6405,3.6405,3.6405,3.6405,3.6405,3.6405,3.6405,3.6405,3.6405,3.6405,3.6405,3.6405,3.7223,3.8002,3.8002,3.863,3.9283,3.9622,3.9697,3.9697,3.9697,3.9697,3.9697,3.9697,3.8031,3.6757,3.6757,3.4181,3.2369,3.2369,3.1488,3.0889,3.0889,3.0889,3.0889,3.0889,3.0889,3.0889,3.0889,3.0889,3.0889,3.0889,3.0889,3.0889,3.0889,3.0889,3.0889,3.0889,3.0889,3.0889,0.0,0.0,0.0,2.76,2.76,2.76,2.76,2.8096,2.8757,2.9428,3.0057,3.0673,3.1346,3.1496,3.1511,3.1511,3.1511,3.1511,3.1511,3.1511,3.1511,3.1511,3.1511,3.1511,3.1511,3.1511,3.1765,3.2422,3.2467,3.2751,3.3425,3.4113,3.3921,3.2633,3.1742,3.0809,2.9811,3.0364,3.0891,3.1419,3.1951,3.2516,3.3102,3.3102,3.3102,3.3102,3.3102,3.3102,3.3102,3.3102,3.3102,3.3102,3.3102,3.3102,3.3102,3.3102,3.3102,3.3253,3.4336,3.4703,3.4879,3.6029,3.6405,3.6405,3.6405,3.6405,3.6405,3.6405,3.6405,3.6405,3.6405,3.6405,3.6405,3.643,3.7235,3.8015,3.8027,3.8881,3.9645,3.9697,3.9697,3.9697,3.9697,3.9697,3.9697,3.9633,3.7156,3.5288,3.5233,3.2711,3.0889,3.0889,3.0889,3.0889,3.0889,3.0889,3.0889,3.0889,3.0889,3.0889,3.0889,3.0889,3.0889,3.0889,3.0889,3.0889,3.0889,3.0889,3.0889,3.0889,3.0898,3.0918,2.76,0.0,0.0,0.0,0.0,0.0,2.76,2.775,2.8079,2.874,2.9398,3.0042,3.0658,3.1167,3.1511,3.1511,3.1511,3.1511,3.1511,3.1511,3.1511,3.1511,3.1511,3.1511,3.1511,3.1511,3.1585,3.1765,3.178,3.2064,3.2736,3.3874,3.3921,3.2633,3.3013,3.2119,2.9811,3.101,3.1543,3.1419,3.1951,3.2516,3.3102,3.3102,3.3102,3.3102,3.3102,3.3102,3.3102,3.3102,3.3102,3.3102,3.3102,3.3102,3.3102,3.3102,3.3102,3.3253,3.4336,3.4703,3.4879,3.6029,3.6405,3.6405,3.6405,3.6405,3.6405,3.6405,3.6405,3.6405,3.6405,3.6405,3.6505,3.6884,3.75,3.8115,3.8567,3.8364,3.8413,3.9491,3.9697,3.9697,3.9697,3.9697,3.9336,3.8269,3.6514,3.4902,3.3856,3.2074,3.0889,3.0889,3.0889,3.0889,3.0889,3.0889,3.0889,3.0889,3.0889,3.0889,3.0889,3.0889,3.0889,3.0889,3.0889,3.0889,3.0889,3.0889,3.0889,3.0898,3.1201,3.1514,0.0,0.0,0.0,2.76,0.0,0.0,2.76,2.76,2.7794,2.8457,2.9131,2.9773,3.0387,3.1046,3.1511,3.1511,3.1511,3.1511,3.1511,3.1511,3.1511,3.1511,3.1511,3.1511,3.1511,3.1511,3.1511,3.1511,3.1511,3.1914,3.2871,3.3649,3.3627,3.2619,3.3501,3.2656,2.983,3.1039,3.1578,3.1406,3.1725,3.229,3.3102,3.3102,3.3102,3.3102,3.3102,3.3102,3.3102,3.3102,3.3102,3.3102,3.3102,3.3102,3.3102,3.3102,3.3102,3.3253,3.4336,3.4703,3.4879,3.6029,3.6405,3.6405,3.6405,3.6405,3.6405,3.6405,3.6405,3.6405,3.6405,3.6405,3.6556,3.7072,3.76,3.8004,3.7984,3.7724,3.794,3.9413,3.8699,3.8267,3.9504,3.9193,3.8491,3.7624,3.6244,3.4764,3.3293,3.1825,3.0889,3.0889,3.0889,3.0889,3.0889,3.0889,3.0889,3.0889,3.0889,3.0889,3.0889,3.0889,3.0889,3.0889,3.0889,3.0976,3.1152,3.0976,3.0986,3.1162,3.1592,3.1924,0.0,0.0,0.0,0.0,2.76,0.0,2.76,2.76,2.7764,2.838,2.9024,2.9653,3.0193,3.0837,3.1316,3.1376,3.1391,3.1406,3.1496,3.1511,3.1511,3.1511,3.1511,3.1511,3.1511,3.1511,3.1511,3.1511,3.1511,3.2093,3.3425,3.3499,3.3264,3.2778,3.3671,3.2816,2.9991,3.0889,3.1375,3.1406,3.1406,3.1997,3.3102,3.3102,3.3102,3.3102,3.3102,3.3102,3.3102,3.3102,3.3102,3.3102,3.3102,3.3102,3.3102,3.3102,3.3102,3.3253,3.4336,3.4703,3.4879,3.6029,3.6405,3.6405,3.6405,3.6405,3.6405,3.6405,3.6405,3.6405,3.6405,3.6405,3.6545,3.7148,3.7651,3.783,3.7162,3.7144,3.769,3.9167,3.721,3.6174,3.8973,3.8216,3.7252,3.7252,3.5999,3.4515,3.3049,3.171,3.0889,3.0889,3.0889,3.0889,3.0889,3.0889,3.0889,3.0889,3.0889,3.0889,3.0889,3.0889,3.0889,3.0889,3.0937,3.1143,3.1484,3.1143,3.1201,3.164,3.206,3.2296,0.0,0.0,0.0,0.0,2.76,0.0,2.76,2.76,2.763,2.7764,2.8336,2.8831,2.8951,2.952,3.0118,3.0613,3.0702,3.0882,3.1421,3.1511,3.1511,3.1511,3.1511,3.1511,3.1511,3.1511,3.1511,3.1511,3.1511,3.2093,3.3425,3.3499,3.3565,3.3714,3.4691,3.3819,3.0951,3.1852,3.2011,3.1406,3.1406,3.1997,3.3102,3.3102,3.3102,3.3102,3.3102,3.3102,3.3102,3.3102,3.3102,3.3102,3.3102,3.3102,3.3102,3.3102,3.3102,3.3253,3.4336,3.4703,3.4879,3.6029,3.6405,3.6405,3.6405,3.6405,3.6405,3.6405,3.6405,3.6405,3.6405,3.6405,3.6632,3.7613,3.7927,3.8204,3.895,3.7326,3.6162,3.7636,3.6514,3.5863,3.7636,3.6715,3.5727,3.5727,3.4487,3.3003,3.1517,3.1083,3.0889,3.0889,3.0889,3.0889,3.0889,3.0889,3.0889,3.0889,3.0889,3.0889,3.0889,3.0889,3.0889,3.0889,3.1221,3.1406,3.1484,3.1406,3.1787,3.2549,3.2637,3.2851,0.0,0.0,0.0,2.76,0.0,0.0,0.0,2.76,2.76,2.76,2.8126,2.8607,2.8607,2.9159,2.9698,2.9998,3.0298,3.0613,3.0957,3.1286,3.1511,3.1511,3.1511,3.1511,3.1511,3.1511,3.1511,3.1511,3.1511,3.1929,3.2961,3.332,3.3292,3.2831,3.4563,3.3885,3.052,3.1901,3.207,3.0997,3.1273,3.1838,3.2654,3.2964,3.3102,3.3102,3.3102,3.3102,3.3102,3.3102,3.3102,3.3102,3.3102,3.3102,3.3102,3.3102,3.3102,3.3253,3.4336,3.4703,3.4879,3.6029,3.6405,3.6405,3.6405,3.6405,3.6405,3.6405,3.6405,3.6405,3.6405,3.6405,3.6658,3.7739,3.8002,3.7916,3.7592,3.6337,3.5068,3.4348,3.3614,3.381,3.6027,3.5167,3.4208,3.4208,3.3575,3.2558,3.1083,3.0889,3.0889,3.0889,3.0889,3.0889,3.0889,3.0889,3.0889,3.0889,3.0889,3.0889,3.0889,3.0889,3.0986,3.1201,3.1406,3.1698,3.2158,3.2158,3.2373,3.2803,3.3008,3.3223,0.0,0.0,0.0,0.0,0.0,2.76,0.0,0.0,0.0,2.76,2.8021,2.8412,2.8412,2.8845,2.9262,2.9383,2.9819,3.0223,3.0477,3.0972,3.1361,3.1466,3.1511,3.1511,3.1511,3.1511,3.1511,3.1511,3.1511,3.1795,3.2467,3.314,3.2987,3.1919,3.4041,3.3561,3.0113,3.1573,3.175,3.06,3.1135,3.1675,3.2206,3.2826,3.3102,3.3102,3.3102,3.3102,3.3102,3.3102,3.3102,3.3102,3.3102,3.3102,3.3102,3.3102,3.3102,3.3253,3.4336,3.4703,3.4879,3.6029,3.6405,3.6405,3.6405,3.6405,3.6405,3.6405,3.6405,3.6405,3.6405,3.6405,3.6658,3.7739,3.8002,3.7565,3.6052,3.5508,3.4526,3.1825,3.1083,3.1749,3.4414,3.3659,3.2776,3.3049,3.2861,3.2264,3.1054,3.0889,3.0889,3.0889,3.0889,3.0889,3.0889,3.0889,3.0889,3.0889,3.0889,3.0889,3.0889,3.0967,3.1172,3.1484,3.165,3.2109,3.2793,3.2871,3.292,3.292,3.3262,3.3386,0.0,0.0,0.0,0.0,2.76,0.0,2.76,0.0,2.76,2.76,0.0,2.7705,2.7705,0.0,0.0,2.862,2.8771,2.9205,3.0342,3.0567,3.0837,3.1436,3.1511,3.1511,3.1511,3.1511,3.1511,3.1511,3.1511,3.1795,3.2467,3.314,3.3316,3.2939,3.3727,3.3154,3.1063,3.1254,3.1101,3.06,3.1135,3.1675,3.2206,3.2826,3.3102,3.3102,3.3102,3.3102,3.3102,3.3102,3.3102,3.3102,3.3102,3.3102,3.3102,3.3102,3.3102,3.3253,3.4336,3.4703,3.4879,3.6029,3.6405,3.6405,3.6405,3.6405,3.6405,3.6405,3.6405,3.6405,3.6405,3.6405,3.6658,3.7739,3.8002,3.7866,3.7345,3.6217,3.482,3.3162,3.1796,3.1412,3.3077,3.2121,3.1575,3.2907,3.1988,3.1083,3.0918,3.0889,3.0889,3.0889,3.0889,3.0889,3.0889,3.0889,3.0889,3.0889,3.0889,3.0889,3.0889,3.125,3.1435,3.1484,3.2266,3.2695,3.2793,3.3174,3.3318,3.3318,3.3367,3.3386,0.0,0.0,0.0,0.0,0.0,0.0,2.769,0.0,2.76,0.0,0.0,0.0,0.0,0.0,0.0,0.0,2.8351,2.8786,2.9325,3.0043,3.0747,3.1421,3.1511,3.1511,3.1511,3.1511,3.1511,3.1511,3.1511,3.163,3.1899,3.2916,3.3202,3.2542,3.3475,3.3101,3.1217,3.1199,3.0831,3.0143,3.0984,3.1512,3.1763,3.2688,3.3102,3.3102,3.3102,3.3102,3.3102,3.3102,3.3102,3.3102,3.3102,3.3102,3.3102,3.3102,3.3102,3.3253,3.4336,3.4703,3.4879,3.6029,3.6405,3.6405,3.6405,3.6405,3.6405,3.6405,3.6405,3.6405,3.6405,3.6405,3.6658,3.7739,3.7356,3.6627,3.6294,3.5057,3.3586,3.2102,3.1325,3.1112,3.172,3.1305,3.1112,3.1738,3.1305,3.0889,3.0889,3.0889,3.0889,3.0889,3.0889,3.0889,3.0889,3.0889,3.0889,3.0889,3.0889,3.0889,3.0889,3.1299,3.1641,3.1894,3.249,3.291,3.3164,3.3308,3.3386,3.3386,3.3386,3.3386,2.9758,0.0,0.0,0.0,0.0,0.0,0.0,0.0,0.0,0.0,0.0,0.0,0.0,0.0,0.0,0.0,0.0,2.833,2.8297,2.9264,3.0298,3.1122,3.1391,3.1409,3.119,3.1175,3.1175,3.1175,3.1175,3.1175,3.1175,3.2646,3.296,3.1771,3.2964,3.2837,3.1217,3.0932,3.0463,2.9804,3.0904,3.1406,3.1436,3.2587,3.3102,3.3102,3.3102,3.3102,3.3102,3.3102,3.3102,3.3102,3.3102,3.3102,3.3102,3.3102,3.3102,3.3253,3.4336,3.4891,3.5303,3.613,3.6405,3.6405,3.6405,3.6405,3.6405,3.6405,3.6405,3.6405,3.6405,3.6405,3.6658,3.7739,3.6856,3.5702,3.5375,3.4125,3.2672,3.1189,3.0889,3.0889,3.0889,3.0889,3.0889,3.0889,3.0889,3.0889,3.0889,3.0889,3.0889,3.0889,3.0889,3.0889,3.0889,3.0889,3.0889,3.0889,3.0889,3.0947,3.1055,3.1475,3.1894,3.2364,3.2754,3.3115,3.3386,3.3386,3.3386,3.3386,3.3386,3.3386,0.0,0.0,0.0,2.9563,0.0,0.0,0.0,0.0,2.8562,0.0,0.0,0.0,0.0,0.0,0.0,0.0,0.0,0.0,0.0,2.8197,2.9131,3.0387,3.1092,3.119,3.0404,3.0344,3.0344,3.0344,3.0344,3.0344,3.0344,3.2358,3.2679,3.0898,3.2007,3.2177,3.1217,3.0298,2.983,2.9804,3.0904,3.1406,3.1436,3.2587,3.3102,3.3102,3.3102,3.3102,3.3102,3.3102,3.3102,3.3102,3.3102,3.3102,3.3102,3.3102,3.3102,3.3253,3.4336,3.5416,3.6344,3.6405,3.6405,3.6405,3.6405,3.6405,3.6405,3.6405,3.6405,3.6405,3.6405,3.6405,3.6658,3.7739,3.6856,3.5702,3.5375,3.4125,3.2672,3.1189,3.0889,3.0889,3.0889,3.0889,3.0889,3.0889,3.0889,3.0889,3.0889,3.0889,3.0889,3.0889,3.0889,3.0889,3.0889,3.0889,3.0889,3.0889,3.0889,3.1074,3.1455,3.1914,3.2374,3.2764,3.3193,3.3377,3.3386,3.3386,3.3386,3.3386,3.3386,3.3386,0.0,0.0,3.0747,3.0313,0.0,0.0,0.0,0.0,0.0,0.0,0.0,0.0,0.0,0.0,0.0,0.0,0.0,0.0,0.0,2.7325,2.8124,2.936,2.9701,2.9965,3.0269,3.0299,3.0299,3.0299,3.0299,3.0299,3.0299,3.1791,3.2363,3.1754,3.2284,3.2464,3.2141,3.0589,2.9792,2.9804,3.0904,3.1406,3.1436,3.2587,3.3102,3.3102,3.3102,3.3102,3.3102,3.3102,3.3102,3.3102,3.3102,3.3102,3.3102,3.3102,3.3102,3.3253,3.4336,3.5441,3.6405,3.6405,3.6405,3.6405,3.6405,3.6405,3.6405,3.6405,3.6405,3.6405,3.6405,3.6405,3.6658,3.7739,3.6137,3.4528,3.5157,3.3371,3.1796,3.2254,3.1575,3.1218,3.2207,3.1546,3.0889,3.0889,3.0889,3.0889,3.0889,3.0889,3.0889,3.0889,3.0889,3.0889,3.0889,3.0889,3.0889,3.0889,3.1152,3.1367,3.1484,3.2207,3.2656,3.2793,3.3203,3.3386,3.3386,3.3386,3.3386,3.3386,3.3386,3.3386,3.164,3.1511,0.0,3.0972,3.0852,0.0,3.0357,0.0,2.9922,0.0,0.0,0.0,0.0,0.0,0.0,0.0,0.0,0.0,0.0,2.6655,2.7126,2.8479,2.8849,2.9097,2.9348,2.938,2.938,2.938,2.938,2.9618,3.0155,3.1468,3.2161,3.2065,3.2413,3.2446,3.2105,3.057,2.9792,2.9804,3.0904,3.1406,3.1436,3.2587,3.3102,3.3102,3.3102,3.3102,3.3102,3.3102,3.3102,3.3102,3.3102,3.3102,3.3102,3.3102,3.3341,3.3759,3.4452,3.5441,3.6405,3.6405,3.6405,3.6405,3.6405,3.6405,3.6405,3.6405,3.6405,3.6405,3.6405,3.6405,3.6658,3.7739,3.6137,3.4686,3.5836,3.4191,3.274,3.3687,3.2701,3.1988,3.2936,3.1872,3.0889,3.0889,3.0889,3.0889,3.0889,3.0889,3.0889,3.0889,3.0889,3.0889,3.0889,3.0889,3.0957,3.1103,3.1367,3.163,3.1963,3.25,3.2793,3.2793,3.3203,3.3318,3.3203,3.3318,3.3386,3.3386,3.3386,3.3386]}]]